Wetterdaten: Montag, 21.08.2017
Datum Zeit Temp. A. Pool Temp. Feuchte A. Luftdruck Regen Wind Richtung Richtung Sonnenschein ET UV Solar Taupunkt Windchill Windben Empfang
21.08.2017 00:00 13,2 C 22,2 C 89 % 1022,3 hPa 0,0 l/m 4,5 km/h (1 Bft) S-SW 213 0 min 0,000 mm 0,0 UV-I 0 W/m 11,4 C 13,2 C 8,0 km/h (2 Bft) 96,00 %
21.08.2017 00:02 13,2 C 22,2 C 89 % 1022,4 hPa 0,0 l/m 5,6 km/h (1 Bft) S-SW 207 0 min 0,000 mm 0,0 UV-I 0 W/m 11,4 C 13,2 C 8,0 km/h (2 Bft) 100,00 %
21.08.2017 00:04 13,2 C 22,2 C 89 % 1022,2 hPa 0,0 l/m 6,2 km/h (2 Bft) S-SW 200 0 min 0,000 mm 0,0 UV-I 0 W/m 11,4 C 13,2 C 9,7 km/h (2 Bft) 100,00 %
21.08.2017 00:06 13,2 C 21,7 C 89 % 1022,2 hPa 0,0 l/m 5,4 km/h (1 Bft) S 182 0 min 0,000 mm 0,0 UV-I 0 W/m 11,4 C 13,2 C 9,7 km/h (2 Bft) 100,00 %
21.08.2017 00:08 13,2 C 22,2 C 89 % 1022,3 hPa 0,0 l/m 5,4 km/h (1 Bft) SW 225 0 min 0,000 mm 0,0 UV-I 0 W/m 11,4 C 13,2 C 9,7 km/h (2 Bft) 100,00 %
21.08.2017 00:10 13,2 C 22,2 C 89 % 1022,3 hPa 0,0 l/m 4,6 km/h (1 Bft) S-SW 207 0 min 0,000 mm 0,0 UV-I 0 W/m 11,4 C 13,2 C 9,7 km/h (2 Bft) 100,00 %
21.08.2017 00:12 13,2 C 22,2 C 89 % 1022,3 hPa 0,0 l/m 5,0 km/h (1 Bft) SW 230 0 min 0,000 mm 0,0 UV-I 0 W/m 11,4 C 13,2 C 8,0 km/h (2 Bft) 100,00 %
21.08.2017 00:14 13,2 C 22,2 C 89 % 1022,3 hPa 0,0 l/m 5,8 km/h (2 Bft) S-SW 207 0 min 0,000 mm 0,0 UV-I 0 W/m 11,4 C 13,2 C 8,0 km/h (2 Bft) 96,08 %
21.08.2017 00:16 13,2 C 21,7 C 89 % 1022,3 hPa 0,0 l/m 5,9 km/h (2 Bft) S-SW 206 0 min 0,000 mm 0,0 UV-I 0 W/m 11,4 C 13,2 C 9,7 km/h (2 Bft) 97,56 %
21.08.2017 00:18 13,2 C 21,7 C 89 % 1022,3 hPa 0,0 l/m 7,5 km/h (2 Bft) S-SW 211 0 min 0,000 mm 0,0 UV-I 0 W/m 11,4 C 12,5 C 11,3 km/h (2 Bft) 100,00 %
21.08.2017 00:20 13,1 C 21,7 C 89 % 1022,4 hPa 0,0 l/m 7,7 km/h (2 Bft) SW 214 0 min 0,000 mm 0,0 UV-I 0 W/m 11,3 C 12,3 C 11,3 km/h (2 Bft) 98,11 %
21.08.2017 00:22 13,1 C 21,7 C 89 % 1022,4 hPa 0,0 l/m 7,5 km/h (2 Bft) S 185 0 min 0,000 mm 0,0 UV-I 0 W/m 11,3 C 12,4 C 9,7 km/h (2 Bft) 97,56 %
21.08.2017 00:24 13,1 C 21,7 C 89 % 1022,4 hPa 0,0 l/m 5,8 km/h (2 Bft) SW 218 0 min 0,000 mm 0,0 UV-I 0 W/m 11,3 C 13,1 C 9,7 km/h (2 Bft) 100,00 %
21.08.2017 00:26 13,2 C 21,7 C 89 % 1022,4 hPa 0,0 l/m 8,1 km/h (2 Bft) S-SW 198 0 min 0,000 mm 0,0 UV-I 0 W/m 11,4 C 12,2 C 14,5 km/h (3 Bft) 97,14 %
21.08.2017 00:28 13,2 C 21,7 C 89 % 1022,4 hPa 0,0 l/m 8,8 km/h (2 Bft) S 186 0 min 0,000 mm 0,0 UV-I 0 W/m 11,4 C 11,8 C 12,9 km/h (3 Bft) 97,87 %
21.08.2017 00:30 13,2 C 21,7 C 89 % 1022,4 hPa 0,0 l/m 6,8 km/h (2 Bft) SW 215 0 min 0,000 mm 0,0 UV-I 0 W/m 11,4 C 13,0 C 9,7 km/h (2 Bft) 100,00 %
21.08.2017 00:32 13,2 C 21,7 C 89 % 1022,4 hPa 0,0 l/m 7,8 km/h (2 Bft) S-SW 207 0 min 0,000 mm 0,0 UV-I 0 W/m 11,4 C 12,3 C 9,7 km/h (2 Bft) 100,00 %
21.08.2017 00:34 13,2 C 21,7 C 89 % 1022,4 hPa 0,0 l/m 6,9 km/h (2 Bft) S-SW 204 0 min 0,000 mm 0,0 UV-I 0 W/m 11,4 C 12,9 C 9,7 km/h (2 Bft) 100,00 %
21.08.2017 00:36 13,2 C 21,7 C 89 % 1022,4 hPa 0,0 l/m 6,6 km/h (2 Bft) S-SW 213 0 min 0,000 mm 0,0 UV-I 0 W/m 11,4 C 13,1 C 9,7 km/h (2 Bft) 97,56 %
21.08.2017 00:38 13,2 C 21,7 C 89 % 1022,4 hPa 0,0 l/m 6,0 km/h (2 Bft) SW 218 0 min 0,000 mm 0,0 UV-I 0 W/m 11,4 C 13,2 C 9,7 km/h (2 Bft) 97,87 %
21.08.2017 00:40 13,2 C 21,7 C 89 % 1022,4 hPa 0,0 l/m 6,5 km/h (2 Bft) S-SW 198 0 min 0,000 mm 0,0 UV-I 0 W/m 11,4 C 13,2 C 9,7 km/h (2 Bft) 98,21 %
21.08.2017 00:42 13,2 C 21,7 C 89 % 1022,4 hPa 0,0 l/m 7,1 km/h (2 Bft) SW 217 0 min 0,000 mm 0,0 UV-I 0 W/m 11,4 C 12,8 C 9,7 km/h (2 Bft) 100,00 %
21.08.2017 00:44 13,3 C 21,7 C 89 % 1022,4 hPa 0,0 l/m 6,9 km/h (2 Bft) SW 214 0 min 0,000 mm 0,0 UV-I 0 W/m 11,5 C 13,0 C 11,3 km/h (2 Bft) 97,87 %
21.08.2017 00:46 13,3 C 21,7 C 89 % 1022,4 hPa 0,0 l/m 7,7 km/h (2 Bft) S-SW 212 0 min 0,000 mm 0,0 UV-I 0 W/m 11,5 C 12,5 C 9,7 km/h (2 Bft) 95,12 %
21.08.2017 00:48 13,3 C 21,7 C 89 % 1022,4 hPa 0,0 l/m 6,4 km/h (2 Bft) S-SW 208 0 min 0,000 mm 0,0 UV-I 0 W/m 11,5 C 13,3 C 8,0 km/h (2 Bft) 100,00 %
21.08.2017 00:50 13,3 C 21,7 C 89 % 1022,2 hPa 0,0 l/m 4,9 km/h (1 Bft) S-SW 209 0 min 0,000 mm 0,0 UV-I 0 W/m 11,5 C 13,3 C 8,0 km/h (2 Bft) 100,00 %
21.08.2017 00:52 13,3 C 21,7 C 89 % 1022,2 hPa 0,0 l/m 4,8 km/h (1 Bft) S-SW 205 0 min 0,000 mm 0,0 UV-I 0 W/m 11,5 C 13,3 C 8,0 km/h (2 Bft) 98,00 %
21.08.2017 00:54 13,2 C 21,7 C 89 % 1022,2 hPa 0,0 l/m 3,2 km/h (1 Bft) S-SW 205 0 min 0,000 mm 0,0 UV-I 0 W/m 11,4 C 13,2 C 6,4 km/h (2 Bft) 100,00 %
21.08.2017 00:56 13,2 C 21,7 C 89 % 1022,2 hPa 0,0 l/m 2,8 km/h (1 Bft) S-SW 205 0 min 0,000 mm 0,0 UV-I 0 W/m 11,4 C 13,2 C 4,8 km/h (1 Bft) 98,21 %
21.08.2017 00:58 13,2 C 21,7 C 89 % 1022,2 hPa 0,0 l/m 5,4 km/h (1 Bft) SW 223 0 min 0,000 mm 0,0 UV-I 0 W/m 11,4 C 13,2 C 8,0 km/h (2 Bft) 98,00 %
21.08.2017 01:00 13,2 C 21,7 C 89 % 1022,3 hPa 0,0 l/m 5,9 km/h (2 Bft) S-SW 212 0 min 0,000 mm 0,0 UV-I 0 W/m 11,4 C 13,2 C 9,7 km/h (2 Bft) 91,67 %
21.08.2017 01:02 13,2 C 21,7 C 89 % 1022,3 hPa 0,0 l/m 5,4 km/h (1 Bft) S-SW 208 0 min 0,000 mm 0,0 UV-I 0 W/m 11,4 C 13,2 C 8,0 km/h (2 Bft) 98,53 %
21.08.2017 01:04 13,2 C 21,7 C 89 % 1022,2 hPa 0,0 l/m 4,5 km/h (1 Bft) SW 222 0 min 0,000 mm 0,0 UV-I 0 W/m 11,4 C 13,2 C 8,0 km/h (2 Bft) 97,37 %
21.08.2017 01:06 13,2 C 21,7 C 89 % 1022,2 hPa 0,0 l/m 4,4 km/h (1 Bft) SW 222 0 min 0,000 mm 0,0 UV-I 0 W/m 11,4 C 13,2 C 6,4 km/h (2 Bft) 98,00 %
21.08.2017 01:08 13,1 C 21,7 C 89 % 1022,2 hPa 0,0 l/m 4,7 km/h (1 Bft) S 184 0 min 0,000 mm 0,0 UV-I 0 W/m 11,3 C 13,1 C 8,0 km/h (2 Bft) 96,23 %
21.08.2017 01:10 13,1 C 21,7 C 89 % 1022,2 hPa 0,0 l/m 6,8 km/h (2 Bft) S-SW 211 0 min 0,000 mm 0,0 UV-I 0 W/m 11,3 C 12,9 C 11,3 km/h (2 Bft) 97,87 %
21.08.2017 01:12 13,1 C 21,7 C 89 % 1022,4 hPa 0,0 l/m 6,0 km/h (2 Bft) SW 219 0 min 0,000 mm 0,0 UV-I 0 W/m 11,3 C 13,1 C 8,0 km/h (2 Bft) 97,37 %
21.08.2017 01:14 13,1 C 21,7 C 89 % 1022,3 hPa 0,0 l/m 4,6 km/h (1 Bft) SW 219 0 min 0,000 mm 0,0 UV-I 0 W/m 11,3 C 13,1 C 6,4 km/h (2 Bft) 98,11 %
21.08.2017 01:16 13,0 C 21,7 C 89 % 1022,3 hPa 0,0 l/m 6,0 km/h (2 Bft) SW 218 0 min 0,000 mm 0,0 UV-I 0 W/m 11,2 C 13,0 C 8,0 km/h (2 Bft) 97,73 %
21.08.2017 01:18 13,0 C 21,7 C 90 % 1022,3 hPa 0,0 l/m 6,7 km/h (2 Bft) S-SW 207 0 min 0,000 mm 0,0 UV-I 0 W/m 11,4 C 12,8 C 9,7 km/h (2 Bft) 97,62 %
21.08.2017 01:20 13,0 C 21,7 C 89 % 1022,2 hPa 0,0 l/m 6,8 km/h (2 Bft) S-SW 200 0 min 0,000 mm 0,0 UV-I 0 W/m 11,2 C 12,8 C 9,7 km/h (2 Bft) 98,28 %
21.08.2017 01:22 12,9 C 21,7 C 89 % 1022,3 hPa 0,0 l/m 6,5 km/h (2 Bft) S-SW 205 0 min 0,000 mm 0,0 UV-I 0 W/m 11,1 C 12,9 C 9,7 km/h (2 Bft) 95,74 %
21.08.2017 01:24 12,9 C 21,7 C 89 % 1022,2 hPa 0,0 l/m 4,9 km/h (1 Bft) S-SW 196 0 min 0,000 mm 0,0 UV-I 0 W/m 11,1 C 12,9 C 8,0 km/h (2 Bft) 97,87 %
21.08.2017 01:26 12,9 C 21,7 C 90 % 1022,2 hPa 0,0 l/m 3,8 km/h (1 Bft) S 181 0 min 0,000 mm 0,0 UV-I 0 W/m 11,3 C 12,9 C 8,0 km/h (2 Bft) 97,22 %
21.08.2017 01:28 12,9 C 21,7 C 90 % 1022,1 hPa 0,0 l/m 3,9 km/h (1 Bft) S 190 0 min 0,000 mm 0,0 UV-I 0 W/m 11,3 C 12,9 C 8,0 km/h (2 Bft) 98,11 %
21.08.2017 01:30 12,9 C 21,7 C 90 % 1022,2 hPa 0,0 l/m 3,9 km/h (1 Bft) S 191 0 min 0,000 mm 0,0 UV-I 0 W/m 11,3 C 12,9 C 8,0 km/h (2 Bft) 100,00 %
21.08.2017 01:32 12,9 C 21,7 C 90 % 1022,2 hPa 0,0 l/m 5,0 km/h (1 Bft) S-SW 203 0 min 0,000 mm 0,0 UV-I 0 W/m 11,3 C 12,9 C 8,0 km/h (2 Bft) 100,00 %
21.08.2017 01:34 12,9 C 21,7 C 90 % 1022,2 hPa 0,0 l/m 4,0 km/h (1 Bft) S-SW 196 0 min 0,000 mm 0,0 UV-I 0 W/m 11,3 C 12,9 C 8,0 km/h (2 Bft) 100,00 %
21.08.2017 01:36 12,9 C 21,7 C 90 % 1022,2 hPa 0,0 l/m 6,5 km/h (2 Bft) S-SW 210 0 min 0,000 mm 0,0 UV-I 0 W/m 11,3 C 12,9 C 9,7 km/h (2 Bft) 100,00 %
21.08.2017 01:38 12,9 C 21,7 C 90 % 1022,1 hPa 0,0 l/m 5,8 km/h (2 Bft) SW 215 0 min 0,000 mm 0,0 UV-I 0 W/m 11,3 C 12,9 C 8,0 km/h (2 Bft) 97,73 %
21.08.2017 01:40 12,8 C 21,7 C 90 % 1022,1 hPa 0,0 l/m 6,1 km/h (2 Bft) S-SW 209 0 min 0,000 mm 0,0 UV-I 0 W/m 11,2 C 12,8 C 9,7 km/h (2 Bft) 98,00 %
21.08.2017 01:42 12,8 C 21,7 C 90 % 1022,1 hPa 0,0 l/m 7,1 km/h (2 Bft) S-SW 212 0 min 0,000 mm 0,0 UV-I 0 W/m 11,2 C 12,4 C 9,7 km/h (2 Bft) 100,00 %
21.08.2017 01:44 12,9 C 21,7 C 90 % 1022,1 hPa 0,0 l/m 5,2 km/h (1 Bft) S 172 0 min 0,000 mm 0,0 UV-I 0 W/m 11,3 C 12,9 C 8,0 km/h (2 Bft) 100,00 %
21.08.2017 01:46 12,9 C 21,7 C 90 % 1022,1 hPa 0,0 l/m 5,8 km/h (2 Bft) SW 219 0 min 0,000 mm 0,0 UV-I 0 W/m 11,3 C 12,9 C 8,0 km/h (2 Bft) 100,00 %
21.08.2017 01:48 12,9 C 21,7 C 90 % 1022,1 hPa 0,0 l/m 4,9 km/h (1 Bft) SW 223 0 min 0,000 mm 0,0 UV-I 0 W/m 11,3 C 12,9 C 6,4 km/h (2 Bft) 100,00 %
21.08.2017 01:50 12,9 C 21,7 C 90 % 1022,2 hPa 0,0 l/m 4,6 km/h (1 Bft) SW 223 0 min 0,000 mm 0,0 UV-I 0 W/m 11,3 C 12,9 C 6,4 km/h (2 Bft) 100,00 %
21.08.2017 01:52 12,9 C 21,7 C 90 % 1022,1 hPa 0,0 l/m 4,9 km/h (1 Bft) SW 219 0 min 0,000 mm 0,0 UV-I 0 W/m 11,3 C 12,9 C 6,4 km/h (2 Bft) 100,00 %
21.08.2017 01:54 12,9 C 21,7 C 90 % 1022,1 hPa 0,0 l/m 5,2 km/h (1 Bft) S-SW 209 0 min 0,000 mm 0,0 UV-I 0 W/m 11,3 C 12,9 C 8,0 km/h (2 Bft) 97,87 %
21.08.2017 01:56 12,9 C 21,7 C 91 % 1022,2 hPa 0,0 l/m 4,9 km/h (1 Bft) S-SW 209 0 min 0,000 mm 0,0 UV-I 0 W/m 11,5 C 12,9 C 6,4 km/h (2 Bft) 100,00 %
21.08.2017 01:58 12,9 C 21,7 C 90 % 1022,2 hPa 0,0 l/m 5,8 km/h (2 Bft) S-SW 208 0 min 0,000 mm 0,0 UV-I 0 W/m 11,3 C 12,9 C 8,0 km/h (2 Bft) 100,00 %
21.08.2017 02:00 12,9 C 21,7 C 90 % 1022,1 hPa 0,0 l/m 6,8 km/h (2 Bft) S-SW 208 0 min 0,000 mm 0,0 UV-I 0 W/m 11,3 C 12,7 C 8,0 km/h (2 Bft) 100,00 %
21.08.2017 02:02 12,9 C 21,7 C 90 % 1022,1 hPa 0,0 l/m 5,0 km/h (1 Bft) S-SW 208 0 min 0,000 mm 0,0 UV-I 0 W/m 11,3 C 12,9 C 8,0 km/h (2 Bft) 100,00 %
21.08.2017 02:04 12,9 C 21,7 C 90 % 1022,1 hPa 0,0 l/m 4,0 km/h (1 Bft) S-SW 208 0 min 0,000 mm 0,0 UV-I 0 W/m 11,3 C 12,9 C 6,4 km/h (2 Bft) 100,00 %
21.08.2017 02:06 12,9 C 21,7 C 90 % 1022,1 hPa 0,0 l/m 4,5 km/h (1 Bft) S-SW 207 0 min 0,000 mm 0,0 UV-I 0 W/m 11,3 C 12,9 C 6,4 km/h (2 Bft) 98,00 %
21.08.2017 02:08 12,9 C 21,7 C 91 % 1022,1 hPa 0,0 l/m 4,3 km/h (1 Bft) S-SW 207 0 min 0,000 mm 0,0 UV-I 0 W/m 11,5 C 12,9 C 6,4 km/h (2 Bft) 100,00 %
21.08.2017 02:10 12,9 C 21,7 C 91 % 1022,1 hPa 0,0 l/m 2,8 km/h (1 Bft) S-SW 207 0 min 0,000 mm 0,0 UV-I 0 W/m 11,5 C 12,9 C 4,8 km/h (1 Bft) 98,11 %
21.08.2017 02:12 12,9 C 21,7 C 91 % 1022,1 hPa 0,0 l/m 3,1 km/h (1 Bft) S-SW 207 0 min 0,000 mm 0,0 UV-I 0 W/m 11,5 C 12,9 C 4,8 km/h (1 Bft) 100,00 %
21.08.2017 02:14 12,9 C 21,7 C 91 % 1022,2 hPa 0,0 l/m 3,3 km/h (1 Bft) S-SW 207 0 min 0,000 mm 0,0 UV-I 0 W/m 11,5 C 12,9 C 4,8 km/h (1 Bft) 97,73 %
21.08.2017 02:16 12,8 C 21,7 C 91 % 1022,2 hPa 0,0 l/m 3,0 km/h (1 Bft) S-SW 207 0 min 0,000 mm 0,0 UV-I 0 W/m 11,4 C 12,8 C 4,8 km/h (1 Bft) 98,00 %
21.08.2017 02:18 12,8 C 21,7 C 91 % 1022,2 hPa 0,0 l/m 2,1 km/h (1 Bft) S-SW 207 0 min 0,000 mm 0,0 UV-I 0 W/m 11,4 C 12,8 C 4,8 km/h (1 Bft) 94,74 %
21.08.2017 02:20 12,8 C 21,7 C 91 % 1022,2 hPa 0,0 l/m 3,3 km/h (1 Bft) SW 220 0 min 0,000 mm 0,0 UV-I 0 W/m 11,4 C 12,8 C 4,8 km/h (1 Bft) 96,00 %
21.08.2017 02:22 12,8 C 21,7 C 91 % 1022,3 hPa 0,0 l/m 2,9 km/h (1 Bft) SW 220 0 min 0,000 mm 0,0 UV-I 0 W/m 11,4 C 12,8 C 4,8 km/h (1 Bft) 98,11 %
21.08.2017 02:24 12,8 C 21,7 C 91 % 1022,2 hPa 0,0 l/m 2,6 km/h (1 Bft) SW 220 0 min 0,000 mm 0,0 UV-I 0 W/m 11,4 C 12,8 C 4,8 km/h (1 Bft) 97,87 %
21.08.2017 02:26 12,8 C 21,7 C 91 % 1022,2 hPa 0,0 l/m 2,2 km/h (1 Bft) SW 220 0 min 0,000 mm 0,0 UV-I 0 W/m 11,4 C 12,8 C 4,8 km/h (1 Bft) 97,73 %
21.08.2017 02:28 12,8 C 21,7 C 91 % 1022,2 hPa 0,0 l/m 3,4 km/h (1 Bft) SW 220 0 min 0,000 mm 0,0 UV-I 0 W/m 11,4 C 12,8 C 4,8 km/h (1 Bft) 97,56 %
21.08.2017 02:30 12,8 C 21,7 C 91 % 1022,2 hPa 0,0 l/m 2,7 km/h (1 Bft) SW 220 0 min 0,000 mm 0,0 UV-I 0 W/m 11,4 C 12,8 C 4,8 km/h (1 Bft) 96,00 %
21.08.2017 02:32 12,8 C 21,7 C 91 % 1022,1 hPa 0,0 l/m 1,4 km/h (1 Bft) SW 220 0 min 0,000 mm 0,0 UV-I 0 W/m 11,4 C 12,8 C 3,2 km/h (1 Bft) 97,37 %
21.08.2017 02:34 12,8 C 21,7 C 91 % 1022,2 hPa 0,0 l/m 0,5 km/h (0 Bft) SW 220 0 min 0,000 mm 0,0 UV-I 0 W/m 11,4 C 12,8 C 3,2 km/h (1 Bft) 98,11 %
21.08.2017 02:36 12,8 C 21,7 C 91 % 1022,2 hPa 0,0 l/m 0,9 km/h (0 Bft) SW 220 0 min 0,000 mm 0,0 UV-I 0 W/m 11,4 C 12,8 C 1,6 km/h (1 Bft) 97,44 %
21.08.2017 02:38 12,8 C 21,7 C 91 % 1022,2 hPa 0,0 l/m 0,3 km/h (0 Bft) SW 220 0 min 0,000 mm 0,0 UV-I 0 W/m 11,4 C 12,8 C 3,2 km/h (1 Bft) 97,56 %
21.08.2017 02:40 12,8 C 21,7 C 91 % 1022,2 hPa 0,0 l/m 2,0 km/h (1 Bft) SW 220 0 min 0,000 mm 0,0 UV-I 0 W/m 11,4 C 12,8 C 3,2 km/h (1 Bft) 96,61 %
21.08.2017 02:42 12,8 C 21,7 C 91 % 1022,2 hPa 0,0 l/m 3,6 km/h (1 Bft) W 264 0 min 0,000 mm 0,0 UV-I 0 W/m 11,4 C 12,8 C 4,8 km/h (1 Bft) 98,08 %
21.08.2017 02:44 12,8 C 21,7 C 91 % 1022,1 hPa 0,0 l/m 2,6 km/h (1 Bft) W-SW 250 0 min 0,000 mm 0,0 UV-I 0 W/m 11,4 C 12,8 C 9,7 km/h (2 Bft) 97,44 %
21.08.2017 02:46 12,8 C 21,7 C 91 % 1022,1 hPa 0,0 l/m 0,0 km/h (0 Bft) W-SW 250 0 min 0,000 mm 0,0 UV-I 0 W/m 11,4 C 12,8 C 0,0 km/h (0 Bft) 98,11 %
21.08.2017 02:48 12,8 C 21,7 C 91 % 1022,0 hPa 0,0 l/m 1,0 km/h (0 Bft) S-SW 196 0 min 0,000 mm 0,0 UV-I 0 W/m 11,4 C 12,8 C 4,8 km/h (1 Bft) 97,87 %
21.08.2017 02:50 12,8 C 21,7 C 91 % 1022,1 hPa 0,0 l/m 2,6 km/h (1 Bft) S-SW 196 0 min 0,000 mm 0,0 UV-I 0 W/m 11,4 C 12,8 C 4,8 km/h (1 Bft) 98,00 %
21.08.2017 02:52 12,8 C 21,7 C 92 % 1022,1 hPa 0,0 l/m 0,4 km/h (0 Bft) S-SW 196 0 min 0,000 mm 0,0 UV-I 0 W/m 11,5 C 12,8 C 1,6 km/h (1 Bft) 98,00 %
21.08.2017 02:54 12,8 C 21,7 C 91 % 1022,0 hPa 0,0 l/m 0,2 km/h (0 Bft) S-SW 196 0 min 0,000 mm 0,0 UV-I 0 W/m 11,4 C 12,8 C 1,6 km/h (1 Bft) 97,87 %
21.08.2017 02:56 12,8 C 21,7 C 91 % 1022,0 hPa 0,0 l/m 1,1 km/h (1 Bft) S-SW 196 0 min 0,000 mm 0,0 UV-I 0 W/m 11,4 C 12,8 C 3,2 km/h (1 Bft) 97,37 %
21.08.2017 02:58 12,8 C 21,7 C 92 % 1021,9 hPa 0,0 l/m 1,0 km/h (0 Bft) S-SW 196 0 min 0,000 mm 0,0 UV-I 0 W/m 11,5 C 12,8 C 3,2 km/h (1 Bft) 96,00 %
21.08.2017 03:00 12,8 C 21,7 C 92 % 1021,9 hPa 0,0 l/m 2,5 km/h (1 Bft) S-SW 196 0 min 0,000 mm 0,0 UV-I 0 W/m 11,5 C 12,8 C 4,8 km/h (1 Bft) 94,00 %
21.08.2017 03:02 12,8 C 21,7 C 92 % 1021,9 hPa 0,0 l/m 3,3 km/h (1 Bft) S-SW 196 0 min 0,000 mm 0,0 UV-I 0 W/m 11,5 C 12,8 C 6,4 km/h (2 Bft) 92,68 %
21.08.2017 03:04 12,8 C 21,7 C 91 % 1021,9 hPa 0,0 l/m 4,8 km/h (1 Bft) S-SW 196 0 min 0,000 mm 0,0 UV-I 0 W/m 11,4 C 12,8 C 6,4 km/h (2 Bft) 96,00 %
21.08.2017 03:06 12,8 C 21,7 C 91 % 1022,0 hPa 0,0 l/m 4,4 km/h (1 Bft) S-SW 196 0 min 0,000 mm 0,0 UV-I 0 W/m 11,4 C 12,8 C 6,4 km/h (2 Bft) 94,00 %
21.08.2017 03:08 12,8 C 21,7 C 91 % 1021,9 hPa 0,0 l/m 3,3 km/h (1 Bft) S-SW 196 0 min 0,000 mm 0,0 UV-I 0 W/m 11,4 C 12,8 C 6,4 km/h (2 Bft) 95,74 %
21.08.2017 03:10 12,8 C 21,7 C 91 % 1021,9 hPa 0,0 l/m 1,9 km/h (1 Bft) S-SW 196 0 min 0,000 mm 0,0 UV-I 0 W/m 11,4 C 12,8 C 4,8 km/h (1 Bft) 95,74 %
21.08.2017 03:12 12,8 C 21,7 C 91 % 1021,9 hPa 0,0 l/m 0,4 km/h (0 Bft) S-SW 196 0 min 0,000 mm 0,0 UV-I 0 W/m 11,4 C 12,8 C 1,6 km/h (1 Bft) 97,37 %
21.08.2017 03:14 12,8 C 21,7 C 91 % 1021,9 hPa 0,0 l/m 0,2 km/h (0 Bft) S-SW 196 0 min 0,000 mm 0,0 UV-I 0 W/m 11,4 C 12,8 C 1,6 km/h (1 Bft) 98,11 %
21.08.2017 03:16 12,8 C 21,7 C 91 % 1021,9 hPa 0,0 l/m 1,5 km/h (1 Bft) S-SW 196 0 min 0,000 mm 0,0 UV-I 0 W/m 11,4 C 12,8 C 4,8 km/h (1 Bft) 96,00 %
21.08.2017 03:18 12,8 C 21,7 C 91 % 1021,9 hPa 0,0 l/m 3,3 km/h (1 Bft) S-SW 196 0 min 0,000 mm 0,0 UV-I 0 W/m 11,4 C 12,8 C 6,4 km/h (2 Bft) 91,67 %
21.08.2017 03:20 12,8 C 21,7 C 91 % 1021,9 hPa 0,0 l/m 4,2 km/h (1 Bft) SW 232 0 min 0,000 mm 0,0 UV-I 0 W/m 11,4 C 12,8 C 6,4 km/h (2 Bft) 98,39 %
21.08.2017 03:22 12,8 C 21,7 C 91 % 1021,9 hPa 0,0 l/m 6,3 km/h (2 Bft) S-SW 213 0 min 0,000 mm 0,0 UV-I 0 W/m 11,4 C 12,8 C 9,7 km/h (2 Bft) 98,00 %
21.08.2017 03:24 12,9 C 21,7 C 91 % 1021,9 hPa 0,0 l/m 7,7 km/h (2 Bft) SW 236 0 min 0,000 mm 0,0 UV-I 0 W/m 11,5 C 12,1 C 11,3 km/h (2 Bft) 97,37 %
21.08.2017 03:26 12,9 C 21,7 C 91 % 1021,9 hPa 0,0 l/m 6,0 km/h (2 Bft) SW 231 0 min 0,000 mm 0,0 UV-I 0 W/m 11,5 C 12,9 C 12,9 km/h (3 Bft) 96,61 %
21.08.2017 03:28 12,9 C 21,7 C 91 % 1021,9 hPa 0,0 l/m 6,2 km/h (2 Bft) W-SW 246 0 min 0,000 mm 0,0 UV-I 0 W/m 11,5 C 12,9 C 9,7 km/h (2 Bft) 97,37 %
21.08.2017 03:30 12,9 C 21,7 C 91 % 1022,0 hPa 0,0 l/m 7,3 km/h (2 Bft) W-SW 238 0 min 0,000 mm 0,0 UV-I 0 W/m 11,5 C 12,3 C 11,3 km/h (2 Bft) 98,11 %
21.08.2017 03:32 12,9 C 21,7 C 91 % 1021,9 hPa 0,0 l/m 6,1 km/h (2 Bft) SW 223 0 min 0,000 mm 0,0 UV-I 0 W/m 11,5 C 12,9 C 9,7 km/h (2 Bft) 100,00 %
21.08.2017 03:34 12,9 C 21,7 C 91 % 1021,9 hPa 0,0 l/m 6,8 km/h (2 Bft) S-SW 202 0 min 0,000 mm 0,0 UV-I 0 W/m 11,5 C 12,7 C 12,9 km/h (3 Bft) 98,21 %
21.08.2017 03:36 12,9 C 21,7 C 91 % 1021,9 hPa 0,0 l/m 6,5 km/h (2 Bft) SW 223 0 min 0,000 mm 0,0 UV-I 0 W/m 11,5 C 12,9 C 11,3 km/h (2 Bft) 98,00 %
21.08.2017 03:38 12,9 C 21,7 C 91 % 1021,9 hPa 0,0 l/m 8,0 km/h (2 Bft) S-SW 205 0 min 0,000 mm 0,0 UV-I 0 W/m 11,5 C 11,9 C 12,9 km/h (3 Bft) 97,56 %
21.08.2017 03:40 12,9 C 21,7 C 91 % 1021,9 hPa 0,0 l/m 6,0 km/h (2 Bft) SW 227 0 min 0,000 mm 0,0 UV-I 0 W/m 11,5 C 12,9 C 9,7 km/h (2 Bft) 98,11 %
21.08.2017 03:42 13,0 C 21,7 C 91 % 1022,0 hPa 0,0 l/m 5,4 km/h (1 Bft) S-SW 213 0 min 0,000 mm 0,0 UV-I 0 W/m 11,6 C 13,0 C 9,7 km/h (2 Bft) 97,37 %
21.08.2017 03:44 13,0 C 21,7 C 91 % 1021,9 hPa 0,0 l/m 6,1 km/h (2 Bft) W-SW 245 0 min 0,000 mm 0,0 UV-I 0 W/m 11,6 C 13,0 C 9,7 km/h (2 Bft) 100,00 %
21.08.2017 03:46 13,0 C 21,7 C 91 % 1022,0 hPa 0,0 l/m 7,2 km/h (2 Bft) SW 236 0 min 0,000 mm 0,0 UV-I 0 W/m 11,6 C 12,5 C 11,3 km/h (2 Bft) 100,00 %
21.08.2017 03:48 13,0 C 21,7 C 91 % 1022,0 hPa 0,0 l/m 7,4 km/h (2 Bft) W-SW 238 0 min 0,000 mm 0,0 UV-I 0 W/m 11,6 C 12,4 C 9,7 km/h (2 Bft) 100,00 %
21.08.2017 03:50 13,0 C 21,7 C 91 % 1022,0 hPa 0,0 l/m 6,3 km/h (2 Bft) SW 229 0 min 0,000 mm 0,0 UV-I 0 W/m 11,6 C 13,0 C 11,3 km/h (2 Bft) 100,00 %
21.08.2017 03:52 13,0 C 21,7 C 91 % 1022,0 hPa 0,0 l/m 7,8 km/h (2 Bft) W-SW 253 0 min 0,000 mm 0,0 UV-I 0 W/m 11,6 C 12,1 C 11,3 km/h (2 Bft) 100,00 %
21.08.2017 03:54 13,1 C 21,7 C 91 % 1021,9 hPa 0,0 l/m 6,0 km/h (2 Bft) W-SW 240 0 min 0,000 mm 0,0 UV-I 0 W/m 11,7 C 13,1 C 8,0 km/h (2 Bft) 97,56 %
21.08.2017 03:56 13,1 C 21,7 C 91 % 1021,9 hPa 0,0 l/m 5,6 km/h (1 Bft) W-SW 242 0 min 0,000 mm 0,0 UV-I 0 W/m 11,7 C 13,1 C 8,0 km/h (2 Bft) 97,62 %
21.08.2017 03:58 13,1 C 21,7 C 90 % 1021,9 hPa 0,0 l/m 6,1 km/h (2 Bft) SW 215 0 min 0,000 mm 0,0 UV-I 0 W/m 11,5 C 13,1 C 11,3 km/h (2 Bft) 100,00 %
21.08.2017 04:00 13,1 C 21,7 C 90 % 1021,9 hPa 0,0 l/m 6,0 km/h (2 Bft) SW 221 0 min 0,000 mm 0,0 UV-I 0 W/m 11,5 C 13,1 C 8,0 km/h (2 Bft) 100,00 %
21.08.2017 04:03 13,1 C 21,7 C 90 % 1021,9 hPa 0,0 l/m 6,1 km/h (2 Bft) S-SW 209 0 min 0,000 mm 0,0 UV-I 0 W/m 11,5 C 13,1 C 9,7 km/h (2 Bft) 100,00 %
21.08.2017 04:04 13,1 C 21,7 C 90 % 1021,9 hPa 0,0 l/m 4,1 km/h (1 Bft) SW 227 0 min 0,000 mm 0,0 UV-I 0 W/m 11,5 C 13,1 C 4,8 km/h (1 Bft) 100,00 %
21.08.2017 04:06 13,1 C 21,7 C 90 % 1021,9 hPa 0,0 l/m 5,7 km/h (1 Bft) W-SW 246 0 min 0,000 mm 0,0 UV-I 0 W/m 11,5 C 13,1 C 9,7 km/h (2 Bft) 100,00 %
21.08.2017 04:08 13,1 C 21,7 C 90 % 1022,0 hPa 0,0 l/m 6,6 km/h (2 Bft) SW 232 0 min 0,000 mm 0,0 UV-I 0 W/m 11,5 C 13,0 C 9,7 km/h (2 Bft) 98,21 %
21.08.2017 04:10 13,2 C 21,7 C 90 % 1022,0 hPa 0,0 l/m 8,1 km/h (2 Bft) SW 236 0 min 0,000 mm 0,0 UV-I 0 W/m 11,6 C 12,2 C 12,9 km/h (3 Bft) 100,00 %
21.08.2017 04:12 13,2 C 21,7 C 90 % 1022,0 hPa 0,0 l/m 6,8 km/h (2 Bft) SW 219 0 min 0,000 mm 0,0 UV-I 0 W/m 11,6 C 13,0 C 9,7 km/h (2 Bft) 100,00 %
21.08.2017 04:14 13,2 C 21,7 C 89 % 1022,0 hPa 0,0 l/m 5,4 km/h (1 Bft) S-SW 200 0 min 0,000 mm 0,0 UV-I 0 W/m 11,4 C 13,2 C 9,7 km/h (2 Bft) 97,87 %
21.08.2017 04:16 13,2 C 21,1 C 89 % 1021,9 hPa 0,0 l/m 6,5 km/h (2 Bft) S-SW 211 0 min 0,000 mm 0,0 UV-I 0 W/m 11,4 C 13,2 C 11,3 km/h (2 Bft) 100,00 %
21.08.2017 04:18 13,2 C 21,1 C 89 % 1021,9 hPa 0,0 l/m 6,5 km/h (2 Bft) S-SW 213 0 min 0,000 mm 0,0 UV-I 0 W/m 11,4 C 13,2 C 11,3 km/h (2 Bft) 100,00 %
21.08.2017 04:20 13,2 C 21,1 C 89 % 1021,8 hPa 0,0 l/m 7,8 km/h (2 Bft) S-SW 205 0 min 0,000 mm 0,0 UV-I 0 W/m 11,4 C 12,3 C 12,9 km/h (3 Bft) 100,00 %
21.08.2017 04:22 13,2 C 21,1 C 88 % 1021,8 hPa 0,0 l/m 8,1 km/h (2 Bft) S-SW 210 0 min 0,000 mm 0,0 UV-I 0 W/m 11,3 C 12,2 C 12,9 km/h (3 Bft) 100,00 %
21.08.2017 04:24 13,2 C 21,1 C 88 % 1021,8 hPa 0,0 l/m 7,1 km/h (2 Bft) W-SW 252 0 min 0,000 mm 0,0 UV-I 0 W/m 11,3 C 12,8 C 11,3 km/h (2 Bft) 100,00 %
21.08.2017 04:26 13,2 C 21,1 C 88 % 1021,8 hPa 0,0 l/m 9,0 km/h (2 Bft) SW 231 0 min 0,000 mm 0,0 UV-I 0 W/m 11,3 C 11,6 C 14,5 km/h (3 Bft) 97,56 %
21.08.2017 04:28 13,2 C 21,1 C 88 % 1021,9 hPa 0,0 l/m 8,4 km/h (2 Bft) S-SW 205 0 min 0,000 mm 0,0 UV-I 0 W/m 11,3 C 12,0 C 11,3 km/h (2 Bft) 100,00 %
21.08.2017 04:30 13,3 C 21,1 C 88 % 1021,8 hPa 0,0 l/m 8,6 km/h (2 Bft) SW 232 0 min 0,000 mm 0,0 UV-I 0 W/m 11,4 C 12,0 C 14,5 km/h (3 Bft) 100,00 %
21.08.2017 04:32 13,3 C 21,1 C 88 % 1021,8 hPa 0,0 l/m 6,4 km/h (2 Bft) SW 220 0 min 0,000 mm 0,0 UV-I 0 W/m 11,4 C 13,3 C 9,7 km/h (2 Bft) 100,00 %
21.08.2017 04:34 13,3 C 21,1 C 88 % 1021,8 hPa 0,0 l/m 8,7 km/h (2 Bft) SW 225 0 min 0,000 mm 0,0 UV-I 0 W/m 11,4 C 11,9 C 14,5 km/h (3 Bft) 100,00 %
21.08.2017 04:36 13,3 C 21,1 C 88 % 1021,7 hPa 0,0 l/m 9,9 km/h (2 Bft) W-SW 239 0 min 0,000 mm 0,0 UV-I 0 W/m 11,4 C 11,3 C 16,1 km/h (3 Bft) 100,00 %
21.08.2017 04:38 13,3 C 21,1 C 88 % 1021,8 hPa 0,0 l/m 9,3 km/h (2 Bft) SW 236 0 min 0,000 mm 0,0 UV-I 0 W/m 11,4 C 11,6 C 14,5 km/h (3 Bft) 100,00 %
21.08.2017 04:40 13,3 C 21,1 C 88 % 1021,8 hPa 0,0 l/m 10,8 km/h (2 Bft) W-SW 245 0 min 0,000 mm 0,0 UV-I 0 W/m 11,4 C 10,9 C 16,1 km/h (3 Bft) 100,00 %
21.08.2017 04:42 13,3 C 21,1 C 88 % 1021,9 hPa 0,0 l/m 10,2 km/h (2 Bft) W-SW 248 0 min 0,000 mm 0,0 UV-I 0 W/m 11,4 C 11,1 C 16,1 km/h (3 Bft) 100,00 %
21.08.2017 04:44 13,3 C 21,1 C 88 % 1021,9 hPa 0,0 l/m 11,7 km/h (2 Bft) W-SW 254 0 min 0,000 mm 0,0 UV-I 0 W/m 11,4 C 10,4 C 17,7 km/h (3 Bft) 100,00 %
21.08.2017 04:46 13,3 C 21,1 C 88 % 1021,9 hPa 0,0 l/m 9,4 km/h (2 Bft) SW 232 0 min 0,000 mm 0,0 UV-I 0 W/m 11,4 C 11,5 C 17,7 km/h (3 Bft) 100,00 %
21.08.2017 04:48 13,3 C 21,1 C 88 % 1021,9 hPa 0,0 l/m 10,0 km/h (2 Bft) W-SW 255 0 min 0,000 mm 0,0 UV-I 0 W/m 11,4 C 11,2 C 16,1 km/h (3 Bft) 100,00 %
21.08.2017 04:50 13,3 C 21,1 C 88 % 1021,9 hPa 0,0 l/m 10,5 km/h (2 Bft) W 276 0 min 0,000 mm 0,0 UV-I 0 W/m 11,4 C 11,0 C 16,1 km/h (3 Bft) 100,00 %
21.08.2017 04:52 13,3 C 21,1 C 88 % 1021,9 hPa 0,0 l/m 8,4 km/h (2 Bft) S-SW 206 0 min 0,000 mm 0,0 UV-I 0 W/m 11,4 C 12,1 C 14,5 km/h (3 Bft) 100,00 %
21.08.2017 04:54 13,3 C 21,1 C 88 % 1021,8 hPa 0,0 l/m 9,3 km/h (2 Bft) W-SW 244 0 min 0,000 mm 0,0 UV-I 0 W/m 11,4 C 11,6 C 16,1 km/h (3 Bft) 100,00 %
21.08.2017 04:56 13,4 C 21,1 C 88 % 1021,8 hPa 0,0 l/m 7,5 km/h (2 Bft) SW 230 0 min 0,000 mm 0,0 UV-I 0 W/m 11,5 C 12,7 C 11,3 km/h (2 Bft) 100,00 %
21.08.2017 04:58 13,4 C 21,1 C 87 % 1021,8 hPa 0,0 l/m 9,2 km/h (2 Bft) W-SW 242 0 min 0,000 mm 0,0 UV-I 0 W/m 11,3 C 11,8 C 14,5 km/h (3 Bft) 97,56 %
21.08.2017 05:00 13,4 C 21,1 C 87 % 1021,8 hPa 0,0 l/m 8,6 km/h (2 Bft) W-SW 252 0 min 0,025 mm 0,0 UV-I 0 W/m 11,3 C 12,1 C 14,5 km/h (3 Bft) 97,37 %
21.08.2017 05:02 13,4 C 21,1 C 88 % 1021,9 hPa 0,0 l/m 11,2 km/h (2 Bft) W-SW 258 0 min 0,000 mm 0,0 UV-I 0 W/m 11,5 C 10,8 C 16,1 km/h (3 Bft) 96,43 %
21.08.2017 05:04 13,4 C 21,1 C 87 % 1021,9 hPa 0,0 l/m 8,9 km/h (2 Bft) W-NW 289 0 min 0,000 mm 0,0 UV-I 0 W/m 11,3 C 11,9 C 12,9 km/h (3 Bft) 98,31 %
21.08.2017 05:06 13,4 C 21,1 C 88 % 1021,9 hPa 0,0 l/m 7,8 km/h (2 Bft) SW 225 0 min 0,000 mm 0,0 UV-I 0 W/m 11,5 C 12,5 C 12,9 km/h (3 Bft) 97,56 %
21.08.2017 05:08 13,4 C 21,1 C 88 % 1021,9 hPa 0,0 l/m 6,8 km/h (2 Bft) W-SW 244 0 min 0,000 mm 0,0 UV-I 0 W/m 11,5 C 13,2 C 9,7 km/h (2 Bft) 96,23 %
21.08.2017 05:10 13,4 C 21,1 C 88 % 1022,0 hPa 0,0 l/m 8,6 km/h (2 Bft) W 265 0 min 0,000 mm 0,0 UV-I 0 W/m 11,5 C 12,1 C 11,3 km/h (2 Bft) 97,56 %
21.08.2017 05:12 13,4 C 21,1 C 88 % 1022,0 hPa 0,0 l/m 7,5 km/h (2 Bft) W-SW 251 0 min 0,000 mm 0,0 UV-I 0 W/m 11,5 C 12,7 C 12,9 km/h (3 Bft) 97,56 %
21.08.2017 05:14 13,4 C 21,1 C 88 % 1022,0 hPa 0,0 l/m 5,9 km/h (2 Bft) W 264 0 min 0,000 mm 0,0 UV-I 0 W/m 11,5 C 13,4 C 9,7 km/h (2 Bft) 97,92 %
21.08.2017 05:16 13,4 C 21,1 C 88 % 1022,0 hPa 0,0 l/m 10,6 km/h (2 Bft) W-SW 248 0 min 0,000 mm 0,0 UV-I 0 W/m 11,5 C 11,1 C 16,1 km/h (3 Bft) 97,87 %
21.08.2017 05:18 13,4 C 21,1 C 88 % 1022,0 hPa 0,0 l/m 10,3 km/h (2 Bft) SW 229 0 min 0,000 mm 0,0 UV-I 0 W/m 11,5 C 11,2 C 16,1 km/h (3 Bft) 98,00 %
21.08.2017 05:20 13,4 C 21,1 C 88 % 1021,9 hPa 0,0 l/m 7,0 km/h (2 Bft) W 262 0 min 0,000 mm 0,0 UV-I 0 W/m 11,5 C 13,0 C 11,3 km/h (2 Bft) 98,00 %
21.08.2017 05:22 13,4 C 21,1 C 88 % 1021,9 hPa 0,0 l/m 9,5 km/h (2 Bft) SW 223 0 min 0,000 mm 0,0 UV-I 0 W/m 11,5 C 11,6 C 14,5 km/h (3 Bft) 97,37 %
21.08.2017 05:24 13,4 C 21,1 C 88 % 1021,9 hPa 0,0 l/m 7,7 km/h (2 Bft) W 261 0 min 0,000 mm 0,0 UV-I 0 W/m 11,5 C 12,6 C 11,3 km/h (2 Bft) 98,11 %
21.08.2017 05:26 13,4 C 21,1 C 88 % 1022,0 hPa 0,0 l/m 8,0 km/h (2 Bft) W-SW 249 0 min 0,000 mm 0,0 UV-I 0 W/m 11,5 C 12,4 C 11,3 km/h (2 Bft) 94,00 %
21.08.2017 05:28 13,4 C 21,1 C 88 % 1021,9 hPa 0,0 l/m 7,8 km/h (2 Bft) W 266 0 min 0,000 mm 0,0 UV-I 0 W/m 11,5 C 12,5 C 12,9 km/h (3 Bft) 97,56 %
21.08.2017 05:30 13,4 C 21,1 C 88 % 1022,0 hPa 0,0 l/m 7,4 km/h (2 Bft) W-SW 250 0 min 0,000 mm 0,0 UV-I 0 W/m 11,5 C 12,8 C 12,9 km/h (3 Bft) 98,00 %
21.08.2017 05:32 13,4 C 21,1 C 88 % 1022,0 hPa 0,0 l/m 6,1 km/h (2 Bft) W-SW 247 0 min 0,000 mm 0,0 UV-I 0 W/m 11,5 C 13,4 C 11,3 km/h (2 Bft) 100,00 %
21.08.2017 05:34 13,4 C 21,1 C 88 % 1022,0 hPa 0,0 l/m 7,9 km/h (2 Bft) S-SW 211 0 min 0,000 mm 0,0 UV-I 0 W/m 11,5 C 12,5 C 12,9 km/h (3 Bft) 97,37 %
21.08.2017 05:36 13,4 C 21,1 C 88 % 1022,0 hPa 0,0 l/m 7,7 km/h (2 Bft) W-SW 237 0 min 0,000 mm 0,0 UV-I 0 W/m 11,5 C 12,6 C 11,3 km/h (2 Bft) 100,00 %
21.08.2017 05:38 13,4 C 21,1 C 88 % 1022,0 hPa 0,0 l/m 7,3 km/h (2 Bft) W 259 0 min 0,000 mm 0,0 UV-I 0 W/m 11,5 C 12,8 C 11,3 km/h (2 Bft) 100,00 %
21.08.2017 05:40 13,4 C 21,1 C 88 % 1022,0 hPa 0,0 l/m 7,9 km/h (2 Bft) W-SW 238 0 min 0,000 mm 0,0 UV-I 0 W/m 11,5 C 12,5 C 11,3 km/h (2 Bft) 98,11 %
21.08.2017 05:42 13,4 C 21,1 C 88 % 1022,0 hPa 0,0 l/m 7,6 km/h (2 Bft) W-SW 250 0 min 0,000 mm 0,0 UV-I 0 W/m 11,5 C 12,7 C 11,3 km/h (2 Bft) 100,00 %
21.08.2017 05:44 13,4 C 21,1 C 89 % 1022,0 hPa 0,0 l/m 8,8 km/h (2 Bft) W-SW 249 0 min 0,000 mm 0,0 UV-I 0 W/m 11,6 C 12,0 C 12,9 km/h (3 Bft) 100,00 %
21.08.2017 05:46 13,3 C 21,1 C 89 % 1022,0 hPa 0,0 l/m 9,7 km/h (2 Bft) W 265 0 min 0,000 mm 0,0 UV-I 0 W/m 11,5 C 11,4 C 14,5 km/h (3 Bft) 100,00 %
21.08.2017 05:48 13,3 C 21,1 C 89 % 1022,1 hPa 0,0 l/m 8,2 km/h (2 Bft) W-SW 257 0 min 0,000 mm 0,0 UV-I 0 W/m 11,5 C 12,2 C 12,9 km/h (3 Bft) 98,11 %
21.08.2017 05:50 13,3 C 21,1 C 89 % 1022,0 hPa 0,0 l/m 9,0 km/h (2 Bft) W 263 0 min 0,000 mm 0,0 UV-I 0 W/m 11,5 C 11,8 C 16,1 km/h (3 Bft) 95,12 %
21.08.2017 05:52 13,3 C 21,1 C 89 % 1022,0 hPa 0,0 l/m 8,5 km/h (2 Bft) W-SW 247 0 min 0,000 mm 0,0 UV-I 0 W/m 11,5 C 12,0 C 12,9 km/h (3 Bft) 98,00 %
21.08.2017 05:54 13,3 C 21,1 C 89 % 1022,0 hPa 0,0 l/m 7,1 km/h (2 Bft) S-SW 211 0 min 0,000 mm 0,0 UV-I 0 W/m 11,5 C 12,9 C 12,9 km/h (3 Bft) 95,45 %
21.08.2017 05:56 13,3 C 21,1 C 89 % 1022,0 hPa 0,0 l/m 6,9 km/h (2 Bft) W-SW 242 0 min 0,000 mm 0,0 UV-I 2 W/m 11,5 C 13,0 C 9,7 km/h (2 Bft) 97,44 %
21.08.2017 05:58 13,3 C 21,1 C 89 % 1021,9 hPa 0,0 l/m 6,4 km/h (2 Bft) W-SW 250 0 min 0,000 mm 0,0 UV-I 5 W/m 11,5 C 13,3 C 11,3 km/h (2 Bft) 98,11 %
21.08.2017 06:00 13,3 C 21,1 C 89 % 1021,9 hPa 0,0 l/m 7,8 km/h (2 Bft) SW 236 0 min 0,026 mm 0,0 UV-I 5 W/m 11,5 C 12,4 C 11,3 km/h (2 Bft) 96,36 %
21.08.2017 06:02 13,3 C 21,1 C 89 % 1021,8 hPa 0,0 l/m 7,0 km/h (2 Bft) W-SW 257 0 min 0,000 mm 0,0 UV-I 6 W/m 11,5 C 12,9 C 9,7 km/h (2 Bft) 97,22 %
21.08.2017 06:04 13,3 C 21,1 C 89 % 1021,9 hPa 0,0 l/m 6,7 km/h (2 Bft) SW 229 0 min 0,000 mm 0,0 UV-I 7 W/m 11,5 C 13,1 C 9,7 km/h (2 Bft) 97,73 %
21.08.2017 06:06 13,3 C 21,1 C 89 % 1021,9 hPa 0,0 l/m 6,6 km/h (2 Bft) SW 226 0 min 0,000 mm 0,0 UV-I 7 W/m 11,5 C 13,2 C 9,7 km/h (2 Bft) 98,31 %
21.08.2017 06:08 13,3 C 21,1 C 89 % 1021,9 hPa 0,0 l/m 6,9 km/h (2 Bft) SW 228 0 min 0,000 mm 0,0 UV-I 7 W/m 11,5 C 13,0 C 9,7 km/h (2 Bft) 97,37 %
21.08.2017 06:10 13,2 C 21,1 C 89 % 1021,9 hPa 0,0 l/m 6,2 km/h (2 Bft) SW 234 0 min 0,000 mm 0,0 UV-I 9 W/m 11,4 C 13,2 C 9,7 km/h (2 Bft) 96,43 %
21.08.2017 06:12 13,2 C 21,1 C 89 % 1022,0 hPa 0,0 l/m 5,9 km/h (2 Bft) SW 227 0 min 0,000 mm 0,0 UV-I 10 W/m 11,4 C 13,2 C 9,7 km/h (2 Bft) 97,87 %
21.08.2017 06:14 13,2 C 21,1 C 89 % 1022,0 hPa 0,0 l/m 6,8 km/h (2 Bft) W-SW 242 0 min 0,000 mm 0,0 UV-I 11 W/m 11,4 C 13,0 C 11,3 km/h (2 Bft) 97,56 %
21.08.2017 06:16 13,2 C 21,1 C 89 % 1022,0 hPa 0,0 l/m 8,4 km/h (2 Bft) SW 234 0 min 0,000 mm 0,0 UV-I 12 W/m 11,4 C 12,0 C 12,9 km/h (3 Bft) 98,11 %
21.08.2017 06:18 13,2 C 21,1 C 89 % 1022,0 hPa 0,0 l/m 6,7 km/h (2 Bft) W-SW 238 2 min 0,000 mm 0,0 UV-I 14 W/m 11,4 C 13,0 C 11,3 km/h (2 Bft) 97,56 %
21.08.2017 06:20 13,2 C 21,1 C 89 % 1022,0 hPa 0,0 l/m 6,8 km/h (2 Bft) W-SW 254 2 min 0,000 mm 0,0 UV-I 16 W/m 11,4 C 13,0 C 11,3 km/h (2 Bft) 97,56 %
21.08.2017 06:22 13,2 C 21,1 C 89 % 1022,0 hPa 0,0 l/m 6,2 km/h (2 Bft) SW 229 2 min 0,000 mm 0,0 UV-I 18 W/m 11,4 C 13,2 C 8,0 km/h (2 Bft) 98,21 %
21.08.2017 06:24 13,2 C 21,1 C 89 % 1022,0 hPa 0,0 l/m 6,9 km/h (2 Bft) W-SW 253 2 min 0,000 mm 0,0 UV-I 20 W/m 11,4 C 12,9 C 11,3 km/h (2 Bft) 98,00 %
21.08.2017 06:26 13,2 C 21,1 C 89 % 1022,0 hPa 0,0 l/m 5,2 km/h (1 Bft) W-SW 254 2 min 0,000 mm 0,0 UV-I 24 W/m 11,4 C 13,2 C 6,4 km/h (2 Bft) 97,87 %
21.08.2017 06:28 13,2 C 21,1 C 89 % 1022,0 hPa 0,0 l/m 7,2 km/h (2 Bft) W-SW 255 2 min 0,000 mm 0,0 UV-I 26 W/m 11,4 C 12,7 C 12,9 km/h (3 Bft) 95,74 %
21.08.2017 06:30 13,2 C 21,1 C 89 % 1022,0 hPa 0,0 l/m 6,5 km/h (2 Bft) W-SW 244 2 min 0,000 mm 0,0 UV-I 28 W/m 11,4 C 13,2 C 9,7 km/h (2 Bft) 97,37 %
21.08.2017 06:32 13,2 C 21,1 C 89 % 1022,0 hPa 0,0 l/m 7,1 km/h (2 Bft) W-SW 238 2 min 0,000 mm 0,0 UV-I 32 W/m 11,4 C 12,8 C 9,7 km/h (2 Bft) 98,00 %
21.08.2017 06:34 13,1 C 21,1 C 89 % 1022,0 hPa 0,0 l/m 8,8 km/h (2 Bft) W-SW 237 0 min 0,000 mm 0,0 UV-I 34 W/m 11,3 C 11,7 C 12,9 km/h (3 Bft) 94,00 %
21.08.2017 06:36 13,1 C 21,1 C 89 % 1022,1 hPa 0,0 l/m 8,2 km/h (2 Bft) SW 228 0 min 0,000 mm 0,0 UV-I 34 W/m 11,3 C 12,0 C 11,3 km/h (2 Bft) 100,00 %
21.08.2017 06:38 13,1 C 21,1 C 89 % 1022,0 hPa 0,0 l/m 7,5 km/h (2 Bft) W-SW 238 0 min 0,000 mm 0,0 UV-I 31 W/m 11,3 C 12,4 C 11,3 km/h (2 Bft) 96,92 %
21.08.2017 06:40 13,1 C 21,1 C 89 % 1022,0 hPa 0,0 l/m 8,1 km/h (2 Bft) SW 220 0 min 0,000 mm 0,0 UV-I 30 W/m 11,3 C 12,0 C 14,5 km/h (3 Bft) 97,37 %
21.08.2017 06:42 13,2 C 21,1 C 90 % 1022,0 hPa 0,0 l/m 6,3 km/h (2 Bft) W-SW 250 0 min 0,000 mm 0,0 UV-I 32 W/m 11,6 C 13,2 C 8,0 km/h (2 Bft) 96,23 %
21.08.2017 06:44 13,1 C 21,1 C 90 % 1022,0 hPa 0,0 l/m 6,6 km/h (2 Bft) W-SW 250 0 min 0,000 mm 0,0 UV-I 37 W/m 11,5 C 13,0 C 11,3 km/h (2 Bft) 100,00 %
21.08.2017 06:46 13,2 C 21,1 C 90 % 1022,0 hPa 0,0 l/m 6,9 km/h (2 Bft) W 267 0 min 0,000 mm 0,0 UV-I 47 W/m 11,6 C 12,9 C 11,3 km/h (2 Bft) 97,87 %
21.08.2017 06:48 13,2 C 21,1 C 90 % 1022,0 hPa 0,0 l/m 6,9 km/h (2 Bft) W-SW 249 0 min 0,000 mm 0,0 UV-I 53 W/m 11,6 C 12,9 C 12,9 km/h (3 Bft) 98,00 %
21.08.2017 06:50 13,2 C 21,1 C 90 % 1022,0 hPa 0,0 l/m 7,3 km/h (2 Bft) W 263 0 min 0,000 mm 0,0 UV-I 58 W/m 11,6 C 12,6 C 11,3 km/h (2 Bft) 97,56 %
21.08.2017 06:52 13,2 C 21,1 C 90 % 1022,0 hPa 0,0 l/m 7,2 km/h (2 Bft) W-SW 242 0 min 0,000 mm 0,0 UV-I 57 W/m 11,6 C 12,7 C 12,9 km/h (3 Bft) 100,00 %
21.08.2017 06:54 13,2 C 21,1 C 90 % 1022,0 hPa 0,0 l/m 7,2 km/h (2 Bft) SW 234 0 min 0,000 mm 0,0 UV-I 54 W/m 11,6 C 12,7 C 12,9 km/h (3 Bft) 100,00 %
21.08.2017 06:56 13,2 C 21,1 C 90 % 1022,0 hPa 0,0 l/m 5,9 km/h (2 Bft) SW 232 0 min 0,000 mm 0,0 UV-I 53 W/m 11,6 C 13,2 C 11,3 km/h (2 Bft) 97,87 %
21.08.2017 06:58 13,3 C 21,1 C 90 % 1022,1 hPa 0,0 l/m 6,0 km/h (2 Bft) W-SW 250 0 min 0,000 mm 0,0 UV-I 53 W/m 11,7 C 13,3 C 8,0 km/h (2 Bft) 97,87 %
21.08.2017 07:00 13,3 C 21,1 C 90 % 1022,1 hPa 0,0 l/m 8,5 km/h (2 Bft) W-SW 257 0 min 0,000 mm 0,0 UV-I 48 W/m 11,7 C 12,0 C 14,5 km/h (3 Bft) 97,87 %
21.08.2017 07:02 13,3 C 21,1 C 89 % 1022,2 hPa 0,0 l/m 9,6 km/h (2 Bft) W 260 0 min 0,025 mm 0,0 UV-I 46 W/m 11,5 C 11,4 C 12,9 km/h (3 Bft) 95,12 %
21.08.2017 07:04 13,4 C 21,1 C 89 % 1022,2 hPa 0,0 l/m 9,1 km/h (2 Bft) SW 234 0 min 0,000 mm 0,0 UV-I 46 W/m 11,6 C 11,8 C 12,9 km/h (3 Bft) 98,31 %
21.08.2017 07:06 13,4 C 21,1 C 89 % 1022,2 hPa 0,0 l/m 8,4 km/h (2 Bft) W-SW 257 0 min 0,000 mm 0,0 UV-I 42 W/m 11,6 C 12,2 C 12,9 km/h (3 Bft) 94,74 %
21.08.2017 07:08 13,4 C 21,1 C 89 % 1022,2 hPa 0,0 l/m 8,4 km/h (2 Bft) W-SW 238 0 min 0,000 mm 0,0 UV-I 40 W/m 11,6 C 12,2 C 12,9 km/h (3 Bft) 96,43 %
21.08.2017 07:10 13,4 C 21,1 C 89 % 1022,2 hPa 0,0 l/m 8,9 km/h (2 Bft) W 259 0 min 0,000 mm 0,0 UV-I 47 W/m 11,6 C 11,9 C 12,9 km/h (3 Bft) 97,56 %
21.08.2017 07:12 13,4 C 21,1 C 89 % 1022,2 hPa 0,0 l/m 8,2 km/h (2 Bft) W-SW 250 0 min 0,000 mm 0,0 UV-I 56 W/m 11,6 C 12,3 C 11,3 km/h (2 Bft) 93,62 %
21.08.2017 07:14 13,5 C 21,1 C 89 % 1022,3 hPa 0,0 l/m 7,6 km/h (2 Bft) W-SW 250 0 min 0,000 mm 0,0 UV-I 64 W/m 11,7 C 12,8 C 11,3 km/h (2 Bft) 98,00 %
21.08.2017 07:16 13,5 C 21,1 C 89 % 1022,3 hPa 0,0 l/m 8,6 km/h (2 Bft) W 263 0 min 0,000 mm 0,0 UV-I 67 W/m 11,7 C 12,2 C 12,9 km/h (3 Bft) 97,78 %
21.08.2017 07:18 13,5 C 21,1 C 89 % 1022,2 hPa 0,0 l/m 7,9 km/h (2 Bft) W 267 0 min 0,000 mm 0,0 UV-I 65 W/m 11,7 C 12,6 C 12,9 km/h (3 Bft) 98,08 %
21.08.2017 07:20 13,5 C 21,1 C 89 % 1022,2 hPa 0,0 l/m 8,3 km/h (2 Bft) W 264 0 min 0,000 mm 0,0 UV-I 66 W/m 11,7 C 12,4 C 11,3 km/h (2 Bft) 97,62 %
21.08.2017 07:22 13,5 C 21,1 C 89 % 1022,2 hPa 0,0 l/m 8,6 km/h (2 Bft) W-SW 242 0 min 0,000 mm 0,0 UV-I 71 W/m 11,7 C 12,2 C 12,9 km/h (3 Bft) 97,73 %
21.08.2017 07:24 13,5 C 21,1 C 89 % 1022,2 hPa 0,0 l/m 7,8 km/h (2 Bft) W-SW 256 0 min 0,000 mm 0,0 UV-I 79 W/m 11,7 C 12,6 C 12,9 km/h (3 Bft) 98,11 %
21.08.2017 07:26 13,5 C 21,1 C 89 % 1022,2 hPa 0,0 l/m 8,9 km/h (2 Bft) W 261 0 min 0,000 mm 0,0 UV-I 88 W/m 11,7 C 12,0 C 14,5 km/h (3 Bft) 95,74 %
21.08.2017 07:28 13,6 C 21,1 C 89 % 1022,3 hPa 0,0 l/m 7,9 km/h (2 Bft) W 269 0 min 0,000 mm 0,0 UV-I 94 W/m 11,8 C 12,7 C 11,3 km/h (2 Bft) 97,37 %
21.08.2017 07:30 13,6 C 21,1 C 89 % 1022,3 hPa 0,0 l/m 9,3 km/h (2 Bft) W 269 0 min 0,000 mm 0,0 UV-I 97 W/m 11,8 C 11,9 C 12,9 km/h (3 Bft) 96,23 %
21.08.2017 07:32 13,6 C 21,1 C 89 % 1022,3 hPa 0,0 l/m 7,0 km/h (2 Bft) W-SW 254 0 min 0,000 mm 0,0 UV-I 95 W/m 11,8 C 13,2 C 12,9 km/h (3 Bft) 100,00 %
21.08.2017 07:34 13,7 C 21,1 C 89 % 1022,3 hPa 0,0 l/m 4,9 km/h (1 Bft) W-SW 257 0 min 0,000 mm 0,0 UV-I 91 W/m 11,9 C 13,7 C 6,4 km/h (2 Bft) 100,00 %
21.08.2017 07:36 13,7 C 21,1 C 89 % 1022,4 hPa 0,0 l/m 5,1 km/h (1 Bft) W-SW 257 0 min 0,000 mm 0,0 UV-I 100 W/m 11,9 C 13,7 C 6,4 km/h (2 Bft) 98,00 %
21.08.2017 07:38 13,7 C 21,1 C 89 % 1022,3 hPa 0,0 l/m 7,1 km/h (2 Bft) W-SW 252 0 min 0,000 mm 0,0 UV-I 92 W/m 11,9 C 13,3 C 11,3 km/h (2 Bft) 100,00 %
21.08.2017 07:40 13,7 C 21,1 C 89 % 1022,4 hPa 0,0 l/m 6,4 km/h (2 Bft) W-SW 252 0 min 0,000 mm 0,0 UV-I 86 W/m 11,9 C 13,7 C 11,3 km/h (2 Bft) 100,00 %
21.08.2017 07:42 13,8 C 21,1 C 89 % 1022,4 hPa 0,0 l/m 6,2 km/h (2 Bft) W-SW 257 0 min 0,000 mm 0,0 UV-I 77 W/m 12,0 C 13,8 C 9,7 km/h (2 Bft) 100,00 %
21.08.2017 07:44 13,8 C 21,1 C 89 % 1022,4 hPa 0,0 l/m 6,7 km/h (2 Bft) SW 220 0 min 0,000 mm 0,0 UV-I 79 W/m 12,0 C 13,6 C 9,7 km/h (2 Bft) 100,00 %
21.08.2017 07:46 13,8 C 21,1 C 88 % 1022,4 hPa 0,0 l/m 6,8 km/h (2 Bft) W-SW 240 0 min 0,000 mm 0,0 UV-I 87 W/m 11,8 C 13,6 C 9,7 km/h (2 Bft) 100,00 %
21.08.2017 07:48 13,8 C 21,1 C 88 % 1022,4 hPa 0,0 l/m 5,8 km/h (2 Bft) W 261 0 min 0,000 mm 0,0 UV-I 95 W/m 11,8 C 13,8 C 11,3 km/h (2 Bft) 100,00 %
21.08.2017 07:50 13,8 C 21,1 C 88 % 1022,4 hPa 0,0 l/m 6,3 km/h (2 Bft) W-SW 249 0 min 0,000 mm 0,0 UV-I 106 W/m 11,8 C 13,8 C 9,7 km/h (2 Bft) 100,00 %
21.08.2017 07:52 13,8 C 21,1 C 88 % 1022,5 hPa 0,0 l/m 4,6 km/h (1 Bft) W 270 0 min 0,000 mm 0,0 UV-I 115 W/m 11,8 C 13,8 C 6,4 km/h (2 Bft) 95,45 %
21.08.2017 07:54 13,9 C 21,1 C 88 % 1022,5 hPa 0,0 l/m 4,5 km/h (1 Bft) W-SW 248 0 min 0,000 mm 0,0 UV-I 129 W/m 11,9 C 13,9 C 8,0 km/h (2 Bft) 100,00 %
21.08.2017 07:56 13,9 C 21,1 C 88 % 1022,6 hPa 0,0 l/m 6,0 km/h (2 Bft) W-SW 256 0 min 0,000 mm 0,0 UV-I 150 W/m 11,9 C 13,9 C 11,3 km/h (2 Bft) 100,00 %
21.08.2017 07:58 13,9 C 21,1 C 88 % 1022,5 hPa 0,0 l/m 4,9 km/h (1 Bft) W-SW 254 0 min 0,000 mm 0,0 UV-I 146 W/m 11,9 C 13,9 C 8,0 km/h (2 Bft) 100,00 %
21.08.2017 08:00 13,9 C 21,1 C 88 % 1022,6 hPa 0,0 l/m 5,0 km/h (1 Bft) W-SW 248 0 min 0,051 mm 0,0 UV-I 147 W/m 11,9 C 13,9 C 8,0 km/h (2 Bft) 97,87 %
21.08.2017 08:02 14,0 C 21,1 C 87 % 1022,6 hPa 0,0 l/m 4,9 km/h (1 Bft) W 263 0 min 0,000 mm 0,0 UV-I 143 W/m 11,9 C 14,0 C 9,7 km/h (2 Bft) 100,00 %
21.08.2017 08:04 14,1 C 21,1 C 87 % 1022,6 hPa 0,0 l/m 7,6 km/h (2 Bft) W 267 0 min 0,000 mm 0,0 UV-I 134 W/m 12,0 C 13,4 C 11,3 km/h (2 Bft) 100,00 %
21.08.2017 08:06 14,1 C 21,1 C 87 % 1022,6 hPa 0,0 l/m 6,9 km/h (2 Bft) W-SW 246 0 min 0,000 mm 0,0 UV-I 117 W/m 12,0 C 13,8 C 12,9 km/h (3 Bft) 100,00 %
21.08.2017 08:08 14,1 C 21,1 C 87 % 1022,6 hPa 0,0 l/m 8,2 km/h (2 Bft) W-SW 240 0 min 0,000 mm 0,0 UV-I 116 W/m 12,0 C 13,0 C 12,9 km/h (3 Bft) 100,00 %
21.08.2017 08:10 14,1 C 21,1 C 87 % 1022,6 hPa 0,0 l/m 6,3 km/h (2 Bft) W-SW 245 0 min 0,000 mm 0,0 UV-I 121 W/m 12,0 C 14,1 C 11,3 km/h (2 Bft) 100,00 %
21.08.2017 08:12 14,1 C 21,1 C 87 % 1022,6 hPa 0,0 l/m 9,9 km/h (2 Bft) W-SW 251 0 min 0,000 mm 0,0 UV-I 124 W/m 12,0 C 12,2 C 12,9 km/h (3 Bft) 100,00 %
21.08.2017 08:14 14,1 C 21,1 C 87 % 1022,7 hPa 0,0 l/m 9,6 km/h (2 Bft) W 273 0 min 0,000 mm 0,0 UV-I 119 W/m 12,0 C 12,3 C 12,9 km/h (3 Bft) 100,00 %
21.08.2017 08:16 14,1 C 21,1 C 87 % 1022,7 hPa 0,0 l/m 7,2 km/h (2 Bft) W-SW 257 0 min 0,000 mm 0,0 UV-I 113 W/m 12,0 C 13,6 C 11,3 km/h (2 Bft) 100,00 %
21.08.2017 08:18 14,1 C 21,1 C 87 % 1022,7 hPa 0,0 l/m 5,6 km/h (1 Bft) W 269 0 min 0,000 mm 0,0 UV-I 111 W/m 12,0 C 14,1 C 8,0 km/h (2 Bft) 100,00 %
21.08.2017 08:20 14,2 C 21,1 C 87 % 1022,7 hPa 0,0 l/m 5,3 km/h (1 Bft) W-SW 248 0 min 0,000 mm 0,0 UV-I 113 W/m 12,1 C 14,2 C 8,0 km/h (2 Bft) 100,00 %
21.08.2017 08:22 14,2 C 21,1 C 87 % 1022,7 hPa 0,0 l/m 3,3 km/h (1 Bft) W-SW 248 0 min 0,000 mm 0,0 UV-I 111 W/m 12,1 C 14,2 C 4,8 km/h (1 Bft) 100,00 %
21.08.2017 08:24 14,2 C 21,1 C 87 % 1022,8 hPa 0,0 l/m 4,1 km/h (1 Bft) W-SW 244 0 min 0,000 mm 0,0 UV-I 112 W/m 12,1 C 14,2 C 6,4 km/h (2 Bft) 100,00 %
21.08.2017 08:26 14,2 C 21,1 C 87 % 1022,8 hPa 0,0 l/m 3,5 km/h (1 Bft) W 276 0 min 0,000 mm 0,0 UV-I 121 W/m 12,1 C 14,2 C 6,4 km/h (2 Bft) 100,00 %
21.08.2017 08:28 14,2 C 21,1 C 87 % 1022,8 hPa 0,0 l/m 3,3 km/h (1 Bft) W 276 0 min 0,000 mm 0,0 UV-I 126 W/m 12,1 C 14,2 C 4,8 km/h (1 Bft) 100,00 %
21.08.2017 08:30 14,2 C 21,1 C 87 % 1022,7 hPa 0,0 l/m 3,9 km/h (1 Bft) W-SW 258 0 min 0,000 mm 0,0 UV-I 129 W/m 12,1 C 14,2 C 6,4 km/h (2 Bft) 100,00 %
21.08.2017 08:32 14,3 C 21,1 C 86 % 1022,8 hPa 0,0 l/m 3,3 km/h (1 Bft) W-NW 283 0 min 0,000 mm 0,0 UV-I 125 W/m 12,0 C 14,3 C 6,4 km/h (2 Bft) 100,00 %
21.08.2017 08:34 14,3 C 21,1 C 86 % 1022,8 hPa 0,0 l/m 5,5 km/h (1 Bft) W 259 0 min 0,000 mm 0,0 UV-I 113 W/m 12,0 C 14,3 C 11,3 km/h (2 Bft) 100,00 %
21.08.2017 08:36 14,2 C 21,1 C 85 % 1022,8 hPa 0,0 l/m 5,4 km/h (1 Bft) SW 229 0 min 0,000 mm 0,0 UV-I 113 W/m 11,7 C 14,2 C 9,7 km/h (2 Bft) 100,00 %
21.08.2017 08:38 14,2 C 21,1 C 85 % 1022,8 hPa 0,0 l/m 8,0 km/h (2 Bft) W-SW 254 0 min 0,000 mm 0,0 UV-I 126 W/m 11,7 C 13,3 C 14,5 km/h (3 Bft) 100,00 %
21.08.2017 08:40 14,2 C 21,1 C 84 % 1022,8 hPa 0,0 l/m 9,2 km/h (2 Bft) W-SW 246 0 min 0,000 mm 0,0 UV-I 134 W/m 11,5 C 12,6 C 16,1 km/h (3 Bft) 100,00 %
21.08.2017 08:42 14,2 C 21,1 C 84 % 1022,8 hPa 0,0 l/m 6,3 km/h (2 Bft) SW 234 0 min 0,000 mm 0,3 UV-I 149 W/m 11,5 C 14,2 C 12,9 km/h (3 Bft) 100,00 %
21.08.2017 08:44 14,2 C 21,1 C 85 % 1022,8 hPa 0,0 l/m 6,7 km/h (2 Bft) W 264 0 min 0,000 mm 0,5 UV-I 168 W/m 11,7 C 14,0 C 12,9 km/h (3 Bft) 100,00 %
21.08.2017 08:46 14,3 C 21,1 C 85 % 1022,8 hPa 0,0 l/m 5,7 km/h (1 Bft) W-SW 248 0 min 0,000 mm 0,6 UV-I 216 W/m 11,8 C 14,3 C 9,7 km/h (2 Bft) 100,00 %
21.08.2017 08:48 14,3 C 21,1 C 85 % 1022,8 hPa 0,0 l/m 10,0 km/h (2 Bft) W-SW 244 0 min 0,000 mm 0,6 UV-I 201 W/m 11,8 C 12,3 C 14,5 km/h (3 Bft) 100,00 %
21.08.2017 08:50 14,3 C 21,1 C 85 % 1022,8 hPa 0,0 l/m 5,6 km/h (1 Bft) W-NW 294 0 min 0,000 mm 0,6 UV-I 210 W/m 11,8 C 14,3 C 9,7 km/h (2 Bft) 98,00 %
21.08.2017 08:52 14,4 C 21,1 C 84 % 1022,8 hPa 0,0 l/m 7,2 km/h (2 Bft) W-SW 253 0 min 0,000 mm 0,6 UV-I 200 W/m 11,7 C 13,9 C 12,9 km/h (3 Bft) 100,00 %
21.08.2017 08:54 14,4 C 21,1 C 84 % 1022,8 hPa 0,0 l/m 6,7 km/h (2 Bft) W-NW 286 0 min 0,000 mm 0,6 UV-I 176 W/m 11,7 C 14,2 C 11,3 km/h (2 Bft) 98,00 %
21.08.2017 08:56 14,4 C 21,1 C 85 % 1022,8 hPa 0,0 l/m 5,8 km/h (2 Bft) W 266 0 min 0,000 mm 0,6 UV-I 181 W/m 11,9 C 14,4 C 11,3 km/h (2 Bft) 97,56 %
21.08.2017 08:58 14,5 C 21,1 C 85 % 1022,8 hPa 0,0 l/m 6,4 km/h (2 Bft) W-SW 251 0 min 0,000 mm 0,6 UV-I 185 W/m 12,0 C 14,5 C 11,3 km/h (2 Bft) 97,87 %
21.08.2017 09:00 14,6 C 21,1 C 84 % 1022,8 hPa 0,0 l/m 5,9 km/h (2 Bft) W-SW 242 0 min 0,000 mm 0,6 UV-I 194 W/m 11,9 C 14,6 C 11,3 km/h (2 Bft) 98,00 %
21.08.2017 09:02 14,6 C 21,1 C 83 % 1022,8 hPa 0,0 l/m 5,5 km/h (1 Bft) W 266 0 min 0,076 mm 0,7 UV-I 195 W/m 11,7 C 14,6 C 11,3 km/h (2 Bft) 96,23 %
21.08.2017 09:04 14,6 C 21,1 C 84 % 1022,8 hPa 0,0 l/m 5,4 km/h (1 Bft) SW 234 0 min 0,000 mm 0,7 UV-I 199 W/m 11,9 C 14,6 C 9,7 km/h (2 Bft) 97,37 %
21.08.2017 09:06 14,7 C 21,1 C 84 % 1022,8 hPa 0,0 l/m 5,5 km/h (1 Bft) W-SW 245 0 min 0,000 mm 0,7 UV-I 198 W/m 12,0 C 14,7 C 11,3 km/h (2 Bft) 96,00 %
21.08.2017 09:08 14,8 C 21,1 C 83 % 1022,8 hPa 0,0 l/m 5,2 km/h (1 Bft) W 277 0 min 0,000 mm 0,7 UV-I 210 W/m 11,9 C 14,8 C 8,0 km/h (2 Bft) 98,11 %
21.08.2017 09:10 14,8 C 21,1 C 83 % 1022,8 hPa 0,0 l/m 5,9 km/h (2 Bft) W 259 0 min 0,000 mm 0,8 UV-I 219 W/m 11,9 C 14,8 C 11,3 km/h (2 Bft) 97,44 %
21.08.2017 09:12 14,8 C 21,1 C 82 % 1022,8 hPa 0,0 l/m 7,0 km/h (2 Bft) W 271 0 min 0,000 mm 0,8 UV-I 228 W/m 11,8 C 14,5 C 11,3 km/h (2 Bft) 95,74 %
21.08.2017 09:14 14,8 C 21,1 C 82 % 1022,8 hPa 0,0 l/m 7,0 km/h (2 Bft) W-SW 257 0 min 0,000 mm 0,8 UV-I 235 W/m 11,8 C 14,5 C 11,3 km/h (2 Bft) 96,00 %
21.08.2017 09:16 14,8 C 21,1 C 82 % 1022,8 hPa 0,0 l/m 7,6 km/h (2 Bft) W-SW 252 0 min 0,000 mm 0,8 UV-I 222 W/m 11,8 C 14,1 C 12,9 km/h (3 Bft) 100,00 %
21.08.2017 09:18 14,8 C 21,1 C 82 % 1022,8 hPa 0,0 l/m 7,2 km/h (2 Bft) W-SW 248 0 min 0,000 mm 0,8 UV-I 220 W/m 11,8 C 14,3 C 12,9 km/h (3 Bft) 96,92 %
21.08.2017 09:20 14,8 C 21,1 C 82 % 1022,8 hPa 0,0 l/m 7,1 km/h (2 Bft) W-SW 256 0 min 0,000 mm 0,8 UV-I 246 W/m 11,8 C 14,4 C 14,5 km/h (3 Bft) 95,12 %
21.08.2017 09:22 14,9 C 21,1 C 82 % 1022,8 hPa 0,0 l/m 6,8 km/h (2 Bft) W-SW 238 0 min 0,000 mm 0,8 UV-I 234 W/m 11,9 C 14,7 C 11,3 km/h (2 Bft) 98,00 %
21.08.2017 09:24 14,9 C 21,1 C 82 % 1022,8 hPa 0,0 l/m 9,4 km/h (2 Bft) SW 232 0 min 0,000 mm 0,8 UV-I 223 W/m 11,9 C 13,3 C 12,9 km/h (3 Bft) 98,00 %
21.08.2017 09:26 14,9 C 21,1 C 81 % 1022,8 hPa 0,0 l/m 7,4 km/h (2 Bft) SW 235 0 min 0,000 mm 0,8 UV-I 220 W/m 11,7 C 14,3 C 14,5 km/h (3 Bft) 95,74 %
21.08.2017 09:28 14,9 C 21,1 C 81 % 1022,8 hPa 0,0 l/m 6,5 km/h (2 Bft) W-SW 257 0 min 0,000 mm 0,8 UV-I 213 W/m 11,7 C 14,9 C 11,3 km/h (2 Bft) 100,00 %
21.08.2017 09:30 15,0 C 21,1 C 82 % 1022,8 hPa 0,0 l/m 6,2 km/h (2 Bft) W 271 0 min 0,000 mm 0,8 UV-I 218 W/m 12,0 C 15,0 C 11,3 km/h (2 Bft) 98,11 %
21.08.2017 09:32 15,1 C 21,1 C 81 % 1022,8 hPa 0,0 l/m 9,4 km/h (2 Bft) W 264 0 min 0,000 mm 0,8 UV-I 221 W/m 11,9 C 13,5 C 12,9 km/h (3 Bft) 97,37 %
21.08.2017 09:34 15,1 C 21,1 C 81 % 1022,8 hPa 0,0 l/m 5,0 km/h (1 Bft) SW 225 0 min 0,000 mm 0,9 UV-I 232 W/m 11,9 C 15,1 C 9,7 km/h (2 Bft) 100,00 %
21.08.2017 09:36 15,1 C 21,1 C 80 % 1022,8 hPa 0,0 l/m 7,8 km/h (2 Bft) S-SW 204 0 min 0,000 mm 1,0 UV-I 243 W/m 11,7 C 14,3 C 12,9 km/h (3 Bft) 100,00 %
21.08.2017 09:38 15,1 C 21,1 C 80 % 1022,8 hPa 0,0 l/m 9,6 km/h (2 Bft) W-SW 248 0 min 0,000 mm 1,0 UV-I 272 W/m 11,7 C 13,4 C 12,9 km/h (3 Bft) 100,00 %
21.08.2017 09:40 15,1 C 21,1 C 79 % 1022,8 hPa 0,0 l/m 10,1 km/h (2 Bft) SW 229 0 min 0,000 mm 1,1 UV-I 269 W/m 11,5 C 13,2 C 16,1 km/h (3 Bft) 100,00 %
21.08.2017 09:42 15,2 C 21,1 C 79 % 1022,8 hPa 0,0 l/m 8,6 km/h (2 Bft) W-SW 241 0 min 0,000 mm 1,2 UV-I 278 W/m 11,6 C 14,0 C 11,3 km/h (2 Bft) 97,56 %
21.08.2017 09:44 15,2 C 21,1 C 79 % 1022,8 hPa 0,0 l/m 6,8 km/h (2 Bft) SW 227 0 min 0,000 mm 1,2 UV-I 302 W/m 11,6 C 15,0 C 11,3 km/h (2 Bft) 98,11 %
21.08.2017 09:46 15,3 C 21,1 C 79 % 1022,8 hPa 0,0 l/m 8,8 km/h (2 Bft) W-SW 250 0 min 0,000 mm 1,2 UV-I 299 W/m 11,7 C 14,0 C 14,5 km/h (3 Bft) 100,00 %
21.08.2017 09:48 15,3 C 21,1 C 79 % 1022,8 hPa 0,0 l/m 11,5 km/h (2 Bft) W-SW 250 0 min 0,000 mm 1,3 UV-I 307 W/m 11,7 C 12,8 C 19,3 km/h (3 Bft) 96,23 %
21.08.2017 09:50 15,3 C 21,1 C 78 % 1022,8 hPa 0,0 l/m 10,7 km/h (2 Bft) W 260 0 min 0,000 mm 1,3 UV-I 303 W/m 11,5 C 13,1 C 16,1 km/h (3 Bft) 97,62 %
21.08.2017 09:52 15,4 C 21,1 C 78 % 1022,8 hPa 0,0 l/m 8,5 km/h (2 Bft) W-SW 238 2 min 0,000 mm 1,6 UV-I 394 W/m 11,6 C 14,3 C 14,5 km/h (3 Bft) 97,87 %
21.08.2017 09:54 15,6 C 21,1 C 78 % 1022,8 hPa 0,0 l/m 8,1 km/h (2 Bft) W-SW 239 2 min 0,000 mm 1,5 UV-I 415 W/m 11,8 C 14,7 C 14,5 km/h (3 Bft) 100,00 %
21.08.2017 09:56 15,7 C 21,1 C 76 % 1022,8 hPa 0,0 l/m 12,3 km/h (3 Bft) W-SW 242 2 min 0,000 mm 1,6 UV-I 415 W/m 11,5 C 13,0 C 16,1 km/h (3 Bft) 97,18 %
21.08.2017 09:58 15,8 C 21,1 C 76 % 1022,8 hPa 0,0 l/m 6,5 km/h (2 Bft) SW 236 2 min 0,000 mm 1,7 UV-I 417 W/m 11,6 C 15,8 C 12,9 km/h (3 Bft) 97,56 %
21.08.2017 10:00 15,9 C 21,1 C 76 % 1022,8 hPa 0,0 l/m 9,5 km/h (2 Bft) W-SW 253 2 min 0,153 mm 1,6 UV-I 581 W/m 11,7 C 14,3 C 14,5 km/h (3 Bft) 98,11 %
21.08.2017 10:02 15,9 C 21,1 C 75 % 1022,8 hPa 0,0 l/m 11,6 km/h (2 Bft) W 259 2 min 0,000 mm 1,7 UV-I 452 W/m 11,5 C 13,5 C 19,3 km/h (3 Bft) 93,18 %
21.08.2017 10:04 15,9 C 21,1 C 74 % 1022,8 hPa 0,0 l/m 10,0 km/h (2 Bft) SW 234 2 min 0,000 mm 1,6 UV-I 454 W/m 11,3 C 14,1 C 16,1 km/h (3 Bft) 96,00 %
21.08.2017 10:06 15,9 C 21,1 C 74 % 1022,8 hPa 0,0 l/m 8,5 km/h (2 Bft) W-SW 242 2 min 0,000 mm 1,6 UV-I 373 W/m 11,3 C 14,8 C 14,5 km/h (3 Bft) 97,37 %
21.08.2017 10:08 16,1 C 21,1 C 74 % 1022,8 hPa 0,0 l/m 9,1 km/h (2 Bft) W-NW 296 2 min 0,000 mm 1,8 UV-I 620 W/m 11,5 C 14,7 C 14,5 km/h (3 Bft) 97,73 %
21.08.2017 10:10 16,1 C 21,1 C 73 % 1022,8 hPa 0,0 l/m 5,0 km/h (1 Bft) SW 235 2 min 0,000 mm 1,6 UV-I 364 W/m 11,3 C 16,1 C 9,7 km/h (2 Bft) 96,00 %
21.08.2017 10:12 16,2 C 21,1 C 73 % 1022,7 hPa 0,0 l/m 5,6 km/h (1 Bft) W-SW 243 2 min 0,000 mm 1,6 UV-I 368 W/m 11,4 C 16,2 C 11,3 km/h (2 Bft) 95,74 %
21.08.2017 10:14 16,3 C 21,1 C 74 % 1022,8 hPa 0,0 l/m 4,6 km/h (1 Bft) SW 232 2 min 0,000 mm 1,9 UV-I 378 W/m 11,7 C 16,3 C 9,7 km/h (2 Bft) 98,11 %
21.08.2017 10:16 16,4 C 21,1 C 74 % 1022,7 hPa 0,0 l/m 6,1 km/h (2 Bft) NW 310 2 min 0,000 mm 2,0 UV-I 397 W/m 11,8 C 16,4 C 9,7 km/h (2 Bft) 97,56 %
21.08.2017 10:18 16,6 C 21,1 C 74 % 1022,8 hPa 0,0 l/m 5,7 km/h (1 Bft) W 263 2 min 0,000 mm 2,1 UV-I 500 W/m 11,9 C 16,6 C 12,9 km/h (3 Bft) 97,87 %
21.08.2017 10:20 16,5 C 21,1 C 72 % 1022,8 hPa 0,0 l/m 9,2 km/h (2 Bft) W-SW 240 2 min 0,000 mm 1,8 UV-I 490 W/m 11,4 C 15,1 C 17,7 km/h (3 Bft) 98,21 %
21.08.2017 10:22 16,4 C 21,1 C 72 % 1022,8 hPa 0,0 l/m 11,0 km/h (2 Bft) W-SW 254 2 min 0,000 mm 2,0 UV-I 526 W/m 11,3 C 14,3 C 17,7 km/h (3 Bft) 94,74 %
21.08.2017 10:24 16,5 C 21,1 C 74 % 1022,8 hPa 0,0 l/m 9,4 km/h (2 Bft) W-SW 247 2 min 0,000 mm 2,3 UV-I 712 W/m 11,8 C 15,0 C 16,1 km/h (3 Bft) 95,74 %
21.08.2017 10:26 16,8 C 21,1 C 73 % 1022,7 hPa 0,0 l/m 6,1 km/h (2 Bft) W-SW 257 2 min 0,000 mm 2,3 UV-I 715 W/m 11,9 C 16,8 C 9,7 km/h (2 Bft) 98,11 %
21.08.2017 10:28 16,9 C 21,1 C 72 % 1022,8 hPa 0,0 l/m 7,0 km/h (2 Bft) W 274 2 min 0,000 mm 2,2 UV-I 711 W/m 11,8 C 16,6 C 11,3 km/h (2 Bft) 97,62 %
21.08.2017 10:30 17,0 C 21,1 C 71 % 1022,8 hPa 0,0 l/m 11,2 km/h (2 Bft) S-SW 212 2 min 0,000 mm 2,1 UV-I 710 W/m 11,7 C 14,9 C 16,1 km/h (3 Bft) 96,36 %
21.08.2017 10:32 16,8 C 21,1 C 70 % 1022,8 hPa 0,0 l/m 11,2 km/h (2 Bft) W 272 2 min 0,000 mm 2,1 UV-I 408 W/m 11,3 C 14,6 C 20,9 km/h (4 Bft) 92,31 %
21.08.2017 10:34 16,8 C 21,1 C 72 % 1022,8 hPa 0,0 l/m 10,6 km/h (2 Bft) W 273 2 min 0,000 mm 2,3 UV-I 404 W/m 11,7 C 14,9 C 14,5 km/h (3 Bft) 97,87 %
21.08.2017 10:36 16,9 C 21,1 C 70 % 1022,8 hPa 0,0 l/m 8,9 km/h (2 Bft) W-SW 252 2 min 0,000 mm 2,5 UV-I 677 W/m 11,4 C 15,7 C 17,7 km/h (3 Bft) 98,00 %
21.08.2017 10:38 17,1 C 21,1 C 71 % 1022,8 hPa 0,0 l/m 13,3 km/h (3 Bft) W-NW 293 2 min 0,000 mm 2,5 UV-I 678 W/m 11,8 C 14,3 C 20,9 km/h (4 Bft) 97,56 %
21.08.2017 10:40 17,1 C 21,1 C 70 % 1022,8 hPa 0,0 l/m 14,8 km/h (3 Bft) SW 236 2 min 0,000 mm 2,5 UV-I 677 W/m 11,6 C 13,8 C 22,5 km/h (4 Bft) 96,00 %
21.08.2017 10:42 17,1 C 21,1 C 67 % 1022,7 hPa 0,0 l/m 7,3 km/h (2 Bft) W-SW 254 2 min 0,000 mm 2,4 UV-I 641 W/m 10,9 C 16,6 C 12,9 km/h (3 Bft) 96,23 %
21.08.2017 10:44 17,1 C 21,1 C 70 % 1022,7 hPa 0,0 l/m 5,4 km/h (1 Bft) W-NW 295 2 min 0,000 mm 2,6 UV-I 686 W/m 11,6 C 17,1 C 11,3 km/h (2 Bft) 97,37 %
21.08.2017 10:46 17,2 C 21,1 C 70 % 1022,7 hPa 0,0 l/m 8,4 km/h (2 Bft) SW 227 2 min 0,000 mm 2,2 UV-I 415 W/m 11,7 C 16,2 C 14,5 km/h (3 Bft) 98,21 %
21.08.2017 10:48 17,2 C 21,1 C 69 % 1022,8 hPa 0,0 l/m 10,5 km/h (2 Bft) W-SW 243 2 min 0,000 mm 2,4 UV-I 389 W/m 11,5 C 15,4 C 17,7 km/h (3 Bft) 97,73 %
21.08.2017 10:50 17,2 C 21,1 C 70 % 1022,7 hPa 0,0 l/m 11,4 km/h (2 Bft) SW 226 0 min 0,000 mm 2,1 UV-I 361 W/m 11,7 C 15,0 C 20,9 km/h (4 Bft) 93,62 %
21.08.2017 10:52 17,1 C 21,1 C 70 % 1022,7 hPa 0,0 l/m 12,4 km/h (3 Bft) W 260 0 min 0,000 mm 2,0 UV-I 327 W/m 11,6 C 14,6 C 16,1 km/h (3 Bft) 94,29 %
21.08.2017 10:54 16,9 C 21,1 C 70 % 1022,7 hPa 0,0 l/m 13,2 km/h (3 Bft) W-SW 257 0 min 0,000 mm 2,1 UV-I 322 W/m 11,4 C 14,1 C 19,3 km/h (3 Bft) 95,16 %
21.08.2017 10:56 16,8 C 21,1 C 70 % 1022,8 hPa 0,0 l/m 9,7 km/h (2 Bft) W-SW 242 2 min 0,000 mm 2,3 UV-I 404 W/m 11,3 C 15,2 C 16,1 km/h (3 Bft) 97,56 %
21.08.2017 10:58 16,8 C 21,1 C 70 % 1022,8 hPa 0,0 l/m 7,8 km/h (2 Bft) W-SW 244 2 min 0,000 mm 2,7 UV-I 589 W/m 11,3 C 16,1 C 14,5 km/h (3 Bft) 95,74 %
21.08.2017 11:00 16,9 C 21,1 C 70 % 1022,7 hPa 0,0 l/m 6,3 km/h (2 Bft) NW 304 2 min 0,304 mm 2,8 UV-I 677 W/m 11,4 C 16,9 C 9,7 km/h (2 Bft) 98,00 %
21.08.2017 11:02 17,1 C 21,1 C 66 % 1022,7 hPa 0,0 l/m 10,4 km/h (2 Bft) SW 224 2 min 0,000 mm 2,5 UV-I 681 W/m 10,7 C 15,3 C 17,7 km/h (3 Bft) 95,12 %
21.08.2017 11:04 17,2 C 21,1 C 66 % 1022,7 hPa 0,0 l/m 12,4 km/h (3 Bft) W-NW 284 2 min 0,000 mm 2,5 UV-I 676 W/m 10,8 C 14,7 C 17,7 km/h (3 Bft) 98,00 %
21.08.2017 11:06 17,2 C 21,1 C 64 % 1022,7 hPa 0,0 l/m 8,6 km/h (2 Bft) W-NW 284 2 min 0,000 mm 2,8 UV-I 661 W/m 10,3 C 16,1 C 14,5 km/h (3 Bft) 95,83 %
21.08.2017 11:08 17,2 C 21,1 C 65 % 1022,7 hPa 0,0 l/m 5,3 km/h (1 Bft) SW 225 2 min 0,000 mm 2,7 UV-I 695 W/m 10,6 C 17,2 C 12,9 km/h (3 Bft) 95,71 %
21.08.2017 11:10 17,2 C 21,1 C 65 % 1022,7 hPa 0,0 l/m 10,8 km/h (2 Bft) W 280 2 min 0,000 mm 2,9 UV-I 694 W/m 10,6 C 15,2 C 16,1 km/h (3 Bft) 100,00 %
21.08.2017 11:12 17,3 C 21,1 C 67 % 1022,7 hPa 0,0 l/m 10,5 km/h (2 Bft) S-SO 155 2 min 0,000 mm 3,0 UV-I 704 W/m 11,1 C 15,5 C 16,1 km/h (3 Bft) 97,44 %
21.08.2017 11:14 17,4 C 21,1 C 64 % 1022,7 hPa 0,0 l/m 11,7 km/h (2 Bft) W-SW 240 2 min 0,000 mm 3,0 UV-I 708 W/m 10,5 C 15,1 C 16,1 km/h (3 Bft) 96,23 %
21.08.2017 11:16 17,6 C 21,1 C 67 % 1022,7 hPa 0,0 l/m 8,9 km/h (2 Bft) W 259 2 min 0,000 mm 3,1 UV-I 712 W/m 11,4 C 16,4 C 12,9 km/h (3 Bft) 97,56 %
21.08.2017 11:18 17,7 C 21,1 C 67 % 1022,7 hPa 0,0 l/m 7,9 km/h (2 Bft) SW 235 2 min 0,000 mm 3,0 UV-I 729 W/m 11,5 C 17,0 C 16,1 km/h (3 Bft) 98,11 %
21.08.2017 11:20 17,7 C 21,1 C 62 % 1022,7 hPa 0,0 l/m 10,6 km/h (2 Bft) W-NW 286 2 min 0,000 mm 3,0 UV-I 731 W/m 10,3 C 15,9 C 14,5 km/h (3 Bft) 98,00 %
21.08.2017 11:22 17,5 C 21,1 C 62 % 1022,6 hPa 0,0 l/m 9,8 km/h (2 Bft) W-NW 284 2 min 0,000 mm 3,1 UV-I 719 W/m 10,1 C 16,0 C 16,1 km/h (3 Bft) 97,87 %
21.08.2017 11:24 17,5 C 21,1 C 63 % 1022,7 hPa 0,0 l/m 7,0 km/h (2 Bft) W 260 2 min 0,000 mm 3,2 UV-I 736 W/m 10,4 C 17,2 C 14,5 km/h (3 Bft) 97,87 %
21.08.2017 11:26 17,6 C 21,1 C 63 % 1022,6 hPa 0,0 l/m 7,9 km/h (2 Bft) W 263 2 min 0,000 mm 3,2 UV-I 764 W/m 10,5 C 16,9 C 12,9 km/h (3 Bft) 97,44 %
21.08.2017 11:28 17,7 C 21,1 C 65 % 1022,6 hPa 0,0 l/m 7,7 km/h (2 Bft) W-SW 254 2 min 0,000 mm 3,1 UV-I 762 W/m 11,0 C 17,1 C 14,5 km/h (3 Bft) 100,00 %
21.08.2017 11:30 17,8 C 21,1 C 62 % 1022,6 hPa 0,0 l/m 8,4 km/h (2 Bft) W-SW 237 2 min 0,000 mm 2,3 UV-I 747 W/m 10,4 C 16,9 C 12,9 km/h (3 Bft) 95,45 %
21.08.2017 11:32 17,8 C 21,1 C 61 % 1022,6 hPa 0,0 l/m 8,7 km/h (2 Bft) W 267 2 min 0,000 mm 2,2 UV-I 507 W/m 10,2 C 16,7 C 16,1 km/h (3 Bft) 100,00 %
21.08.2017 11:34 17,6 C 21,1 C 60 % 1022,6 hPa 0,0 l/m 8,4 km/h (2 Bft) W-SW 250 0 min 0,000 mm 2,4 UV-I 302 W/m 9,7 C 16,7 C 12,9 km/h (3 Bft) 100,00 %
21.08.2017 11:36 17,6 C 21,1 C 62 % 1022,5 hPa 0,0 l/m 5,0 km/h (1 Bft) W 273 2 min 0,000 mm 3,1 UV-I 481 W/m 10,2 C 17,6 C 11,3 km/h (2 Bft) 100,00 %
21.08.2017 11:38 17,7 C 21,1 C 63 % 1022,5 hPa 0,0 l/m 6,0 km/h (2 Bft) W-NW 292 2 min 0,000 mm 3,5 UV-I 759 W/m 10,6 C 17,7 C 14,5 km/h (3 Bft) 100,00 %
21.08.2017 11:40 17,7 C 21,1 C 61 % 1022,5 hPa 0,0 l/m 10,4 km/h (2 Bft) NW 323 2 min 0,000 mm 3,4 UV-I 794 W/m 10,1 C 15,9 C 20,9 km/h (4 Bft) 100,00 %
21.08.2017 11:42 17,8 C 21,1 C 62 % 1022,5 hPa 0,0 l/m 4,7 km/h (1 Bft) SW 234 2 min 0,000 mm 3,1 UV-I 809 W/m 10,4 C 17,8 C 8,0 km/h (2 Bft) 100,00 %
21.08.2017 11:44 17,9 C 21,1 C 62 % 1022,5 hPa 0,0 l/m 7,7 km/h (2 Bft) W-SW 246 2 min 0,000 mm 3,3 UV-I 809 W/m 10,5 C 17,3 C 12,9 km/h (3 Bft) 100,00 %
21.08.2017 11:46 18,1 C 21,1 C 62 % 1022,5 hPa 0,0 l/m 7,1 km/h (2 Bft) W 273 2 min 0,000 mm 3,6 UV-I 822 W/m 10,7 C 17,8 C 12,9 km/h (3 Bft) 98,21 %
21.08.2017 11:48 18,2 C 21,1 C 62 % 1022,5 hPa 0,0 l/m 7,6 km/h (2 Bft) SW 220 2 min 0,000 mm 3,4 UV-I 828 W/m 10,8 C 17,6 C 14,5 km/h (3 Bft) 100,00 %
21.08.2017 11:50 18,2 C 21,1 C 61 % 1022,5 hPa 0,0 l/m 10,3 km/h (2 Bft) W-SW 254 2 min 0,000 mm 3,1 UV-I 575 W/m 10,6 C 16,5 C 17,7 km/h (3 Bft) 97,92 %
21.08.2017 11:52 18,1 C 21,1 C 60 % 1022,5 hPa 0,0 l/m 12,0 km/h (2 Bft) W-SW 238 2 min 0,000 mm 2,7 UV-I 637 W/m 10,2 C 15,8 C 17,7 km/h (3 Bft) 100,00 %
21.08.2017 11:54 17,9 C 21,1 C 60 % 1022,5 hPa 0,0 l/m 4,3 km/h (1 Bft) W-NW 285 0 min 0,000 mm 2,5 UV-I 314 W/m 10,0 C 17,9 C 12,9 km/h (3 Bft) 100,00 %
21.08.2017 11:56 17,8 C 21,1 C 62 % 1022,5 hPa 0,0 l/m 7,1 km/h (2 Bft) W 266 0 min 0,000 mm 3,6 UV-I 409 W/m 10,4 C 17,5 C 11,3 km/h (2 Bft) 100,00 %
21.08.2017 11:58 18,0 C 21,1 C 61 % 1022,5 hPa 0,0 l/m 5,0 km/h (1 Bft) W-NW 292 2 min 0,000 mm 3,8 UV-I 787 W/m 10,4 C 18,0 C 11,3 km/h (2 Bft) 100,00 %
21.08.2017 12:00 18,1 C 21,1 C 60 % 1022,5 hPa 0,0 l/m 6,1 km/h (2 Bft) N-NW 340 2 min 0,381 mm 3,8 UV-I 795 W/m 10,2 C 18,1 C 12,9 km/h (3 Bft) 100,00 %
21.08.2017 12:02 18,1 C 21,1 C 59 % 1022,4 hPa 0,0 l/m 3,4 km/h (1 Bft) N 9 2 min 0,000 mm 3,7 UV-I 807 W/m 10,0 C 18,1 C 6,4 km/h (2 Bft) 100,00 %
21.08.2017 12:04 18,2 C 21,1 C 59 % 1022,4 hPa 0,0 l/m 3,6 km/h (1 Bft) W-NW 303 2 min 0,000 mm 2,9 UV-I 810 W/m 10,1 C 18,2 C 9,7 km/h (2 Bft) 100,00 %
21.08.2017 12:06 18,2 C 21,1 C 62 % 1022,4 hPa 0,0 l/m 3,7 km/h (1 Bft) S-SW 210 0 min 0,000 mm 2,4 UV-I 365 W/m 10,8 C 18,2 C 8,0 km/h (2 Bft) 98,11 %
21.08.2017 12:08 18,1 C 21,1 C 61 % 1022,4 hPa 0,0 l/m 7,9 km/h (2 Bft) SW 234 0 min 0,000 mm 2,4 UV-I 320 W/m 10,5 C 17,4 C 17,7 km/h (3 Bft) 100,00 %
21.08.2017 12:10 17,9 C 21,1 C 60 % 1022,4 hPa 0,0 l/m 9,6 km/h (2 Bft) W-NW 296 0 min 0,000 mm 2,6 UV-I 347 W/m 10,0 C 16,5 C 14,5 km/h (3 Bft) 100,00 %
21.08.2017 12:12 17,8 C 21,1 C 60 % 1022,3 hPa 0,0 l/m 4,3 km/h (1 Bft) N 5 2 min 0,000 mm 3,4 UV-I 534 W/m 9,9 C 17,8 C 9,7 km/h (2 Bft) 100,00 %
21.08.2017 12:14 18,1 C 21,1 C 62 % 1022,3 hPa 0,0 l/m 4,9 km/h (1 Bft) W-SW 237 2 min 0,000 mm 3,9 UV-I 792 W/m 10,7 C 18,1 C 8,0 km/h (2 Bft) 100,00 %
21.08.2017 12:16 18,4 C 21,1 C 61 % 1022,3 hPa 0,0 l/m 8,6 km/h (2 Bft) W-SW 253 2 min 0,000 mm 3,9 UV-I 795 W/m 10,7 C 17,4 C 16,1 km/h (3 Bft) 100,00 %
21.08.2017 12:18 18,4 C 21,1 C 58 % 1022,3 hPa 0,0 l/m 9,2 km/h (2 Bft) W-SW 258 2 min 0,000 mm 4,0 UV-I 811 W/m 10,0 C 17,2 C 12,9 km/h (3 Bft) 100,00 %
21.08.2017 12:20 18,6 C 21,7 C 59 % 1022,3 hPa 0,0 l/m 10,4 km/h (2 Bft) SW 228 2 min 0,000 mm 4,0 UV-I 830 W/m 10,4 C 17,0 C 16,1 km/h (3 Bft) 100,00 %
21.08.2017 12:22 18,7 C 21,7 C 59 % 1022,2 hPa 0,0 l/m 8,0 km/h (2 Bft) NW 306 2 min 0,000 mm 3,8 UV-I 838 W/m 10,5 C 18,0 C 19,3 km/h (3 Bft) 100,00 %
21.08.2017 12:24 18,7 C 21,7 C 58 % 1022,3 hPa 0,0 l/m 7,5 km/h (2 Bft) W 273 2 min 0,000 mm 3,7 UV-I 820 W/m 10,3 C 18,2 C 14,5 km/h (3 Bft) 97,87 %
21.08.2017 12:26 18,7 C 21,7 C 57 % 1022,3 hPa 0,0 l/m 14,3 km/h (3 Bft) W-SW 240 2 min 0,000 mm 3,8 UV-I 818 W/m 10,0 C 15,9 C 19,3 km/h (3 Bft) 100,00 %
21.08.2017 12:28 18,6 C 21,7 C 56 % 1022,2 hPa 0,0 l/m 8,0 km/h (2 Bft) W-SW 249 2 min 0,000 mm 3,8 UV-I 820 W/m 9,6 C 17,9 C 12,9 km/h (3 Bft) 100,00 %
21.08.2017 12:30 18,7 C 21,7 C 61 % 1022,2 hPa 0,0 l/m 6,5 km/h (2 Bft) NW 311 2 min 0,000 mm 3,9 UV-I 816 W/m 11,0 C 18,7 C 14,5 km/h (3 Bft) 100,00 %
21.08.2017 12:32 18,9 C 21,7 C 60 % 1022,3 hPa 0,0 l/m 6,2 km/h (2 Bft) W-SW 247 2 min 0,000 mm 3,3 UV-I 700 W/m 11,0 C 18,9 C 16,1 km/h (3 Bft) 97,22 %
21.08.2017 12:34 18,6 C 21,7 C 55 % 1022,2 hPa 0,0 l/m 10,1 km/h (2 Bft) W 261 0 min 0,000 mm 3,1 UV-I 362 W/m 9,4 C 17,1 C 17,7 km/h (3 Bft) 100,00 %
21.08.2017 12:36 18,3 C 21,7 C 56 % 1022,2 hPa 0,0 l/m 7,7 km/h (2 Bft) SW 234 0 min 0,000 mm 2,7 UV-I 345 W/m 9,4 C 17,7 C 12,9 km/h (3 Bft) 100,00 %
21.08.2017 12:38 18,1 C 21,7 C 59 % 1022,2 hPa 0,0 l/m 4,1 km/h (1 Bft) W 281 0 min 0,000 mm 2,4 UV-I 347 W/m 10,0 C 18,1 C 8,0 km/h (2 Bft) 98,21 %
21.08.2017 12:40 18,1 C 21,7 C 59 % 1022,2 hPa 0,0 l/m 10,3 km/h (2 Bft) SW 219 0 min 0,000 mm 2,2 UV-I 314 W/m 10,0 C 16,4 C 16,1 km/h (3 Bft) 100,00 %
21.08.2017 12:42 18,1 C 21,7 C 59 % 1022,2 hPa 0,0 l/m 10,4 km/h (2 Bft) SW 232 0 min 0,000 mm 2,2 UV-I 318 W/m 10,0 C 16,4 C 14,5 km/h (3 Bft) 96,55 %
21.08.2017 12:44 18,1 C 21,7 C 61 % 1022,2 hPa 0,0 l/m 6,4 km/h (2 Bft) NW 306 0 min 0,000 mm 2,4 UV-I 320 W/m 10,5 C 18,1 C 14,5 km/h (3 Bft) 97,73 %
21.08.2017 12:46 18,1 C 21,7 C 63 % 1022,2 hPa 0,0 l/m 2,3 km/h (1 Bft) W-SW 257 0 min 0,000 mm 2,5 UV-I 311 W/m 10,9 C 18,1 C 6,4 km/h (2 Bft) 97,87 %
21.08.2017 12:48 18,1 C 21,7 C 60 % 1022,2 hPa 0,0 l/m 5,6 km/h (1 Bft) NW 311 0 min 0,000 mm 2,2 UV-I 310 W/m 10,2 C 18,1 C 11,3 km/h (2 Bft) 98,00 %
21.08.2017 12:50 18,1 C 21,7 C 60 % 1022,2 hPa 0,0 l/m 5,2 km/h (1 Bft) W 267 0 min 0,000 mm 2,2 UV-I 304 W/m 10,2 C 18,1 C 11,3 km/h (2 Bft) 97,87 %
21.08.2017 12:52 17,9 C 21,7 C 61 % 1022,2 hPa 0,0 l/m 5,5 km/h (1 Bft) SW 234 0 min 0,000 mm 2,2 UV-I 301 W/m 10,3 C 17,9 C 11,3 km/h (2 Bft) 97,37 %
21.08.2017 12:54 17,9 C 21,7 C 58 % 1022,2 hPa 0,0 l/m 4,1 km/h (1 Bft) W-SW 244 0 min 0,000 mm 2,4 UV-I 326 W/m 9,5 C 17,9 C 8,0 km/h (2 Bft) 96,43 %
21.08.2017 12:56 18,0 C 21,7 C 58 % 1022,2 hPa 0,0 l/m 4,7 km/h (1 Bft) SW 233 2 min 0,000 mm 3,8 UV-I 679 W/m 9,6 C 18,0 C 9,7 km/h (2 Bft) 95,45 %
21.08.2017 12:58 18,2 C 21,7 C 58 % 1022,2 hPa 0,0 l/m 3,0 km/h (1 Bft) S 175 2 min 0,000 mm 3,4 UV-I 849 W/m 9,8 C 18,2 C 9,7 km/h (2 Bft) 100,00 %
21.08.2017 13:00 18,2 C 21,7 C 57 % 1022,2 hPa 0,0 l/m 8,4 km/h (2 Bft) W 267 2 min 0,356 mm 3,6 UV-I 845 W/m 9,5 C 17,3 C 12,9 km/h (3 Bft) 96,00 %
21.08.2017 13:02 18,3 C 21,7 C 58 % 1022,2 hPa 0,0 l/m 7,5 km/h (2 Bft) W-SW 254 2 min 0,000 mm 3,4 UV-I 800 W/m 9,9 C 17,8 C 17,7 km/h (3 Bft) 98,00 %
21.08.2017 13:04 18,4 C 21,7 C 58 % 1022,1 hPa 0,0 l/m 9,5 km/h (2 Bft) SW 235 2 min 0,000 mm 2,7 UV-I 544 W/m 10,0 C 17,1 C 14,5 km/h (3 Bft) 98,00 %
21.08.2017 13:06 18,3 C 21,7 C 58 % 1022,1 hPa 0,0 l/m 7,0 km/h (2 Bft) W-SW 256 0 min 0,000 mm 2,9 UV-I 305 W/m 9,9 C 18,0 C 12,9 km/h (3 Bft) 97,62 %
21.08.2017 13:08 18,3 C 21,7 C 60 % 1022,1 hPa 0,0 l/m 6,4 km/h (2 Bft) W 259 0 min 0,000 mm 2,5 UV-I 287 W/m 10,4 C 18,3 C 16,1 km/h (3 Bft) 98,08 %
21.08.2017 13:10 18,2 C 21,7 C 57 % 1022,1 hPa 0,0 l/m 6,4 km/h (2 Bft) S-SW 200 0 min 0,000 mm 2,4 UV-I 278 W/m 9,5 C 18,2 C 12,9 km/h (3 Bft) 97,44 %
21.08.2017 13:12 18,1 C 21,7 C 57 % 1022,2 hPa 0,0 l/m 4,2 km/h (1 Bft) W 279 0 min 0,000 mm 2,4 UV-I 283 W/m 9,4 C 18,1 C 11,3 km/h (2 Bft) 100,00 %
21.08.2017 13:14 18,0 C 21,7 C 60 % 1022,1 hPa 0,0 l/m 3,8 km/h (1 Bft) NW 304 0 min 0,000 mm 3,2 UV-I 301 W/m 10,1 C 18,0 C 11,3 km/h (2 Bft) 100,00 %
21.08.2017 13:16 18,2 C 21,7 C 58 % 1022,1 hPa 0,0 l/m 7,7 km/h (2 Bft) W 277 2 min 0,000 mm 3,9 UV-I 745 W/m 9,8 C 17,6 C 12,9 km/h (3 Bft) 98,00 %
21.08.2017 13:18 18,4 C 21,7 C 57 % 1022,1 hPa 0,0 l/m 6,3 km/h (2 Bft) W-SW 244 2 min 0,000 mm 4,0 UV-I 830 W/m 9,7 C 18,4 C 12,9 km/h (3 Bft) 100,00 %
21.08.2017 13:20 18,7 C 21,7 C 57 % 1022,1 hPa 0,0 l/m 5,6 km/h (1 Bft) W-SW 243 2 min 0,000 mm 4,1 UV-I 835 W/m 10,0 C 18,7 C 8,0 km/h (2 Bft) 100,00 %
21.08.2017 13:23 19,1 C 21,7 C 56 % 1022,0 hPa 0,0 l/m 3,5 km/h (1 Bft) N-NW 343 3 min 0,000 mm 3,9 UV-I 836 W/m 10,1 C 19,1 C 8,0 km/h (2 Bft) 98,44 %
21.08.2017 13:24 19,1 C 21,7 C 58 % 1022,0 hPa 0,0 l/m 9,8 km/h (2 Bft) W-SW 254 1 min 0,000 mm 2,8 UV-I 642 W/m 10,6 C 17,7 C 12,9 km/h (3 Bft) 100,00 %
21.08.2017 13:26 18,8 C 21,7 C 56 % 1022,0 hPa 0,0 l/m 5,4 km/h (1 Bft) N 355 0 min 0,000 mm 2,6 UV-I 300 W/m 9,8 C 18,8 C 14,5 km/h (3 Bft) 100,00 %
21.08.2017 13:28 18,6 C 21,7 C 60 % 1022,0 hPa 0,0 l/m 3,3 km/h (1 Bft) W-NW 292 0 min 0,000 mm 2,4 UV-I 264 W/m 10,7 C 18,6 C 8,0 km/h (2 Bft) 100,00 %
21.08.2017 13:30 18,4 C 21,7 C 59 % 1022,0 hPa 0,0 l/m 5,7 km/h (1 Bft) W 280 0 min 0,000 mm 3,0 UV-I 309 W/m 10,2 C 18,4 C 14,5 km/h (3 Bft) 98,00 %
21.08.2017 13:32 18,4 C 21,7 C 59 % 1022,0 hPa 0,0 l/m 6,4 km/h (2 Bft) W-SW 242 2 min 0,000 mm 3,6 UV-I 681 W/m 10,2 C 18,4 C 12,9 km/h (3 Bft) 100,00 %
21.08.2017 13:34 18,5 C 21,7 C 58 % 1022,0 hPa 0,0 l/m 5,7 km/h (1 Bft) W 260 2 min 0,000 mm 3,9 UV-I 793 W/m 10,1 C 18,5 C 11,3 km/h (2 Bft) 100,00 %
21.08.2017 13:36 18,6 C 21,7 C 56 % 1021,9 hPa 0,0 l/m 4,2 km/h (1 Bft) W-NW 294 2 min 0,000 mm 4,0 UV-I 784 W/m 9,6 C 18,6 C 11,3 km/h (2 Bft) 100,00 %
21.08.2017 13:38 18,7 C 21,7 C 56 % 1021,9 hPa 0,0 l/m 5,4 km/h (1 Bft) W-SW 257 2 min 0,000 mm 3,8 UV-I 779 W/m 9,7 C 18,7 C 12,9 km/h (3 Bft) 100,00 %
21.08.2017 13:40 18,8 C 21,7 C 56 % 1021,9 hPa 0,0 l/m 5,6 km/h (1 Bft) W 269 2 min 0,000 mm 2,9 UV-I 779 W/m 9,8 C 18,8 C 11,3 km/h (2 Bft) 100,00 %
21.08.2017 13:42 18,8 C 21,7 C 57 % 1021,9 hPa 0,0 l/m 4,6 km/h (1 Bft) W-NW 290 2 min 0,000 mm 3,9 UV-I 788 W/m 10,1 C 18,8 C 12,9 km/h (3 Bft) 100,00 %
21.08.2017 13:44 18,9 C 21,7 C 55 % 1021,9 hPa 0,0 l/m 9,6 km/h (2 Bft) W-SW 244 2 min 0,000 mm 4,0 UV-I 796 W/m 9,7 C 17,6 C 16,1 km/h (3 Bft) 96,15 %
21.08.2017 13:46 19,0 C 21,7 C 53 % 1021,9 hPa 0,0 l/m 9,0 km/h (2 Bft) W-NW 296 2 min 0,000 mm 4,0 UV-I 805 W/m 9,2 C 17,9 C 16,1 km/h (3 Bft) 97,92 %
21.08.2017 13:48 19,2 C 21,7 C 53 % 1021,8 hPa 0,0 l/m 3,3 km/h (1 Bft) W-NW 300 2 min 0,000 mm 4,0 UV-I 807 W/m 9,4 C 19,2 C 9,7 km/h (2 Bft) 97,96 %
21.08.2017 13:50 19,6 C 21,7 C 57 % 1021,8 hPa 0,0 l/m 4,1 km/h (1 Bft) S-SW 209 2 min 0,000 mm 4,0 UV-I 818 W/m 10,8 C 19,6 C 9,7 km/h (2 Bft) 100,00 %
21.08.2017 13:52 19,9 C 21,7 C 54 % 1021,8 hPa 0,0 l/m 9,6 km/h (2 Bft) SW 232 2 min 0,000 mm 4,0 UV-I 806 W/m 10,3 C 18,7 C 12,9 km/h (3 Bft) 100,00 %
21.08.2017 13:54 19,8 C 21,7 C 49 % 1021,8 hPa 0,0 l/m 9,4 km/h (2 Bft) W 275 2 min 0,000 mm 4,0 UV-I 794 W/m 8,8 C 18,6 C 16,1 km/h (3 Bft) 100,00 %
21.08.2017 13:56 19,7 C 21,7 C 54 % 1021,8 hPa 0,0 l/m 7,6 km/h (2 Bft) W-SW 248 2 min 0,000 mm 4,0 UV-I 787 W/m 10,1 C 19,2 C 14,5 km/h (3 Bft) 100,00 %
21.08.2017 13:58 19,8 C 21,7 C 54 % 1021,8 hPa 0,0 l/m 4,6 km/h (1 Bft) W 262 2 min 0,000 mm 4,0 UV-I 779 W/m 10,2 C 19,8 C 8,0 km/h (2 Bft) 100,00 %
21.08.2017 14:00 19,8 C 21,7 C 51 % 1021,8 hPa 0,0 l/m 8,0 km/h (2 Bft) SW 225 2 min 0,000 mm 4,0 UV-I 767 W/m 9,4 C 19,1 C 20,9 km/h (4 Bft) 100,00 %
21.08.2017 14:02 19,6 C 21,7 C 49 % 1021,7 hPa 0,0 l/m 8,7 km/h (2 Bft) SW 234 2 min 0,406 mm 3,9 UV-I 757 W/m 8,6 C 18,7 C 17,7 km/h (3 Bft) 100,00 %
21.08.2017 14:04 19,4 C 21,7 C 48 % 1021,8 hPa 0,0 l/m 4,0 km/h (1 Bft) W-SW 249 2 min 0,000 mm 3,8 UV-I 766 W/m 8,1 C 19,4 C 11,3 km/h (2 Bft) 100,00 %
21.08.2017 14:06 19,4 C 21,7 C 50 % 1021,8 hPa 0,0 l/m 9,8 km/h (2 Bft) W 274 2 min 0,000 mm 3,0 UV-I 616 W/m 8,7 C 18,0 C 17,7 km/h (3 Bft) 100,00 %
21.08.2017 14:08 19,3 C 21,7 C 51 % 1021,7 hPa 0,0 l/m 2,5 km/h (1 Bft) W-NW 297 2 min 0,000 mm 3,6 UV-I 499 W/m 8,9 C 19,3 C 9,7 km/h (2 Bft) 96,23 %
21.08.2017 14:10 19,3 C 21,7 C 50 % 1021,7 hPa 0,0 l/m 8,8 km/h (2 Bft) W-SW 243 2 min 0,000 mm 3,9 UV-I 777 W/m 8,6 C 18,3 C 16,1 km/h (3 Bft) 100,00 %
21.08.2017 14:12 19,5 C 21,7 C 50 % 1021,7 hPa 0,0 l/m 11,4 km/h (2 Bft) W 259 2 min 0,000 mm 3,9 UV-I 767 W/m 8,8 C 17,6 C 17,7 km/h (3 Bft) 100,00 %
21.08.2017 14:14 19,7 C 21,7 C 48 % 1021,6 hPa 0,0 l/m 5,7 km/h (1 Bft) W-NW 286 2 min 0,000 mm 3,8 UV-I 756 W/m 8,4 C 19,7 C 11,3 km/h (2 Bft) 100,00 %
21.08.2017 14:16 19,8 C 21,7 C 51 % 1021,7 hPa 0,0 l/m 5,7 km/h (1 Bft) W 262 2 min 0,000 mm 3,8 UV-I 746 W/m 9,4 C 19,8 C 11,3 km/h (2 Bft) 100,00 %
21.08.2017 14:18 19,9 C 21,7 C 52 % 1021,7 hPa 0,0 l/m 9,4 km/h (2 Bft) SW 233 2 min 0,000 mm 3,8 UV-I 745 W/m 9,7 C 18,7 C 16,1 km/h (3 Bft) 100,00 %
21.08.2017 14:20 19,9 C 21,7 C 48 % 1021,6 hPa 0,0 l/m 11,9 km/h (2 Bft) W 264 2 min 0,000 mm 3,7 UV-I 739 W/m 8,6 C 17,9 C 17,7 km/h (3 Bft) 100,00 %
21.08.2017 14:22 19,8 C 21,7 C 49 % 1021,6 hPa 0,0 l/m 10,5 km/h (2 Bft) S-SW 196 2 min 0,000 mm 3,7 UV-I 746 W/m 8,8 C 18,3 C 14,5 km/h (3 Bft) 100,00 %
21.08.2017 14:24 19,9 C 21,7 C 51 % 1021,6 hPa 0,0 l/m 8,8 km/h (2 Bft) S-SW 209 2 min 0,000 mm 3,7 UV-I 740 W/m 9,5 C 18,9 C 14,5 km/h (3 Bft) 100,00 %
21.08.2017 14:26 19,9 C 21,7 C 47 % 1021,6 hPa 0,0 l/m 12,2 km/h (2 Bft) SW 219 2 min 0,000 mm 3,6 UV-I 727 W/m 8,3 C 17,9 C 19,3 km/h (3 Bft) 96,30 %
21.08.2017 14:28 19,8 C 21,7 C 49 % 1021,6 hPa 0,0 l/m 11,2 km/h (2 Bft) W-SW 238 2 min 0,000 mm 3,6 UV-I 716 W/m 8,8 C 18,0 C 16,1 km/h (3 Bft) 98,53 %
21.08.2017 14:30 19,9 C 21,7 C 51 % 1021,5 hPa 0,0 l/m 11,2 km/h (2 Bft) W 265 2 min 0,000 mm 3,5 UV-I 718 W/m 9,5 C 18,2 C 17,7 km/h (3 Bft) 97,56 %
21.08.2017 14:32 19,8 C 21,7 C 51 % 1021,5 hPa 0,0 l/m 9,9 km/h (2 Bft) W-SW 237 2 min 0,000 mm 3,5 UV-I 696 W/m 9,4 C 18,5 C 17,7 km/h (3 Bft) 97,73 %
21.08.2017 14:34 19,7 C 21,7 C 51 % 1021,5 hPa 0,0 l/m 14,1 km/h (3 Bft) W-SW 252 2 min 0,000 mm 3,4 UV-I 693 W/m 9,3 C 17,1 C 24,1 km/h (4 Bft) 98,21 %
21.08.2017 14:36 19,7 C 21,7 C 49 % 1021,5 hPa 0,0 l/m 12,2 km/h (2 Bft) W 261 2 min 0,000 mm 3,4 UV-I 699 W/m 8,7 C 17,6 C 19,3 km/h (3 Bft) 95,12 %
21.08.2017 14:38 19,7 C 21,7 C 48 % 1021,5 hPa 0,0 l/m 12,7 km/h (3 Bft) W 268 2 min 0,000 mm 3,4 UV-I 705 W/m 8,4 C 17,5 C 19,3 km/h (3 Bft) 96,00 %
21.08.2017 14:40 19,8 C 21,7 C 48 % 1021,5 hPa 0,0 l/m 13,3 km/h (3 Bft) W-SW 244 2 min 0,000 mm 3,3 UV-I 712 W/m 8,5 C 17,4 C 20,9 km/h (4 Bft) 94,74 %
21.08.2017 14:42 19,8 C 21,7 C 50 % 1021,5 hPa 0,0 l/m 11,0 km/h (2 Bft) W 273 2 min 0,000 mm 3,3 UV-I 723 W/m 9,1 C 18,1 C 14,5 km/h (3 Bft) 95,74 %
21.08.2017 14:44 19,7 C 21,7 C 49 % 1021,4 hPa 0,0 l/m 6,1 km/h (2 Bft) W-NW 288 2 min 0,000 mm 2,8 UV-I 560 W/m 8,7 C 19,7 C 12,9 km/h (3 Bft) 93,62 %
21.08.2017 14:46 19,6 C 22,2 C 52 % 1021,4 hPa 0,0 l/m 7,3 km/h (2 Bft) SW 217 2 min 0,000 mm 2,9 UV-I 446 W/m 9,5 C 19,2 C 19,3 km/h (3 Bft) 96,00 %
21.08.2017 14:48 19,6 C 22,2 C 50 % 1021,4 hPa 0,0 l/m 13,3 km/h (3 Bft) W-SW 254 2 min 0,000 mm 3,2 UV-I 707 W/m 8,9 C 17,2 C 19,3 km/h (3 Bft) 93,62 %
21.08.2017 14:50 19,7 C 22,2 C 49 % 1021,4 hPa 0,0 l/m 12,2 km/h (2 Bft) W-SW 254 2 min 0,000 mm 3,2 UV-I 691 W/m 8,7 C 17,6 C 19,3 km/h (3 Bft) 94,74 %
21.08.2017 14:52 19,7 C 22,2 C 50 % 1021,4 hPa 0,0 l/m 8,6 km/h (2 Bft) W-SW 249 2 min 0,000 mm 3,1 UV-I 676 W/m 9,0 C 18,8 C 16,1 km/h (3 Bft) 90,57 %
21.08.2017 14:54 19,8 C 22,2 C 49 % 1021,4 hPa 0,0 l/m 14,4 km/h (3 Bft) W-SW 252 2 min 0,000 mm 3,1 UV-I 666 W/m 8,8 C 17,2 C 19,3 km/h (3 Bft) 96,43 %
21.08.2017 14:56 19,8 C 22,2 C 50 % 1021,4 hPa 0,0 l/m 10,3 km/h (2 Bft) W 266 2 min 0,000 mm 3,0 UV-I 654 W/m 9,1 C 18,3 C 17,7 km/h (3 Bft) 93,62 %
21.08.2017 14:58 19,8 C 22,2 C 47 % 1021,4 hPa 0,0 l/m 9,5 km/h (2 Bft) W 269 2 min 0,000 mm 3,0 UV-I 648 W/m 8,2 C 18,6 C 14,5 km/h (3 Bft) 95,12 %
21.08.2017 15:00 19,7 C 22,2 C 49 % 1021,3 hPa 0,0 l/m 10,8 km/h (2 Bft) W 275 2 min 0,458 mm 3,0 UV-I 644 W/m 8,7 C 18,0 C 17,7 km/h (3 Bft) 95,74 %
21.08.2017 15:02 19,7 C 22,2 C 49 % 1021,3 hPa 0,0 l/m 12,7 km/h (3 Bft) W-SW 244 2 min 0,000 mm 2,9 UV-I 637 W/m 8,7 C 17,5 C 19,3 km/h (3 Bft) 96,00 %
21.08.2017 15:04 19,5 C 22,2 C 48 % 1021,3 hPa 0,0 l/m 8,5 km/h (2 Bft) SW 223 0 min 0,000 mm 2,5 UV-I 393 W/m 8,2 C 18,6 C 16,1 km/h (3 Bft) 90,00 %
21.08.2017 15:06 19,4 C 22,2 C 53 % 1021,3 hPa 0,0 l/m 4,1 km/h (1 Bft) SW 231 2 min 0,000 mm 3,0 UV-I 604 W/m 9,6 C 19,4 C 8,0 km/h (2 Bft) 98,31 %
21.08.2017 15:08 19,8 C 22,2 C 53 % 1021,3 hPa 0,0 l/m 3,8 km/h (1 Bft) W-NW 294 2 min 0,000 mm 3,0 UV-I 655 W/m 9,9 C 19,8 C 9,7 km/h (2 Bft) 93,62 %
21.08.2017 15:10 20,0 C 22,2 C 51 % 1021,2 hPa 0,0 l/m 7,2 km/h (2 Bft) W-SW 254 2 min 0,000 mm 2,9 UV-I 652 W/m 9,6 C 19,7 C 12,9 km/h (3 Bft) 96,00 %
21.08.2017 15:12 20,0 C 22,2 C 50 % 1021,3 hPa 0,0 l/m 4,9 km/h (1 Bft) W-NW 290 2 min 0,000 mm 2,9 UV-I 642 W/m 9,3 C 20,0 C 11,3 km/h (2 Bft) 98,00 %
21.08.2017 15:14 20,2 C 22,2 C 51 % 1021,2 hPa 0,0 l/m 4,1 km/h (1 Bft) W 263 2 min 0,000 mm 2,9 UV-I 639 W/m 9,7 C 20,2 C 12,9 km/h (3 Bft) 97,87 %
21.08.2017 15:16 20,3 C 22,2 C 53 % 1021,2 hPa 0,0 l/m 9,9 km/h (2 Bft) W-SW 255 2 min 0,000 mm 2,8 UV-I 639 W/m 10,4 C 19,0 C 19,3 km/h (3 Bft) 97,37 %
21.08.2017 15:18 20,2 C 22,2 C 49 % 1021,2 hPa 0,0 l/m 12,7 km/h (3 Bft) W 279 2 min 0,000 mm 2,8 UV-I 641 W/m 9,1 C 18,1 C 17,7 km/h (3 Bft) 97,73 %
21.08.2017 15:20 20,1 C 22,2 C 52 % 1021,2 hPa 0,0 l/m 6,0 km/h (2 Bft) NW 306 2 min 0,000 mm 2,8 UV-I 637 W/m 9,9 C 20,1 C 11,3 km/h (2 Bft) 98,11 %
21.08.2017 15:22 20,2 C 22,2 C 49 % 1021,2 hPa 0,0 l/m 7,9 km/h (2 Bft) W-NW 284 2 min 0,000 mm 2,8 UV-I 632 W/m 9,1 C 19,6 C 12,9 km/h (3 Bft) 95,12 %
21.08.2017 15:24 20,1 C 22,2 C 52 % 1021,2 hPa 0,0 l/m 6,0 km/h (2 Bft) W 270 2 min 0,000 mm 2,8 UV-I 631 W/m 9,9 C 20,1 C 9,7 km/h (2 Bft) 98,31 %
21.08.2017 15:26 20,1 C 22,2 C 48 % 1021,2 hPa 0,0 l/m 7,0 km/h (2 Bft) W-SW 255 2 min 0,000 mm 2,7 UV-I 628 W/m 8,7 C 19,9 C 11,3 km/h (2 Bft) 89,47 %
21.08.2017 15:28 20,1 C 22,2 C 51 % 1021,2 hPa 0,0 l/m 2,5 km/h (1 Bft) N-NW 347 2 min 0,000 mm 2,7 UV-I 625 W/m 9,6 C 20,1 C 6,4 km/h (2 Bft) 98,11 %
21.08.2017 15:30 20,1 C 22,2 C 50 % 1021,1 hPa 0,0 l/m 7,4 km/h (2 Bft) W 263 2 min 0,000 mm 2,7 UV-I 625 W/m 9,3 C 19,7 C 16,1 km/h (3 Bft) 97,73 %
21.08.2017 15:32 20,1 C 22,2 C 47 % 1021,1 hPa 0,0 l/m 7,2 km/h (2 Bft) W-SW 248 2 min 0,000 mm 2,7 UV-I 627 W/m 8,4 C 19,8 C 17,7 km/h (3 Bft) 96,00 %
21.08.2017 15:34 19,9 C 22,2 C 50 % 1021,1 hPa 0,0 l/m 4,1 km/h (1 Bft) W 266 2 min 0,000 mm 2,6 UV-I 624 W/m 9,2 C 19,9 C 11,3 km/h (2 Bft) 100,00 %
21.08.2017 15:36 19,9 C 22,2 C 51 % 1021,1 hPa 0,0 l/m 3,0 km/h (1 Bft) N 9 2 min 0,000 mm 2,6 UV-I 620 W/m 9,5 C 19,9 C 11,3 km/h (2 Bft) 96,23 %
21.08.2017 15:38 20,1 C 22,2 C 50 % 1021,1 hPa 0,0 l/m 7,2 km/h (2 Bft) W-SW 240 2 min 0,000 mm 2,6 UV-I 616 W/m 9,3 C 19,8 C 12,9 km/h (3 Bft) 97,56 %
21.08.2017 15:40 20,2 C 22,2 C 50 % 1021,1 hPa 0,0 l/m 9,0 km/h (2 Bft) W-SW 257 2 min 0,000 mm 2,5 UV-I 609 W/m 9,4 C 19,2 C 14,5 km/h (3 Bft) 98,11 %
21.08.2017 15:42 20,3 C 22,2 C 49 % 1021,1 hPa 0,0 l/m 9,7 km/h (2 Bft) S-SW 207 2 min 0,000 mm 2,5 UV-I 604 W/m 9,2 C 19,1 C 16,1 km/h (3 Bft) 97,44 %
21.08.2017 15:44 20,2 C 22,2 C 48 % 1021,1 hPa 0,0 l/m 5,9 km/h (2 Bft) W 259 2 min 0,000 mm 2,4 UV-I 591 W/m 8,8 C 20,2 C 12,9 km/h (3 Bft) 98,11 %
21.08.2017 15:46 20,2 C 22,2 C 49 % 1021,0 hPa 0,0 l/m 6,1 km/h (2 Bft) W-SW 249 2 min 0,000 mm 2,4 UV-I 591 W/m 9,1 C 20,2 C 11,3 km/h (2 Bft) 98,00 %
21.08.2017 15:48 20,2 C 22,2 C 49 % 1021,0 hPa 0,0 l/m 8,5 km/h (2 Bft) W-SW 252 2 min 0,000 mm 2,2 UV-I 591 W/m 9,1 C 19,4 C 19,3 km/h (3 Bft) 97,37 %
21.08.2017 15:50 20,1 C 22,2 C 49 % 1021,0 hPa 0,0 l/m 4,8 km/h (1 Bft) W 262 2 min 0,000 mm 2,0 UV-I 592 W/m 9,0 C 20,1 C 11,3 km/h (2 Bft) 98,11 %
21.08.2017 15:52 19,9 C 22,2 C 49 % 1021,0 hPa 0,0 l/m 3,7 km/h (1 Bft) W 269 2 min 0,000 mm 2,3 UV-I 587 W/m 8,9 C 19,9 C 6,4 km/h (2 Bft) 97,56 %
21.08.2017 15:54 20,0 C 22,2 C 49 % 1020,9 hPa 0,0 l/m 7,0 km/h (2 Bft) SW 236 2 min 0,000 mm 2,3 UV-I 584 W/m 9,0 C 19,8 C 12,9 km/h (3 Bft) 97,56 %
21.08.2017 15:56 20,1 C 22,2 C 50 % 1020,9 hPa 0,0 l/m 9,8 km/h (2 Bft) S-SW 199 2 min 0,000 mm 2,3 UV-I 578 W/m 9,3 C 18,8 C 17,7 km/h (3 Bft) 94,64 %
21.08.2017 15:58 20,1 C 22,2 C 52 % 1020,9 hPa 0,0 l/m 8,4 km/h (2 Bft) W-SW 248 2 min 0,000 mm 2,2 UV-I 545 W/m 9,9 C 19,3 C 19,3 km/h (3 Bft) 98,00 %
21.08.2017 16:00 20,2 C 22,2 C 53 % 1020,9 hPa 0,0 l/m 7,9 km/h (2 Bft) W-SW 242 2 min 0,406 mm 2,2 UV-I 552 W/m 10,3 C 19,6 C 16,1 km/h (3 Bft) 97,87 %
21.08.2017 16:02 20,2 C 22,2 C 51 % 1020,9 hPa 0,0 l/m 8,8 km/h (2 Bft) W 272 2 min 0,000 mm 2,1 UV-I 550 W/m 9,7 C 19,3 C 16,1 km/h (3 Bft) 97,37 %
21.08.2017 16:04 20,1 C 22,2 C 50 % 1020,9 hPa 0,0 l/m 8,1 km/h (2 Bft) W-SW 248 2 min 0,000 mm 2,1 UV-I 545 W/m 9,3 C 19,4 C 14,5 km/h (3 Bft) 100,00 %
21.08.2017 16:06 20,1 C 22,2 C 51 % 1020,9 hPa 0,0 l/m 8,0 km/h (2 Bft) NW 308 2 min 0,000 mm 2,1 UV-I 540 W/m 9,6 C 19,5 C 14,5 km/h (3 Bft) 97,56 %
21.08.2017 16:08 20,0 C 22,2 C 50 % 1020,9 hPa 0,0 l/m 6,3 km/h (2 Bft) W 274 2 min 0,000 mm 2,1 UV-I 535 W/m 9,3 C 20,0 C 12,9 km/h (3 Bft) 100,00 %
21.08.2017 16:10 20,1 C 22,2 C 51 % 1020,8 hPa 0,0 l/m 6,3 km/h (2 Bft) W-NW 288 2 min 0,000 mm 2,0 UV-I 532 W/m 9,6 C 20,1 C 12,9 km/h (3 Bft) 100,00 %
21.08.2017 16:12 20,0 C 22,2 C 48 % 1020,8 hPa 0,0 l/m 7,9 km/h (2 Bft) W 265 2 min 0,000 mm 2,0 UV-I 527 W/m 8,7 C 19,4 C 19,3 km/h (3 Bft) 100,00 %
21.08.2017 16:14 19,9 C 22,2 C 50 % 1020,8 hPa 0,0 l/m 9,2 km/h (2 Bft) SW 232 2 min 0,000 mm 2,0 UV-I 518 W/m 9,2 C 18,8 C 16,1 km/h (3 Bft) 100,00 %
21.08.2017 16:16 19,9 C 22,2 C 50 % 1020,8 hPa 0,0 l/m 10,0 km/h (2 Bft) W 263 2 min 0,000 mm 1,9 UV-I 506 W/m 9,2 C 18,5 C 14,5 km/h (3 Bft) 100,00 %
21.08.2017 16:18 19,8 C 22,2 C 48 % 1020,8 hPa 0,0 l/m 10,6 km/h (2 Bft) SW 230 2 min 0,000 mm 1,9 UV-I 495 W/m 8,5 C 18,2 C 17,7 km/h (3 Bft) 100,00 %
21.08.2017 16:20 19,8 C 22,2 C 50 % 1020,8 hPa 0,0 l/m 8,1 km/h (2 Bft) W-SW 255 2 min 0,000 mm 1,8 UV-I 491 W/m 9,1 C 19,1 C 12,9 km/h (3 Bft) 100,00 %
21.08.2017 16:22 20,0 C 22,2 C 52 % 1020,8 hPa 0,0 l/m 6,3 km/h (2 Bft) NO 38 2 min 0,000 mm 1,8 UV-I 490 W/m 9,8 C 20,0 C 11,3 km/h (2 Bft) 100,00 %
21.08.2017 16:24 20,2 C 22,2 C 52 % 1020,7 hPa 0,0 l/m 7,9 km/h (2 Bft) W-SW 255 2 min 0,000 mm 1,8 UV-I 487 W/m 10,0 C 19,6 C 14,5 km/h (3 Bft) 97,96 %
21.08.2017 16:26 20,1 C 22,2 C 48 % 1020,8 hPa 0,0 l/m 9,6 km/h (2 Bft) W-SW 245 2 min 0,000 mm 1,7 UV-I 482 W/m 8,7 C 18,9 C 19,3 km/h (3 Bft) 100,00 %
21.08.2017 16:28 20,0 C 22,2 C 49 % 1020,7 hPa 0,0 l/m 8,3 km/h (2 Bft) W-SW 257 2 min 0,000 mm 1,7 UV-I 475 W/m 9,0 C 19,2 C 12,9 km/h (3 Bft) 94,64 %
21.08.2017 16:30 19,9 C 22,2 C 48 % 1020,7 hPa 0,0 l/m 8,4 km/h (2 Bft) W-SW 246 2 min 0,000 mm 1,7 UV-I 467 W/m 8,6 C 19,1 C 14,5 km/h (3 Bft) 97,87 %
21.08.2017 16:32 19,9 C 22,2 C 49 % 1020,7 hPa 0,0 l/m 7,4 km/h (2 Bft) W-SW 240 2 min 0,000 mm 1,6 UV-I 458 W/m 8,9 C 19,5 C 12,9 km/h (3 Bft) 97,14 %
21.08.2017 16:34 19,9 C 22,2 C 49 % 1020,7 hPa 0,0 l/m 6,8 km/h (2 Bft) W-SW 251 2 min 0,000 mm 1,6 UV-I 450 W/m 8,9 C 19,7 C 12,9 km/h (3 Bft) 98,21 %
21.08.2017 16:36 19,9 C 22,2 C 52 % 1020,7 hPa 0,0 l/m 1,2 km/h (1 Bft) W-SW 251 2 min 0,000 mm 1,6 UV-I 444 W/m 9,7 C 19,9 C 4,8 km/h (1 Bft) 96,00 %
21.08.2017 16:38 20,1 C 22,2 C 50 % 1020,7 hPa 0,0 l/m 4,9 km/h (1 Bft) SW 217 2 min 0,000 mm 1,5 UV-I 438 W/m 9,3 C 20,1 C 12,9 km/h (3 Bft) 97,37 %
21.08.2017 16:40 20,0 C 22,2 C 50 % 1020,6 hPa 0,0 l/m 5,2 km/h (1 Bft) W 270 2 min 0,000 mm 1,5 UV-I 434 W/m 9,3 C 20,0 C 12,9 km/h (3 Bft) 95,74 %
21.08.2017 16:42 20,1 C 22,2 C 51 % 1020,6 hPa 0,0 l/m 9,6 km/h (2 Bft) W-SW 250 2 min 0,000 mm 1,5 UV-I 432 W/m 9,6 C 18,9 C 14,5 km/h (3 Bft) 97,87 %
21.08.2017 16:44 20,1 C 22,2 C 49 % 1020,6 hPa 0,0 l/m 6,6 km/h (2 Bft) W 281 2 min 0,000 mm 1,5 UV-I 428 W/m 9,0 C 20,0 C 12,9 km/h (3 Bft) 96,43 %
21.08.2017 16:46 20,1 C 22,2 C 48 % 1020,6 hPa 0,0 l/m 3,9 km/h (1 Bft) SW 221 2 min 0,000 mm 1,4 UV-I 421 W/m 8,7 C 20,1 C 8,0 km/h (2 Bft) 97,56 %
21.08.2017 16:48 20,1 C 22,2 C 49 % 1020,6 hPa 0,0 l/m 6,1 km/h (2 Bft) W-SW 242 2 min 0,000 mm 1,4 UV-I 417 W/m 9,0 C 20,1 C 11,3 km/h (2 Bft) 98,00 %
21.08.2017 16:50 20,1 C 22,2 C 50 % 1020,6 hPa 0,0 l/m 5,7 km/h (1 Bft) NW 317 2 min 0,000 mm 1,4 UV-I 417 W/m 9,3 C 20,1 C 11,3 km/h (2 Bft) 97,56 %
21.08.2017 16:52 20,1 C 22,2 C 52 % 1020,5 hPa 0,0 l/m 2,6 km/h (1 Bft) W 266 2 min 0,000 mm 1,4 UV-I 413 W/m 9,9 C 20,1 C 12,9 km/h (3 Bft) 97,56 %
21.08.2017 16:54 20,0 C 22,2 C 48 % 1020,5 hPa 0,0 l/m 3,7 km/h (1 Bft) W 262 2 min 0,000 mm 1,3 UV-I 410 W/m 8,7 C 20,0 C 9,7 km/h (2 Bft) 96,36 %
21.08.2017 16:56 19,9 C 22,2 C 49 % 1020,6 hPa 0,0 l/m 5,0 km/h (1 Bft) SW 233 2 min 0,000 mm 1,3 UV-I 405 W/m 8,9 C 19,9 C 9,7 km/h (2 Bft) 100,00 %
21.08.2017 16:58 20,0 C 22,2 C 50 % 1020,6 hPa 0,0 l/m 5,4 km/h (1 Bft) W-NW 302 2 min 0,000 mm 1,3 UV-I 403 W/m 9,3 C 20,0 C 11,3 km/h (2 Bft) 100,00 %
21.08.2017 17:00 20,1 C 22,2 C 50 % 1020,6 hPa 0,0 l/m 2,8 km/h (1 Bft) SW 236 2 min 0,330 mm 1,3 UV-I 399 W/m 9,3 C 20,1 C 6,4 km/h (2 Bft) 95,74 %
21.08.2017 17:02 20,1 C 22,2 C 51 % 1020,6 hPa 0,0 l/m 3,7 km/h (1 Bft) W-NW 292 2 min 0,000 mm 1,2 UV-I 395 W/m 9,6 C 20,1 C 6,4 km/h (2 Bft) 100,00 %
21.08.2017 17:04 20,1 C 22,2 C 48 % 1020,6 hPa 0,0 l/m 2,9 km/h (1 Bft) W-NW 288 2 min 0,000 mm 1,2 UV-I 393 W/m 8,7 C 20,1 C 6,4 km/h (2 Bft) 100,00 %
21.08.2017 17:06 20,1 C 22,2 C 49 % 1020,6 hPa 0,0 l/m 4,9 km/h (1 Bft) W 261 2 min 0,000 mm 1,2 UV-I 389 W/m 9,0 C 20,1 C 9,7 km/h (2 Bft) 100,00 %
21.08.2017 17:08 20,0 C 22,2 C 48 % 1020,7 hPa 0,0 l/m 5,4 km/h (1 Bft) W 276 2 min 0,000 mm 1,2 UV-I 386 W/m 8,7 C 20,0 C 11,3 km/h (2 Bft) 98,21 %
21.08.2017 17:10 19,9 C 22,2 C 48 % 1020,6 hPa 0,0 l/m 5,9 km/h (2 Bft) W-SW 253 2 min 0,000 mm 1,1 UV-I 384 W/m 8,6 C 19,9 C 11,3 km/h (2 Bft) 97,87 %
21.08.2017 17:12 19,9 C 22,2 C 48 % 1020,7 hPa 0,0 l/m 7,6 km/h (2 Bft) W-SW 248 2 min 0,000 mm 1,1 UV-I 379 W/m 8,6 C 19,4 C 14,5 km/h (3 Bft) 100,00 %
21.08.2017 17:14 19,9 C 22,2 C 48 % 1020,7 hPa 0,0 l/m 6,9 km/h (2 Bft) W-SW 250 2 min 0,000 mm 1,1 UV-I 380 W/m 8,6 C 19,7 C 12,9 km/h (3 Bft) 100,00 %
21.08.2017 17:16 19,9 C 22,2 C 49 % 1020,7 hPa 0,0 l/m 4,9 km/h (1 Bft) W-NW 285 2 min 0,000 mm 1,1 UV-I 381 W/m 8,9 C 19,9 C 11,3 km/h (2 Bft) 98,00 %
21.08.2017 17:18 19,9 C 22,2 C 48 % 1020,7 hPa 0,0 l/m 6,7 km/h (2 Bft) W-SW 256 2 min 0,000 mm 1,0 UV-I 374 W/m 8,6 C 19,8 C 11,3 km/h (2 Bft) 100,00 %
21.08.2017 17:20 19,9 C 22,2 C 50 % 1020,7 hPa 0,0 l/m 10,1 km/h (2 Bft) W-SW 250 2 min 0,000 mm 1,0 UV-I 362 W/m 9,2 C 18,5 C 17,7 km/h (3 Bft) 96,23 %
21.08.2017 17:22 19,9 C 22,2 C 50 % 1020,7 hPa 0,0 l/m 9,1 km/h (2 Bft) W 261 2 min 0,000 mm 1,0 UV-I 357 W/m 9,2 C 18,8 C 12,9 km/h (3 Bft) 100,00 %
21.08.2017 17:24 19,9 C 22,2 C 50 % 1020,6 hPa 0,0 l/m 7,5 km/h (2 Bft) W 259 2 min 0,000 mm 1,0 UV-I 346 W/m 9,2 C 19,4 C 16,1 km/h (3 Bft) 98,00 %
21.08.2017 17:26 19,9 C 22,2 C 51 % 1020,6 hPa 0,0 l/m 7,6 km/h (2 Bft) W-SW 257 2 min 0,000 mm 0,9 UV-I 340 W/m 9,5 C 19,4 C 12,9 km/h (3 Bft) 100,00 %
21.08.2017 17:28 19,9 C 22,2 C 50 % 1020,7 hPa 0,0 l/m 4,7 km/h (1 Bft) W-SW 246 2 min 0,000 mm 0,9 UV-I 338 W/m 9,2 C 19,9 C 12,9 km/h (3 Bft) 100,00 %
21.08.2017 17:30 19,8 C 22,2 C 50 % 1020,7 hPa 0,0 l/m 6,4 km/h (2 Bft) W-SW 242 2 min 0,000 mm 0,9 UV-I 336 W/m 9,1 C 19,8 C 12,9 km/h (3 Bft) 98,11 %
21.08.2017 17:32 19,8 C 22,2 C 48 % 1020,6 hPa 0,0 l/m 8,9 km/h (2 Bft) W 271 2 min 0,000 mm 0,9 UV-I 328 W/m 8,5 C 18,8 C 14,5 km/h (3 Bft) 100,00 %
21.08.2017 17:34 19,8 C 22,2 C 50 % 1020,6 hPa 0,0 l/m 4,3 km/h (1 Bft) W-SW 252 2 min 0,000 mm 0,8 UV-I 319 W/m 9,1 C 19,8 C 11,3 km/h (2 Bft) 97,56 %
21.08.2017 17:36 19,8 C 22,2 C 47 % 1020,6 hPa 0,0 l/m 6,0 km/h (2 Bft) W-SW 242 2 min 0,000 mm 0,8 UV-I 314 W/m 8,2 C 19,8 C 9,7 km/h (2 Bft) 100,00 %
21.08.2017 17:38 19,8 C 22,2 C 47 % 1020,6 hPa 0,0 l/m 2,8 km/h (1 Bft) W-NW 288 2 min 0,000 mm 0,8 UV-I 308 W/m 8,2 C 19,8 C 6,4 km/h (2 Bft) 98,00 %
21.08.2017 17:40 19,7 C 22,2 C 49 % 1020,6 hPa 0,0 l/m 5,5 km/h (1 Bft) NW 305 2 min 0,000 mm 0,8 UV-I 301 W/m 8,7 C 19,7 C 12,9 km/h (3 Bft) 100,00 %
21.08.2017 17:42 19,7 C 22,2 C 49 % 1020,6 hPa 0,0 l/m 6,2 km/h (2 Bft) NW 306 2 min 0,000 mm 0,7 UV-I 293 W/m 8,7 C 19,7 C 9,7 km/h (2 Bft) 100,00 %
21.08.2017 17:44 19,6 C 22,2 C 48 % 1020,6 hPa 0,0 l/m 3,4 km/h (1 Bft) NW 306 2 min 0,000 mm 0,7 UV-I 290 W/m 8,3 C 19,6 C 11,3 km/h (2 Bft) 98,11 %
21.08.2017 17:46 19,6 C 22,2 C 48 % 1020,6 hPa 0,0 l/m 5,3 km/h (1 Bft) W-SW 237 2 min 0,000 mm 0,7 UV-I 288 W/m 8,3 C 19,6 C 11,3 km/h (2 Bft) 100,00 %
21.08.2017 17:48 19,6 C 22,2 C 48 % 1020,6 hPa 0,0 l/m 4,3 km/h (1 Bft) W-NW 292 2 min 0,000 mm 0,7 UV-I 283 W/m 8,3 C 19,6 C 6,4 km/h (2 Bft) 100,00 %
21.08.2017 17:50 19,6 C 22,2 C 48 % 1020,7 hPa 0,0 l/m 5,0 km/h (1 Bft) SW 216 2 min 0,000 mm 0,7 UV-I 277 W/m 8,3 C 19,6 C 11,3 km/h (2 Bft) 100,00 %
21.08.2017 17:53 19,7 C 22,2 C 49 % 1020,6 hPa 0,0 l/m 8,0 km/h (2 Bft) W-SW 246 3 min 0,000 mm 0,6 UV-I 269 W/m 8,7 C 19,0 C 17,7 km/h (3 Bft) 100,00 %
21.08.2017 17:54 19,7 C 22,2 C 50 % 1020,7 hPa 0,0 l/m 4,7 km/h (1 Bft) W 259 1 min 0,000 mm 0,6 UV-I 262 W/m 9,0 C 19,7 C 6,4 km/h (2 Bft) 100,00 %
21.08.2017 17:56 19,7 C 22,2 C 48 % 1020,7 hPa 0,0 l/m 8,8 km/h (2 Bft) SW 233 2 min 0,000 mm 0,6 UV-I 258 W/m 8,4 C 18,7 C 19,3 km/h (3 Bft) 97,73 %
21.08.2017 17:58 19,6 C 22,2 C 49 % 1020,6 hPa 0,0 l/m 5,2 km/h (1 Bft) W-SW 253 2 min 0,000 mm 0,6 UV-I 252 W/m 8,6 C 19,6 C 9,7 km/h (2 Bft) 100,00 %
21.08.2017 18:00 19,6 C 22,2 C 49 % 1020,6 hPa 0,0 l/m 4,7 km/h (1 Bft) W-SW 254 2 min 0,229 mm 0,6 UV-I 243 W/m 8,6 C 19,6 C 6,4 km/h (2 Bft) 98,21 %
21.08.2017 18:02 19,6 C 22,2 C 49 % 1020,6 hPa 0,0 l/m 2,1 km/h (1 Bft) W 262 2 min 0,000 mm 0,5 UV-I 233 W/m 8,6 C 19,6 C 4,8 km/h (1 Bft) 100,00 %
21.08.2017 18:04 19,6 C 22,2 C 48 % 1020,6 hPa 0,0 l/m 3,7 km/h (1 Bft) W-SW 250 2 min 0,000 mm 0,5 UV-I 222 W/m 8,3 C 19,6 C 6,4 km/h (2 Bft) 100,00 %
21.08.2017 18:06 19,6 C 22,2 C 50 % 1020,5 hPa 0,0 l/m 5,3 km/h (1 Bft) N-NW 344 2 min 0,000 mm 0,5 UV-I 213 W/m 8,9 C 19,6 C 11,3 km/h (2 Bft) 100,00 %
21.08.2017 18:08 19,6 C 22,2 C 49 % 1020,6 hPa 0,0 l/m 4,0 km/h (1 Bft) SW 222 2 min 0,000 mm 0,5 UV-I 206 W/m 8,6 C 19,6 C 8,0 km/h (2 Bft) 100,00 %
21.08.2017 18:10 19,5 C 22,2 C 48 % 1020,6 hPa 0,0 l/m 4,1 km/h (1 Bft) W-SW 237 2 min 0,000 mm 0,3 UV-I 200 W/m 8,2 C 19,5 C 12,9 km/h (3 Bft) 100,00 %
21.08.2017 18:12 19,4 C 22,2 C 47 % 1020,6 hPa 0,0 l/m 6,2 km/h (2 Bft) W-SW 254 2 min 0,000 mm 0,0 UV-I 197 W/m 7,8 C 19,4 C 11,3 km/h (2 Bft) 100,00 %
21.08.2017 18:14 19,3 C 22,2 C 48 % 1020,6 hPa 0,0 l/m 7,5 km/h (2 Bft) W-NW 282 2 min 0,000 mm 0,0 UV-I 193 W/m 8,0 C 18,8 C 14,5 km/h (3 Bft) 100,00 %
21.08.2017 18:16 19,3 C 22,2 C 49 % 1020,6 hPa 0,0 l/m 5,6 km/h (1 Bft) W-SW 258 2 min 0,000 mm 0,0 UV-I 192 W/m 8,3 C 19,3 C 9,7 km/h (2 Bft) 100,00 %
21.08.2017 18:18 19,3 C 22,2 C 49 % 1020,6 hPa 0,0 l/m 7,1 km/h (2 Bft) W-SW 254 2 min 0,000 mm 0,0 UV-I 189 W/m 8,3 C 19,0 C 11,3 km/h (2 Bft) 97,62 %
21.08.2017 18:20 19,3 C 22,2 C 48 % 1020,6 hPa 0,0 l/m 13,2 km/h (3 Bft) SW 233 2 min 0,000 mm 0,0 UV-I 187 W/m 8,0 C 16,9 C 17,7 km/h (3 Bft) 98,00 %
21.08.2017 18:22 19,3 C 22,2 C 48 % 1020,6 hPa 0,0 l/m 5,4 km/h (1 Bft) W 274 2 min 0,000 mm 0,0 UV-I 183 W/m 8,0 C 19,3 C 16,1 km/h (3 Bft) 97,87 %
21.08.2017 18:24 19,2 C 22,2 C 49 % 1020,6 hPa 0,0 l/m 9,8 km/h (2 Bft) W-SW 246 2 min 0,000 mm 0,0 UV-I 178 W/m 8,2 C 17,8 C 14,5 km/h (3 Bft) 92,00 %
21.08.2017 18:26 19,2 C 22,2 C 48 % 1020,7 hPa 0,0 l/m 5,8 km/h (2 Bft) W-SW 252 2 min 0,000 mm 0,0 UV-I 171 W/m 7,9 C 19,2 C 9,7 km/h (2 Bft) 100,00 %
21.08.2017 18:28 19,2 C 22,2 C 49 % 1020,6 hPa 0,0 l/m 5,8 km/h (2 Bft) W-SW 246 2 min 0,000 mm 0,0 UV-I 165 W/m 8,2 C 19,2 C 11,3 km/h (2 Bft) 96,00 %
21.08.2017 18:30 19,1 C 22,2 C 50 % 1020,6 hPa 0,0 l/m 5,2 km/h (1 Bft) W-SW 250 2 min 0,000 mm 0,0 UV-I 159 W/m 8,4 C 19,1 C 11,3 km/h (2 Bft) 97,56 %
21.08.2017 18:33 19,1 C 22,2 C 50 % 1020,7 hPa 0,0 l/m 7,0 km/h (2 Bft) SW 225 3 min 0,000 mm 0,0 UV-I 152 W/m 8,4 C 18,8 C 12,9 km/h (3 Bft) 98,78 %
21.08.2017 18:34 19,1 C 22,2 C 49 % 1020,7 hPa 0,0 l/m 5,9 km/h (2 Bft) W-SW 257 1 min 0,000 mm 0,0 UV-I 147 W/m 8,1 C 19,1 C 6,4 km/h (2 Bft) 95,83 %
21.08.2017 18:35 19,1 C 22,2 C 51 % 1020,7 hPa 0,0 l/m 6,4 km/h (2 Bft) W-SW 247 1 min 0,000 mm 0,0 UV-I 148 W/m 8,7 C 19,1 C 12,9 km/h (3 Bft) 100,00 %
21.08.2017 18:38 19,0 C 22,2 C 51 % 1020,7 hPa 0,0 l/m 6,3 km/h (2 Bft) W-SW 254 3 min 0,000 mm 0,0 UV-I 134 W/m 8,6 C 19,0 C 11,3 km/h (2 Bft) 94,44 %
21.08.2017 18:40 19,0 C 22,2 C 51 % 1020,7 hPa 0,0 l/m 7,3 km/h (2 Bft) W-SW 253 2 min 0,000 mm 0,0 UV-I 129 W/m 8,6 C 18,6 C 14,5 km/h (3 Bft) 96,23 %
21.08.2017 18:42 18,9 C 22,2 C 51 % 1020,7 hPa 0,0 l/m 6,8 km/h (2 Bft) W 270 2 min 0,000 mm 0,0 UV-I 125 W/m 8,5 C 18,7 C 9,7 km/h (2 Bft) 97,73 %
21.08.2017 18:44 18,9 C 22,2 C 51 % 1020,7 hPa 0,0 l/m 7,0 km/h (2 Bft) W 276 2 min 0,000 mm 0,0 UV-I 121 W/m 8,5 C 18,6 C 9,7 km/h (2 Bft) 95,74 %
21.08.2017 18:46 18,9 C 22,2 C 52 % 1020,7 hPa 0,0 l/m 4,3 km/h (1 Bft) W 261 2 min 0,000 mm 0,0 UV-I 116 W/m 8,8 C 18,9 C 9,7 km/h (2 Bft) 100,00 %
21.08.2017 18:48 18,8 C 22,2 C 52 % 1020,7 hPa 0,0 l/m 5,5 km/h (1 Bft) W 279 0 min 0,000 mm 0,0 UV-I 111 W/m 8,7 C 18,8 C 11,3 km/h (2 Bft) 96,43 %
21.08.2017 18:50 18,8 C 22,2 C 52 % 1020,7 hPa 0,0 l/m 7,6 km/h (2 Bft) SW 225 0 min 0,000 mm 0,0 UV-I 106 W/m 8,7 C 18,3 C 12,9 km/h (3 Bft) 97,96 %
21.08.2017 18:52 18,7 C 22,2 C 52 % 1020,7 hPa 0,0 l/m 4,9 km/h (1 Bft) W-SW 250 0 min 0,000 mm 0,0 UV-I 101 W/m 8,6 C 18,7 C 11,3 km/h (2 Bft) 100,00 %
21.08.2017 18:54 18,7 C 22,2 C 52 % 1020,8 hPa 0,0 l/m 5,9 km/h (2 Bft) W 264 0 min 0,000 mm 0,0 UV-I 96 W/m 8,6 C 18,7 C 11,3 km/h (2 Bft) 100,00 %
21.08.2017 18:56 18,6 C 22,2 C 51 % 1020,7 hPa 0,0 l/m 4,8 km/h (1 Bft) W 271 0 min 0,000 mm 0,0 UV-I 92 W/m 8,3 C 18,6 C 9,7 km/h (2 Bft) 100,00 %
21.08.2017 18:58 18,6 C 22,2 C 53 % 1020,7 hPa 0,0 l/m 4,5 km/h (1 Bft) W-SW 257 0 min 0,000 mm 0,0 UV-I 88 W/m 8,8 C 18,6 C 6,4 km/h (2 Bft) 97,87 %
21.08.2017 19:00 18,5 C 22,2 C 53 % 1020,8 hPa 0,0 l/m 4,6 km/h (1 Bft) W 267 0 min 0,127 mm 0,0 UV-I 84 W/m 8,7 C 18,5 C 6,4 km/h (2 Bft) 100,00 %
21.08.2017 19:02 18,4 C 22,2 C 52 % 1020,8 hPa 0,0 l/m 3,8 km/h (1 Bft) W 267 0 min 0,000 mm 0,0 UV-I 81 W/m 8,4 C 18,4 C 6,4 km/h (2 Bft) 100,00 %
21.08.2017 19:04 18,3 C 22,2 C 54 % 1020,7 hPa 0,0 l/m 2,7 km/h (1 Bft) W 267 0 min 0,000 mm 0,0 UV-I 76 W/m 8,8 C 18,3 C 4,8 km/h (1 Bft) 100,00 %
21.08.2017 19:06 18,3 C 22,2 C 53 % 1020,8 hPa 0,0 l/m 4,3 km/h (1 Bft) W 260 0 min 0,000 mm 0,0 UV-I 72 W/m 8,6 C 18,3 C 6,4 km/h (2 Bft) 97,56 %
21.08.2017 19:08 18,3 C 22,2 C 55 % 1020,8 hPa 0,0 l/m 3,1 km/h (1 Bft) W 261 0 min 0,000 mm 0,0 UV-I 68 W/m 9,1 C 18,3 C 4,8 km/h (1 Bft) 100,00 %
21.08.2017 19:10 18,2 C 22,2 C 54 % 1020,7 hPa 0,0 l/m 7,6 km/h (2 Bft) W-SW 253 0 min 0,000 mm 0,0 UV-I 65 W/m 8,7 C 17,6 C 12,9 km/h (3 Bft) 97,56 %
21.08.2017 19:12 18,2 C 22,2 C 55 % 1020,8 hPa 0,0 l/m 4,6 km/h (1 Bft) W-NW 288 0 min 0,000 mm 0,0 UV-I 63 W/m 9,0 C 18,2 C 9,7 km/h (2 Bft) 100,00 %
21.08.2017 19:14 18,1 C 22,2 C 55 % 1020,8 hPa 0,0 l/m 3,0 km/h (1 Bft) W-NW 285 0 min 0,000 mm 0,0 UV-I 59 W/m 8,9 C 18,1 C 4,8 km/h (1 Bft) 100,00 %
21.08.2017 19:16 18,1 C 22,2 C 55 % 1020,8 hPa 0,0 l/m 3,2 km/h (1 Bft) W 277 0 min 0,000 mm 0,0 UV-I 54 W/m 8,9 C 18,1 C 4,8 km/h (1 Bft) 100,00 %
21.08.2017 19:18 18,0 C 22,2 C 56 % 1020,8 hPa 0,0 l/m 4,4 km/h (1 Bft) W 278 0 min 0,000 mm 0,0 UV-I 53 W/m 9,1 C 18,0 C 6,4 km/h (2 Bft) 98,11 %
21.08.2017 19:20 17,9 C 22,2 C 56 % 1020,8 hPa 0,0 l/m 4,6 km/h (1 Bft) W 269 0 min 0,000 mm 0,0 UV-I 48 W/m 9,0 C 17,9 C 6,4 km/h (2 Bft) 100,00 %
21.08.2017 19:22 17,9 C 22,2 C 56 % 1020,8 hPa 0,0 l/m 4,8 km/h (1 Bft) W 263 0 min 0,000 mm 0,0 UV-I 46 W/m 9,0 C 17,9 C 9,7 km/h (2 Bft) 100,00 %
21.08.2017 19:24 17,8 C 22,2 C 57 % 1020,8 hPa 0,0 l/m 4,7 km/h (1 Bft) W-SW 241 0 min 0,000 mm 0,0 UV-I 42 W/m 9,2 C 17,8 C 8,0 km/h (2 Bft) 96,43 %
21.08.2017 19:26 17,8 C 22,2 C 57 % 1020,8 hPa 0,0 l/m 5,2 km/h (1 Bft) W-SW 254 0 min 0,000 mm 0,0 UV-I 40 W/m 9,2 C 17,8 C 8,0 km/h (2 Bft) 100,00 %
21.08.2017 19:28 17,7 C 22,2 C 57 % 1020,8 hPa 0,0 l/m 5,3 km/h (1 Bft) W 264 0 min 0,000 mm 0,0 UV-I 38 W/m 9,1 C 17,7 C 9,7 km/h (2 Bft) 100,00 %
21.08.2017 19:30 17,7 C 22,2 C 57 % 1020,9 hPa 0,0 l/m 5,5 km/h (1 Bft) W-SW 252 0 min 0,000 mm 0,0 UV-I 35 W/m 9,1 C 17,7 C 9,7 km/h (2 Bft) 100,00 %
21.08.2017 19:32 17,6 C 22,2 C 57 % 1020,8 hPa 0,0 l/m 4,5 km/h (1 Bft) W-SW 252 0 min 0,000 mm 0,0 UV-I 32 W/m 9,0 C 17,6 C 6,4 km/h (2 Bft) 100,00 %
21.08.2017 19:34 17,5 C 22,2 C 57 % 1020,8 hPa 0,0 l/m 5,1 km/h (1 Bft) W-SW 258 0 min 0,000 mm 0,0 UV-I 31 W/m 8,9 C 17,5 C 8,0 km/h (2 Bft) 100,00 %
21.08.2017 19:36 17,4 C 22,2 C 57 % 1020,8 hPa 0,0 l/m 4,7 km/h (1 Bft) W-SW 258 0 min 0,000 mm 0,0 UV-I 28 W/m 8,8 C 17,4 C 6,4 km/h (2 Bft) 100,00 %
21.08.2017 19:38 17,3 C 22,2 C 58 % 1020,8 hPa 0,0 l/m 5,0 km/h (1 Bft) W-SW 258 0 min 0,000 mm 0,0 UV-I 26 W/m 9,0 C 17,3 C 6,4 km/h (2 Bft) 97,56 %
21.08.2017 19:40 17,3 C 22,2 C 59 % 1020,9 hPa 0,0 l/m 4,6 km/h (1 Bft) W-SW 258 0 min 0,000 mm 0,0 UV-I 24 W/m 9,2 C 17,3 C 6,4 km/h (2 Bft) 96,00 %
21.08.2017 19:42 17,2 C 22,2 C 59 % 1020,9 hPa 0,0 l/m 4,9 km/h (1 Bft) W-SW 258 0 min 0,000 mm 0,0 UV-I 22 W/m 9,1 C 17,2 C 6,4 km/h (2 Bft) 97,87 %
21.08.2017 19:44 17,1 C 22,2 C 59 % 1021,0 hPa 0,0 l/m 5,0 km/h (1 Bft) W-SW 258 0 min 0,000 mm 0,0 UV-I 20 W/m 9,0 C 17,1 C 6,4 km/h (2 Bft) 98,00 %
21.08.2017 19:46 17,0 C 22,2 C 59 % 1021,0 hPa 0,0 l/m 4,7 km/h (1 Bft) W-SW 258 0 min 0,000 mm 0,0 UV-I 19 W/m 8,9 C 17,0 C 6,4 km/h (2 Bft) 97,37 %
21.08.2017 19:48 16,9 C 22,2 C 59 % 1021,0 hPa 0,0 l/m 4,8 km/h (1 Bft) W-SW 258 0 min 0,000 mm 0,0 UV-I 17 W/m 8,8 C 16,9 C 6,4 km/h (2 Bft) 98,00 %
21.08.2017 19:50 16,9 C 22,2 C 59 % 1021,1 hPa 0,0 l/m 4,3 km/h (1 Bft) W-SW 258 0 min 0,000 mm 0,0 UV-I 15 W/m 8,8 C 16,9 C 6,4 km/h (2 Bft) 92,59 %
21.08.2017 19:52 16,8 C 22,2 C 60 % 1021,1 hPa 0,0 l/m 4,3 km/h (1 Bft) W-SW 258 0 min 0,000 mm 0,0 UV-I 13 W/m 9,0 C 16,8 C 4,8 km/h (1 Bft) 97,01 %
21.08.2017 19:54 16,7 C 22,2 C 60 % 1021,1 hPa 0,0 l/m 4,7 km/h (1 Bft) W-SW 258 2 min 0,000 mm 0,0 UV-I 12 W/m 8,9 C 16,7 C 6,4 km/h (2 Bft) 98,00 %
21.08.2017 19:56 16,7 C 22,2 C 60 % 1021,1 hPa 0,0 l/m 4,6 km/h (1 Bft) W-SW 258 0 min 0,000 mm 0,0 UV-I 11 W/m 8,9 C 16,7 C 6,4 km/h (2 Bft) 98,00 %
21.08.2017 19:58 16,6 C 22,2 C 60 % 1021,1 hPa 0,0 l/m 4,0 km/h (1 Bft) W-SW 258 0 min 0,000 mm 0,0 UV-I 9 W/m 8,8 C 16,6 C 4,8 km/h (1 Bft) 97,56 %
21.08.2017 20:00 16,5 C 22,2 C 60 % 1021,1 hPa 0,0 l/m 4,2 km/h (1 Bft) W-SW 258 0 min 0,000 mm 0,0 UV-I 7 W/m 8,7 C 16,5 C 4,8 km/h (1 Bft) 100,00 %
21.08.2017 20:02 16,4 C 22,2 C 61 % 1021,1 hPa 0,0 l/m 4,9 km/h (1 Bft) W-SW 258 0 min 0,051 mm 0,0 UV-I 7 W/m 8,9 C 16,4 C 6,4 km/h (2 Bft) 96,88 %
21.08.2017 20:04 16,3 C 22,2 C 61 % 1021,1 hPa 0,0 l/m 4,2 km/h (1 Bft) W-SW 258 0 min 0,000 mm 0,0 UV-I 5 W/m 8,8 C 16,3 C 6,4 km/h (2 Bft) 98,11 %
21.08.2017 20:06 16,3 C 22,2 C 60 % 1021,1 hPa 0,0 l/m 3,5 km/h (1 Bft) W-SW 258 0 min 0,000 mm 0,0 UV-I 5 W/m 8,5 C 16,3 C 4,8 km/h (1 Bft) 94,87 %
21.08.2017 20:08 16,2 C 22,2 C 63 % 1021,1 hPa 0,0 l/m 2,8 km/h (1 Bft) W-SW 258 0 min 0,000 mm 0,0 UV-I 5 W/m 9,1 C 16,2 C 4,8 km/h (1 Bft) 97,73 %
21.08.2017 20:10 16,2 C 22,2 C 64 % 1021,1 hPa 0,0 l/m 2,5 km/h (1 Bft) W-SW 258 0 min 0,000 mm 0,0 UV-I 5 W/m 9,4 C 16,2 C 4,8 km/h (1 Bft) 96,23 %
21.08.2017 20:12 16,0 C 22,2 C 65 % 1021,2 hPa 0,0 l/m 1,8 km/h (1 Bft) W-SW 258 0 min 0,000 mm 0,0 UV-I 5 W/m 9,4 C 16,0 C 3,2 km/h (1 Bft) 95,74 %
21.08.2017 20:14 15,9 C 22,2 C 67 % 1021,2 hPa 0,0 l/m 2,4 km/h (1 Bft) W-SW 258 0 min 0,000 mm 0,0 UV-I 5 W/m 9,8 C 15,9 C 3,2 km/h (1 Bft) 96,00 %
21.08.2017 20:16 15,7 C 22,2 C 67 % 1021,2 hPa 0,0 l/m 3,3 km/h (1 Bft) W-SW 258 0 min 0,000 mm 0,0 UV-I 5 W/m 9,6 C 15,7 C 4,8 km/h (1 Bft) 97,37 %
21.08.2017 20:18 15,6 C 22,2 C 67 % 1021,2 hPa 0,0 l/m 3,8 km/h (1 Bft) W-SW 256 0 min 0,000 mm 0,0 UV-I 5 W/m 9,5 C 15,6 C 4,8 km/h (1 Bft) 98,21 %
21.08.2017 20:20 15,5 C 22,2 C 68 % 1021,2 hPa 0,0 l/m 2,6 km/h (1 Bft) W-SW 256 0 min 0,000 mm 0,0 UV-I 3 W/m 9,6 C 15,5 C 4,8 km/h (1 Bft) 95,12 %
21.08.2017 20:22 15,4 C 22,2 C 68 % 1021,2 hPa 0,0 l/m 3,0 km/h (1 Bft) W-SW 256 0 min 0,000 mm 0,0 UV-I 1 W/m 9,5 C 15,4 C 4,8 km/h (1 Bft) 96,00 %
21.08.2017 20:24 15,3 C 22,2 C 70 % 1021,2 hPa 0,0 l/m 2,9 km/h (1 Bft) W-SW 256 0 min 0,000 mm 0,0 UV-I 0 W/m 9,9 C 15,3 C 4,8 km/h (1 Bft) 93,62 %
21.08.2017 20:26 15,2 C 22,2 C 70 % 1021,2 hPa 0,0 l/m 3,0 km/h (1 Bft) W-SW 256 0 min 0,000 mm 0,0 UV-I 0 W/m 9,8 C 15,2 C 4,8 km/h (1 Bft) 94,00 %
21.08.2017 20:28 15,1 C 22,2 C 72 % 1021,2 hPa 0,0 l/m 2,5 km/h (1 Bft) W-SW 256 0 min 0,000 mm 0,0 UV-I 0 W/m 10,1 C 15,1 C 4,8 km/h (1 Bft) 97,37 %
21.08.2017 20:30 15,0 C 22,2 C 72 % 1021,2 hPa 0,0 l/m 1,4 km/h (1 Bft) W-SW 256 0 min 0,000 mm 0,0 UV-I 0 W/m 10,0 C 15,0 C 3,2 km/h (1 Bft) 94,00 %
21.08.2017 20:32 14,9 C 22,2 C 73 % 1021,3 hPa 0,0 l/m 1,9 km/h (1 Bft) W-SW 256 0 min 0,000 mm 0,0 UV-I 0 W/m 10,1 C 14,9 C 3,2 km/h (1 Bft) 96,00 %
21.08.2017 20:34 14,7 C 22,2 C 75 % 1021,3 hPa 0,0 l/m 1,1 km/h (1 Bft) W-SW 256 0 min 0,000 mm 0,0 UV-I 0 W/m 10,3 C 14,7 C 3,2 km/h (1 Bft) 94,29 %
21.08.2017 20:36 14,6 C 22,2 C 74 % 1021,3 hPa 0,0 l/m 0,4 km/h (0 Bft) W-SW 256 0 min 0,000 mm 0,0 UV-I 0 W/m 10,0 C 14,6 C 1,6 km/h (1 Bft) 96,00 %
21.08.2017 20:38 14,5 C 22,2 C 75 % 1021,3 hPa 0,0 l/m 1,7 km/h (1 Bft) W-SW 256 0 min 0,000 mm 0,0 UV-I 0 W/m 10,1 C 14,5 C 4,8 km/h (1 Bft) 96,00 %
21.08.2017 20:40 14,4 C 22,2 C 76 % 1021,3 hPa 0,0 l/m 2,2 km/h (1 Bft) W-SW 256 0 min 0,000 mm 0,0 UV-I 0 W/m 10,2 C 14,4 C 4,8 km/h (1 Bft) 97,87 %
21.08.2017 20:42 14,3 C 22,2 C 76 % 1021,3 hPa 0,0 l/m 1,6 km/h (1 Bft) W-SW 256 0 min 0,000 mm 0,0 UV-I 0 W/m 10,1 C 14,3 C 3,2 km/h (1 Bft) 97,87 %
21.08.2017 20:44 14,2 C 22,2 C 77 % 1021,4 hPa 0,0 l/m 2,3 km/h (1 Bft) W-SW 256 0 min 0,000 mm 0,0 UV-I 0 W/m 10,2 C 14,2 C 3,2 km/h (1 Bft) 98,00 %
21.08.2017 20:46 14,1 C 22,2 C 78 % 1021,4 hPa 0,0 l/m 1,5 km/h (1 Bft) W-SW 256 0 min 0,000 mm 0,0 UV-I 0 W/m 10,3 C 14,1 C 3,2 km/h (1 Bft) 95,83 %
21.08.2017 20:48 13,9 C 22,2 C 79 % 1021,4 hPa 0,0 l/m 1,1 km/h (1 Bft) W-SW 256 0 min 0,000 mm 0,0 UV-I 0 W/m 10,3 C 13,9 C 1,6 km/h (1 Bft) 98,00 %
21.08.2017 20:50 13,8 C 22,2 C 79 % 1021,4 hPa 0,0 l/m 1,4 km/h (1 Bft) W-SW 256 0 min 0,000 mm 0,0 UV-I 0 W/m 10,2 C 13,8 C 3,2 km/h (1 Bft) 97,73 %
21.08.2017 20:52 13,7 C 22,2 C 80 % 1021,4 hPa 0,0 l/m 2,3 km/h (1 Bft) W-SW 256 0 min 0,000 mm 0,0 UV-I 0 W/m 10,3 C 13,7 C 4,8 km/h (1 Bft) 95,74 %
21.08.2017 20:54 13,7 C 22,2 C 80 % 1021,5 hPa 0,0 l/m 2,4 km/h (1 Bft) W-SW 256 0 min 0,000 mm 0,0 UV-I 0 W/m 10,3 C 13,7 C 3,2 km/h (1 Bft) 97,56 %
21.08.2017 20:56 13,6 C 22,2 C 80 % 1021,5 hPa 0,0 l/m 1,2 km/h (1 Bft) W-SW 256 0 min 0,000 mm 0,0 UV-I 0 W/m 10,2 C 13,6 C 3,2 km/h (1 Bft) 100,00 %
21.08.2017 20:58 13,5 C 22,2 C 81 % 1021,5 hPa 0,0 l/m 1,4 km/h (1 Bft) W-SW 256 0 min 0,000 mm 0,0 UV-I 0 W/m 10,3 C 13,5 C 3,2 km/h (1 Bft) 100,00 %
21.08.2017 21:00 13,4 C 22,2 C 81 % 1021,6 hPa 0,0 l/m 3,3 km/h (1 Bft) W-SW 256 0 min 0,025 mm 0,0 UV-I 0 W/m 10,2 C 13,4 C 4,8 km/h (1 Bft) 100,00 %
21.08.2017 21:02 13,4 C 22,2 C 81 % 1021,7 hPa 0,0 l/m 2,9 km/h (1 Bft) W-SW 256 0 min 0,000 mm 0,0 UV-I 0 W/m 10,2 C 13,4 C 4,8 km/h (1 Bft) 98,00 %
21.08.2017 21:04 13,4 C 22,2 C 82 % 1021,6 hPa 0,0 l/m 1,7 km/h (1 Bft) W-SW 256 0 min 0,000 mm 0,0 UV-I 0 W/m 10,4 C 13,4 C 3,2 km/h (1 Bft) 100,00 %
21.08.2017 21:06 13,3 C 21,7 C 81 % 1021,7 hPa 0,0 l/m 3,1 km/h (1 Bft) W-SW 256 0 min 0,000 mm 0,0 UV-I 0 W/m 10,1 C 13,3 C 4,8 km/h (1 Bft) 98,11 %
21.08.2017 21:08 13,3 C 22,2 C 81 % 1021,7 hPa 0,0 l/m 4,0 km/h (1 Bft) W-SW 256 0 min 0,000 mm 0,0 UV-I 0 W/m 10,1 C 13,3 C 6,4 km/h (2 Bft) 100,00 %
21.08.2017 21:10 13,4 C 22,2 C 81 % 1021,7 hPa 0,0 l/m 4,2 km/h (1 Bft) W-SW 255 0 min 0,000 mm 0,0 UV-I 0 W/m 10,2 C 13,4 C 6,4 km/h (2 Bft) 100,00 %
21.08.2017 21:12 13,4 C 21,7 C 80 % 1021,7 hPa 0,0 l/m 3,7 km/h (1 Bft) W-SW 255 0 min 0,000 mm 0,0 UV-I 0 W/m 10,0 C 13,4 C 4,8 km/h (1 Bft) 100,00 %
21.08.2017 21:14 13,4 C 21,7 C 81 % 1021,7 hPa 0,0 l/m 3,2 km/h (1 Bft) W-SW 255 0 min 0,000 mm 0,0 UV-I 0 W/m 10,2 C 13,4 C 4,8 km/h (1 Bft) 100,00 %
21.08.2017 21:16 13,4 C 21,7 C 81 % 1021,8 hPa 0,0 l/m 3,6 km/h (1 Bft) W-SW 255 0 min 0,000 mm 0,0 UV-I 0 W/m 10,2 C 13,4 C 6,4 km/h (2 Bft) 100,00 %
21.08.2017 21:18 13,4 C 21,7 C 80 % 1021,8 hPa 0,0 l/m 3,2 km/h (1 Bft) W-SW 255 0 min 0,000 mm 0,0 UV-I 0 W/m 10,0 C 13,4 C 4,8 km/h (1 Bft) 100,00 %
21.08.2017 21:20 13,4 C 21,7 C 80 % 1021,8 hPa 0,0 l/m 3,3 km/h (1 Bft) W-SW 254 0 min 0,000 mm 0,0 UV-I 0 W/m 10,0 C 13,4 C 4,8 km/h (1 Bft) 97,73 %
21.08.2017 21:22 13,4 C 21,7 C 81 % 1021,7 hPa 0,0 l/m 3,5 km/h (1 Bft) SW 231 0 min 0,000 mm 0,0 UV-I 0 W/m 10,2 C 13,4 C 4,8 km/h (1 Bft) 100,00 %
21.08.2017 21:24 13,3 C 21,7 C 80 % 1021,7 hPa 0,0 l/m 3,1 km/h (1 Bft) SW 230 0 min 0,000 mm 0,0 UV-I 0 W/m 9,9 C 13,3 C 6,4 km/h (2 Bft) 97,87 %
21.08.2017 21:26 13,3 C 21,7 C 81 % 1021,7 hPa 0,0 l/m 3,4 km/h (1 Bft) SW 229 0 min 0,000 mm 0,0 UV-I 0 W/m 10,1 C 13,3 C 4,8 km/h (1 Bft) 100,00 %
21.08.2017 21:28 13,2 C 21,7 C 81 % 1021,7 hPa 0,0 l/m 3,0 km/h (1 Bft) SW 229 0 min 0,000 mm 0,0 UV-I 0 W/m 10,0 C 13,2 C 4,8 km/h (1 Bft) 100,00 %
21.08.2017 21:30 13,2 C 21,7 C 81 % 1021,7 hPa 0,0 l/m 2,6 km/h (1 Bft) SW 228 0 min 0,000 mm 0,0 UV-I 0 W/m 10,0 C 13,2 C 4,8 km/h (1 Bft) 100,00 %
21.08.2017 21:33 13,2 C 21,7 C 81 % 1021,7 hPa 0,0 l/m 1,4 km/h (1 Bft) SW 227 0 min 0,000 mm 0,0 UV-I 0 W/m 10,0 C 13,2 C 3,2 km/h (1 Bft) 100,00 %
21.08.2017 21:34 13,2 C 21,7 C 81 % 1021,7 hPa 0,0 l/m 1,7 km/h (1 Bft) SW 227 0 min 0,000 mm 0,0 UV-I 0 W/m 10,0 C 13,2 C 3,2 km/h (1 Bft) 100,00 %
21.08.2017 21:36 13,1 C 21,7 C 82 % 1021,7 hPa 0,0 l/m 2,6 km/h (1 Bft) S-SW 192 0 min 0,000 mm 0,0 UV-I 0 W/m 10,1 C 13,1 C 4,8 km/h (1 Bft) 100,00 %
21.08.2017 21:38 13,1 C 21,7 C 81 % 1021,7 hPa 0,0 l/m 3,1 km/h (1 Bft) S 186 0 min 0,000 mm 0,0 UV-I 0 W/m 9,9 C 13,1 C 4,8 km/h (1 Bft) 97,87 %
21.08.2017 21:40 13,0 C 21,7 C 81 % 1021,7 hPa 0,0 l/m 2,8 km/h (1 Bft) S 186 0 min 0,000 mm 0,0 UV-I 0 W/m 9,8 C 13,0 C 4,8 km/h (1 Bft) 100,00 %
21.08.2017 21:42 13,0 C 21,7 C 81 % 1021,7 hPa 0,0 l/m 3,2 km/h (1 Bft) S 186 0 min 0,000 mm 0,0 UV-I 0 W/m 9,8 C 13,0 C 4,8 km/h (1 Bft) 100,00 %
21.08.2017 21:44 13,0 C 21,7 C 81 % 1021,8 hPa 0,0 l/m 3,0 km/h (1 Bft) S 186 0 min 0,000 mm 0,0 UV-I 0 W/m 9,8 C 13,0 C 4,8 km/h (1 Bft) 100,00 %
21.08.2017 21:46 13,0 C 21,7 C 81 % 1021,8 hPa 0,0 l/m 3,1 km/h (1 Bft) S 186 0 min 0,000 mm 0,0 UV-I 0 W/m 9,8 C 13,0 C 8,0 km/h (2 Bft) 100,00 %
21.08.2017 21:48 13,1 C 21,7 C 82 % 1021,8 hPa 0,0 l/m 5,1 km/h (1 Bft) S 186 0 min 0,000 mm 0,0 UV-I 0 W/m 10,1 C 13,1 C 8,0 km/h (2 Bft) 97,87 %
21.08.2017 21:50 13,1 C 21,7 C 81 % 1021,8 hPa 0,0 l/m 4,1 km/h (1 Bft) S 186 0 min 0,000 mm 0,0 UV-I 0 W/m 9,9 C 13,1 C 8,0 km/h (2 Bft) 100,00 %
21.08.2017 21:52 13,1 C 21,7 C 81 % 1021,9 hPa 0,0 l/m 3,2 km/h (1 Bft) S 186 0 min 0,000 mm 0,0 UV-I 0 W/m 9,9 C 13,1 C 4,8 km/h (1 Bft) 100,00 %
21.08.2017 21:54 13,1 C 21,7 C 81 % 1021,9 hPa 0,0 l/m 3,6 km/h (1 Bft) S 186 0 min 0,000 mm 0,0 UV-I 0 W/m 9,9 C 13,1 C 6,4 km/h (2 Bft) 100,00 %
21.08.2017 21:56 13,2 C 21,7 C 81 % 1021,9 hPa 0,0 l/m 3,6 km/h (1 Bft) S 186 0 min 0,000 mm 0,0 UV-I 0 W/m 10,0 C 13,2 C 6,4 km/h (2 Bft) 100,00 %
21.08.2017 21:58 13,2 C 21,7 C 81 % 1021,9 hPa 0,0 l/m 2,3 km/h (1 Bft) S 185 0 min 0,000 mm 0,0 UV-I 0 W/m 10,0 C 13,2 C 3,2 km/h (1 Bft) 98,11 %
21.08.2017 22:00 13,2 C 21,7 C 81 % 1021,9 hPa 0,0 l/m 2,8 km/h (1 Bft) S 184 0 min 0,000 mm 0,0 UV-I 0 W/m 10,0 C 13,2 C 4,8 km/h (1 Bft) 100,00 %
21.08.2017 22:02 13,2 C 21,7 C 81 % 1021,9 hPa 0,0 l/m 2,6 km/h (1 Bft) S 184 0 min 0,000 mm 0,0 UV-I 0 W/m 10,0 C 13,2 C 4,8 km/h (1 Bft) 100,00 %
21.08.2017 22:04 13,2 C 21,7 C 81 % 1021,9 hPa 0,0 l/m 3,0 km/h (1 Bft) S 184 0 min 0,000 mm 0,0 UV-I 0 W/m 10,0 C 13,2 C 4,8 km/h (1 Bft) 100,00 %
21.08.2017 22:06 13,2 C 21,7 C 81 % 1021,9 hPa 0,0 l/m 2,0 km/h (1 Bft) S 184 0 min 0,000 mm 0,0 UV-I 0 W/m 10,0 C 13,2 C 4,8 km/h (1 Bft) 97,87 %
21.08.2017 22:08 13,2 C 21,7 C 81 % 1021,9 hPa 0,0 l/m 2,0 km/h (1 Bft) S 184 0 min 0,000 mm 0,0 UV-I 0 W/m 10,0 C 13,2 C 3,2 km/h (1 Bft) 98,04 %
21.08.2017 22:10 13,2 C 21,7 C 82 % 1022,0 hPa 0,0 l/m 3,0 km/h (1 Bft) S 184 0 min 0,000 mm 0,0 UV-I 0 W/m 10,2 C 13,2 C 4,8 km/h (1 Bft) 100,00 %
21.08.2017 22:13 13,1 C 21,7 C 82 % 1022,0 hPa 0,0 l/m 3,1 km/h (1 Bft) S 184 0 min 0,000 mm 0,0 UV-I 0 W/m 10,1 C 13,1 C 4,8 km/h (1 Bft) 100,00 %
21.08.2017 22:14 13,1 C 21,7 C 82 % 1022,0 hPa 0,0 l/m 2,9 km/h (1 Bft) S 184 0 min 0,000 mm 0,0 UV-I 0 W/m 10,1 C 13,1 C 3,2 km/h (1 Bft) 100,00 %
21.08.2017 22:16 13,1 C 21,7 C 82 % 1022,0 hPa 0,0 l/m 2,7 km/h (1 Bft) S 184 0 min 0,000 mm 0,0 UV-I 0 W/m 10,1 C 13,1 C 4,8 km/h (1 Bft) 100,00 %
21.08.2017 22:18 13,1 C 21,7 C 82 % 1022,0 hPa 0,0 l/m 2,9 km/h (1 Bft) S 184 0 min 0,000 mm 0,0 UV-I 0 W/m 10,1 C 13,1 C 6,4 km/h (2 Bft) 100,00 %
21.08.2017 22:20 13,0 C 21,7 C 83 % 1022,1 hPa 0,0 l/m 3,1 km/h (1 Bft) S 184 0 min 0,000 mm 0,0 UV-I 0 W/m 10,2 C 13,0 C 6,4 km/h (2 Bft) 100,00 %
21.08.2017 22:22 13,0 C 21,7 C 83 % 1022,2 hPa 0,0 l/m 1,1 km/h (1 Bft) S 184 0 min 0,000 mm 0,0 UV-I 0 W/m 10,2 C 13,0 C 3,2 km/h (1 Bft) 100,00 %
21.08.2017 22:24 13,0 C 21,7 C 83 % 1022,1 hPa 0,0 l/m 3,0 km/h (1 Bft) S 184 0 min 0,000 mm 0,0 UV-I 0 W/m 10,2 C 13,0 C 6,4 km/h (2 Bft) 100,00 %
21.08.2017 22:26 12,9 C 21,7 C 83 % 1022,1 hPa 0,0 l/m 2,5 km/h (1 Bft) S 184 0 min 0,000 mm 0,0 UV-I 0 W/m 10,1 C 12,9 C 6,4 km/h (2 Bft) 100,00 %
21.08.2017 22:28 12,9 C 21,7 C 83 % 1022,2 hPa 0,0 l/m 1,9 km/h (1 Bft) S 184 0 min 0,000 mm 0,0 UV-I 0 W/m 10,1 C 12,9 C 4,8 km/h (1 Bft) 95,74 %
21.08.2017 22:30 12,8 C 21,7 C 84 % 1022,2 hPa 0,0 l/m 1,5 km/h (1 Bft) S 184 0 min 0,000 mm 0,0 UV-I 0 W/m 10,2 C 12,8 C 3,2 km/h (1 Bft) 97,56 %
21.08.2017 22:32 12,8 C 21,7 C 84 % 1022,2 hPa 0,0 l/m 1,0 km/h (0 Bft) S 184 0 min 0,000 mm 0,0 UV-I 0 W/m 10,2 C 12,8 C 3,2 km/h (1 Bft) 96,43 %
21.08.2017 22:34 12,7 C 21,7 C 84 % 1022,2 hPa 0,0 l/m 2,0 km/h (1 Bft) S 184 0 min 0,000 mm 0,0 UV-I 0 W/m 10,1 C 12,7 C 4,8 km/h (1 Bft) 97,56 %
21.08.2017 22:36 12,7 C 21,7 C 84 % 1022,2 hPa 0,0 l/m 2,1 km/h (1 Bft) S 184 0 min 0,000 mm 0,0 UV-I 0 W/m 10,1 C 12,7 C 4,8 km/h (1 Bft) 95,45 %
21.08.2017 22:38 12,7 C 21,7 C 84 % 1022,2 hPa 0,0 l/m 2,2 km/h (1 Bft) S 184 0 min 0,000 mm 0,0 UV-I 0 W/m 10,1 C 12,7 C 4,8 km/h (1 Bft) 98,00 %
21.08.2017 22:40 12,7 C 21,7 C 84 % 1022,2 hPa 0,0 l/m 2,2 km/h (1 Bft) S 184 0 min 0,000 mm 0,0 UV-I 0 W/m 10,1 C 12,7 C 3,2 km/h (1 Bft) 98,11 %
21.08.2017 22:42 12,7 C 21,7 C 84 % 1022,2 hPa 0,0 l/m 2,1 km/h (1 Bft) S 184 0 min 0,000 mm 0,0 UV-I 0 W/m 10,1 C 12,7 C 3,2 km/h (1 Bft) 97,87 %
21.08.2017 22:44 12,7 C 21,7 C 84 % 1022,2 hPa 0,0 l/m 2,0 km/h (1 Bft) S 184 0 min 0,000 mm 0,0 UV-I 0 W/m 10,1 C 12,7 C 3,2 km/h (1 Bft) 97,44 %
21.08.2017 22:46 12,7 C 21,7 C 84 % 1022,2 hPa 0,0 l/m 2,2 km/h (1 Bft) S 184 0 min 0,000 mm 0,0 UV-I 0 W/m 10,1 C 12,7 C 3,2 km/h (1 Bft) 96,00 %
21.08.2017 22:48 12,6 C 21,7 C 84 % 1022,2 hPa 0,0 l/m 2,2 km/h (1 Bft) S 184 0 min 0,000 mm 0,0 UV-I 0 W/m 10,0 C 12,6 C 3,2 km/h (1 Bft) 100,00 %
21.08.2017 22:50 12,6 C 21,7 C 84 % 1022,1 hPa 0,0 l/m 2,1 km/h (1 Bft) S 184 0 min 0,000 mm 0,0 UV-I 0 W/m 10,0 C 12,6 C 3,2 km/h (1 Bft) 94,55 %
21.08.2017 22:52 12,6 C 21,7 C 84 % 1022,1 hPa 0,0 l/m 1,6 km/h (1 Bft) S 184 0 min 0,000 mm 0,0 UV-I 0 W/m 10,0 C 12,6 C 3,2 km/h (1 Bft) 97,87 %
21.08.2017 22:54 12,6 C 21,7 C 85 % 1022,1 hPa 0,0 l/m 1,5 km/h (1 Bft) S 184 0 min 0,000 mm 0,0 UV-I 0 W/m 10,1 C 12,6 C 3,2 km/h (1 Bft) 95,74 %
21.08.2017 22:56 12,5 C 21,7 C 85 % 1022,1 hPa 0,0 l/m 2,0 km/h (1 Bft) S 184 0 min 0,000 mm 0,0 UV-I 0 W/m 10,0 C 12,5 C 3,2 km/h (1 Bft) 96,00 %
21.08.2017 22:58 12,5 C 21,7 C 85 % 1022,1 hPa 0,0 l/m 2,3 km/h (1 Bft) S 184 0 min 0,000 mm 0,0 UV-I 0 W/m 10,0 C 12,5 C 4,8 km/h (1 Bft) 96,00 %
21.08.2017 23:00 12,4 C 21,7 C 85 % 1022,1 hPa 0,0 l/m 2,5 km/h (1 Bft) S 184 0 min 0,000 mm 0,0 UV-I 0 W/m 9,9 C 12,4 C 4,8 km/h (1 Bft) 95,12 %
21.08.2017 23:02 12,5 C 21,7 C 85 % 1022,1 hPa 0,0 l/m 3,1 km/h (1 Bft) S 184 0 min 0,000 mm 0,0 UV-I 0 W/m 10,0 C 12,5 C 6,4 km/h (2 Bft) 95,74 %
21.08.2017 23:04 12,5 C 21,7 C 85 % 1022,1 hPa 0,0 l/m 3,7 km/h (1 Bft) S 184 0 min 0,000 mm 0,0 UV-I 0 W/m 10,0 C 12,5 C 6,4 km/h (2 Bft) 97,56 %
21.08.2017 23:06 12,6 C 21,7 C 85 % 1022,1 hPa 0,0 l/m 3,8 km/h (1 Bft) S 183 0 min 0,000 mm 0,0 UV-I 0 W/m 10,1 C 12,6 C 6,4 km/h (2 Bft) 95,74 %
21.08.2017 23:08 12,6 C 21,7 C 84 % 1022,1 hPa 0,0 l/m 5,1 km/h (1 Bft) S 190 0 min 0,000 mm 0,0 UV-I 0 W/m 10,0 C 12,6 C 9,7 km/h (2 Bft) 96,00 %
21.08.2017 23:10 12,6 C 21,7 C 85 % 1022,1 hPa 0,0 l/m 4,1 km/h (1 Bft) S-SW 207 0 min 0,000 mm 0,0 UV-I 0 W/m 10,1 C 12,6 C 8,0 km/h (2 Bft) 96,00 %
21.08.2017 23:12 12,6 C 21,7 C 84 % 1022,1 hPa 0,0 l/m 3,4 km/h (1 Bft) S 183 0 min 0,000 mm 0,0 UV-I 0 W/m 10,0 C 12,6 C 4,8 km/h (1 Bft) 98,00 %
21.08.2017 23:14 12,6 C 21,7 C 84 % 1022,1 hPa 0,0 l/m 3,1 km/h (1 Bft) S 183 0 min 0,000 mm 0,0 UV-I 0 W/m 10,0 C 12,6 C 4,8 km/h (1 Bft) 97,87 %
21.08.2017 23:16 12,6 C 21,7 C 84 % 1022,0 hPa 0,0 l/m 2,8 km/h (1 Bft) S-SW 199 0 min 0,000 mm 0,0 UV-I 0 W/m 10,0 C 12,6 C 6,4 km/h (2 Bft) 97,37 %
21.08.2017 23:18 12,6 C 21,7 C 84 % 1022,1 hPa 0,0 l/m 3,7 km/h (1 Bft) S-SW 199 0 min 0,000 mm 0,0 UV-I 0 W/m 10,0 C 12,6 C 6,4 km/h (2 Bft) 97,87 %
21.08.2017 23:20 12,6 C 21,7 C 84 % 1022,1 hPa 0,0 l/m 3,1 km/h (1 Bft) S-SW 199 0 min 0,000 mm 0,0 UV-I 0 W/m 10,0 C 12,6 C 6,4 km/h (2 Bft) 98,00 %
21.08.2017 23:22 12,6 C 21,7 C 84 % 1022,1 hPa 0,0 l/m 4,8 km/h (1 Bft) S-SW 200 0 min 0,000 mm 0,0 UV-I 0 W/m 10,0 C 12,6 C 6,4 km/h (2 Bft) 98,04 %
21.08.2017 23:24 12,6 C 21,7 C 84 % 1022,1 hPa 0,0 l/m 5,1 km/h (1 Bft) S-SW 200 0 min 0,000 mm 0,0 UV-I 0 W/m 10,0 C 12,6 C 8,0 km/h (2 Bft) 94,29 %
21.08.2017 23:26 12,6 C 21,7 C 84 % 1022,1 hPa 0,0 l/m 3,4 km/h (1 Bft) S-SW 198 0 min 0,000 mm 0,0 UV-I 0 W/m 10,0 C 12,6 C 6,4 km/h (2 Bft) 96,55 %
21.08.2017 23:28 12,6 C 21,7 C 84 % 1022,1 hPa 0,0 l/m 4,0 km/h (1 Bft) S-SW 198 0 min 0,000 mm 0,0 UV-I 0 W/m 10,0 C 12,6 C 6,4 km/h (2 Bft) 96,00 %
21.08.2017 23:30 12,6 C 21,7 C 84 % 1022,1 hPa 0,0 l/m 2,9 km/h (1 Bft) S-SW 198 0 min 0,000 mm 0,0 UV-I 0 W/m 10,0 C 12,6 C 4,8 km/h (1 Bft) 97,56 %
21.08.2017 23:32 12,5 C 21,7 C 84 % 1022,1 hPa 0,0 l/m 4,0 km/h (1 Bft) S-SW 198 0 min 0,000 mm 0,0 UV-I 0 W/m 9,9 C 12,5 C 6,4 km/h (2 Bft) 97,87 %
21.08.2017 23:34 12,5 C 21,7 C 84 % 1022,1 hPa 0,0 l/m 4,3 km/h (1 Bft) S-SW 198 0 min 0,000 mm 0,0 UV-I 0 W/m 9,9 C 12,5 C 6,4 km/h (2 Bft) 98,00 %
21.08.2017 23:36 12,5 C 21,7 C 85 % 1022,1 hPa 0,0 l/m 4,2 km/h (1 Bft) S-SW 198 0 min 0,000 mm 0,0 UV-I 0 W/m 10,0 C 12,5 C 8,0 km/h (2 Bft) 97,37 %
21.08.2017 23:38 12,5 C 21,7 C 85 % 1022,1 hPa 0,0 l/m 5,6 km/h (1 Bft) S-SW 209 0 min 0,000 mm 0,0 UV-I 0 W/m 10,0 C 12,5 C 8,0 km/h (2 Bft) 97,87 %
21.08.2017 23:40 12,4 C 21,7 C 85 % 1022,1 hPa 0,0 l/m 5,4 km/h (1 Bft) S-SW 209 0 min 0,000 mm 0,0 UV-I 0 W/m 9,9 C 12,4 C 8,0 km/h (2 Bft) 98,11 %
21.08.2017 23:43 12,4 C 21,7 C 85 % 1022,1 hPa 0,0 l/m 5,5 km/h (1 Bft) S 180 0 min 0,000 mm 0,0 UV-I 0 W/m 9,9 C 12,4 C 8,0 km/h (2 Bft) 97,37 %
21.08.2017 23:44 12,4 C 21,7 C 85 % 1022,1 hPa 0,0 l/m 6,6 km/h (2 Bft) S-SW 200 0 min 0,000 mm 0,0 UV-I 0 W/m 9,9 C 12,3 C 9,7 km/h (2 Bft) 100,00 %
21.08.2017 23:46 12,4 C 21,7 C 85 % 1022,2 hPa 0,0 l/m 6,6 km/h (2 Bft) S-SW 207 0 min 0,000 mm 0,0 UV-I 0 W/m 9,9 C 12,3 C 9,7 km/h (2 Bft) 96,23 %
21.08.2017 23:48 12,4 C 21,7 C 85 % 1022,1 hPa 0,0 l/m 5,0 km/h (1 Bft) S 182 0 min 0,000 mm 0,0 UV-I 0 W/m 9,9 C 12,4 C 8,0 km/h (2 Bft) 98,00 %
21.08.2017 23:50 12,4 C 21,7 C 85 % 1022,1 hPa 0,0 l/m 4,0 km/h (1 Bft) S-SW 194 0 min 0,000 mm 0,0 UV-I 0 W/m 9,9 C 12,4 C 6,4 km/h (2 Bft) 100,00 %
21.08.2017 23:52 12,4 C 21,7 C 85 % 1022,1 hPa 0,0 l/m 4,3 km/h (1 Bft) S 191 0 min 0,000 mm 0,0 UV-I 0 W/m 9,9 C 12,4 C 6,4 km/h (2 Bft) 100,00 %
21.08.2017 23:54 12,4 C 21,7 C 85 % 1022,1 hPa 0,0 l/m 6,1 km/h (2 Bft) S-SW 205 0 min 0,000 mm 0,0 UV-I 0 W/m 9,9 C 12,4 C 11,3 km/h (2 Bft) 100,00 %
21.08.2017 23:56 12,4 C 21,7 C 85 % 1022,1 hPa 0,0 l/m 5,1 km/h (1 Bft) S-SW 195 0 min 0,000 mm 0,0 UV-I 0 W/m 9,9 C 12,4 C 8,0 km/h (2 Bft) 98,31 %
21.08.2017 23:58 12,4 C 21,7 C 84 % 1022,1 hPa 0,0 l/m 4,7 km/h (1 Bft) S-SW 194 0 min 0,000 mm 0,0 UV-I 0 W/m 9,8 C 12,4 C 9,7 km/h (2 Bft) 100,00 %
_ Min-Zeit 23:00 04:16 14:26 16:52 - 02:46 - - - - - - 18:12 04:44 02:46 15:26
Minimum _ 12,4 C 21,1 C 47 % 1020,5 hPa - 0,0 km/h (0 Bft) - - - - - - 7,8 C 10,4 C 0,0 km/h (0 Bft) 89,47 %
_ Max-Zeit 15:16 00:00 02:52 08:24 00:00 10:40 - - 13:23 15:00 13:20 12:58 08:20 15:14 14:34 00:02
Maximum _ 20,3 C 22,2 C 92 % 1022,8 hPa 0,0 l/m 14,8 km/h
SW (3 Bft)
- - 3 min 0,458 mm 4,1 UV-I 849 W/m 12,1 C 20,2 C 24,1 km/h
W-SW (4 Bft)
100,00 %
Durchschnitt _ 15,7 C 21,6 C 73 % 1021,9 hPa #0,0 l/m 6,1 km/h (2 Bft) W-SW - #8:16 h #3,429 mm 2,3 UV-I 362 W/m 10,5 C 15,2 C 10,4 km/h (2 Bft) 98,19 %